[[{"header":{"parameterUnit":"m.s-1","parameterCategory":1,"la1":30.6,"la2":29.2853,"lo1":-89.7004,"lo2":-87.6739,"dy":0.0162,"dx":0.0183,"nx":112,"ny":82,"refTime":"2024-02-09T06:00:00:Z","depth":0,"parameterNumber":2,"parameterNumberName":"U-component_of_WINDS"},"data":[0.0,0.0,0.0,0.0,0.0,0.0,0.0,0.0,0.0,0.0,0.0,0.0,0.0,0.0,0.0,0.0,0.0,0.0,0.0,0.0,0.0,0.0,0.0,0.0,0.0,0.0,0.0,0.0,0.0,0.0,0.0,0.0,0.0,0.0,0.0,0.0,0.0,0.0,0.0,0.0,0.0,0.0,0.0,0.0,0.0,0.0,0.0,0.0,0.0,0.0,0.0,0.0,0.0,0.0,0.0,0.0,0.0,0.0,0.0,0.0,0.0,0.0,0.0,0.0,0.0,0.0,0.0,0.0,0.0,0.0,0.0,0.0,0.0,0.0,0.0,0.0,0.0,0.0,0.0,0.0,0.0,0.0,0.0,0.0,0.0,0.0,0.0,0.0,0.0,0.0,-3.5562,-3.7732,-4.1844,-4.4151,-4.3476,-4.3163,-4.1262,-3.7053,0.0,0.0,0.0,0.0,0.0,0.0,0.0,0.0,0.0,0.0,0.0,0.0,0.0,0.0,0.0,0.0,0.0,0.0,0.0,0.0,0.0,0.0,0.0,0.0,0.0,0.0,0.0,0.0,0.0,0.0,0.0,0.0,0.0,0.0,0.0,0.0,0.0,0.0,0.0,0.0,0.0,0.0,0.0,0.0,0.0,0.0,0.0,0.0,0.0,0.0,0.0,0.0,0.0,0.0,0.0,0.0,0.0,0.0,0.0,0.0,0.0,0.0,0.0,0.0,0.0,0.0,0.0,0.0,0.0,0.0,0.0,0.0,0.0,0.0,0.0,0.0,0.0,0.0,0.0,0.0,0.0,0.0,0.0,0.0,0.0,0.0,0.0,0.0,0.0,0.0,0.0,0.0,0.0,0.0,0.0,0.0,0.0,0.0,0.0,0.0,0.0,0.0,0.0,0.0,-3.5955,-4.1348,-4.2971,-4.3754,-4.3894,-4.2654,-4.1154,-3.9536,0.0,0.0,0.0,0.0,0.0,0.0,0.0,0.0,0.0,0.0,0.0,0.0,0.0,0.0,0.0,0.0,0.0,0.0,0.0,0.0,0.0,0.0,0.0,0.0,0.0,0.0,0.0,0.0,0.0,0.0,0.0,0.0,0.0,0.0,0.0,0.0,0.0,0.0,0.0,0.0,0.0,0.0,0.0,0.0,0.0,0.0,0.0,0.0,0.0,0.0,0.0,0.0,0.0,0.0,0.0,0.0,0.0,0.0,0.0,0.0,0.0,0.0,0.0,0.0,0.0,0.0,0.0,0.0,0.0,0.0,0.0,0.0,0.0,0.0,0.0,0.0,0.0,0.0,0.0,0.0,0.0,0.0,0.0,0.0,0.0,0.0,0.0,0.0,0.0,0.0,0.0,0.0,0.0,0.0,0.0,0.0,0.0,0.0,0.0,0.0,0.0,0.0,0.0,-3.5274,-3.7662,-4.2654,-4.3359,-4.3546,-4.371,-4.2433,-4.0697,-3.8515,-3.6625,0.0,0.0,0.0,0.0,0.0,0.0,0.0,0.0,0.0,0.0,0.0,0.0,0.0,0.0,0.0,0.0,0.0,0.0,0.0,0.0,0.0,0.0,0.0,0.0,0.0,0.0,0.0,0.0,0.0,0.0,0.0,0.0,0.0,0.0,0.0,0.0,0.0,0.0,0.0,0.0,0.0,0.0,0.0,0.0,0.0,0.0,0.0,0.0,0.0,0.0,0.0,0.0,0.0,0.0,0.0,0.0,0.0,0.0,0.0,0.0,0.0,0.0,0.0,0.0,0.0,0.0,0.0,0.0,0.0,0.0,0.0,0.0,0.0,0.0,0.0,0.0,0.0,0.0,0.0,0.0,0.0,0.0,0.0,0.0,0.0,0.0,0.0,0.0,0.0,0.0,0.0,0.0,0.0,0.0,0.0,0.0,0.0,0.0,0.0,0.0,0.0,0.0,-3.8329,-3.9547,-4.3111,-4.3515,-4.3515,-4.3515,-4.1915,-3.9886,-3.7425,-3.5408,0.0,0.0,0.0,0.0,0.0,0.0,0.0,0.0,0.0,0.0,0.0,0.0,0.0,0.0,0.0,0.0,0.0,0.0,0.0,0.0,0.0,0.0,0.0,0.0,0.0,0.0,0.0,0.0,0.0,0.0,0.0,0.0,0.0,0.0,0.0,0.0,0.0,0.0,0.0,0.0,0.0,0.0,0.0,0.0,0.0,0.0,0.0,0.0,0.0,0.0,0.0,0.0,0.0,0.0,0.0,0.0,0.0,0.0,0.0,0.0,0.0,0.0,0.0,0.0,0.0,0.0,0.0,0.0,0.0,0.0,0.0,0.0,0.0,0.0,0.0,0.0,0.0,0.0,0.0,0.0,0.0,0.0,0.0,0.0,0.0,0.0,0.0,0.0,0.0,0.0,0.0,0.0,0.0,0.0,0.0,0.0,0.0,0.0,0.0,0.0,0.0,0.0,-3.84,-4.0963,-4.3255,-4.3515,-4.3515,-4.3515,-4.0666,-3.8691,-3.815,-3.4453,0.0,0.0,0.0,0.0,0.0,0.0,0.0,0.0,0.0,0.0,0.0,0.0,0.0,0.0,0.0,0.0,0.0,0.0,0.0,0.0,0.0,0.0,0.0,0.0,0.0,0.0,0.0,0.0,0.0,0.0,0.0,0.0,0.0,0.0,0.0,0.0,0.0,0.0,0.0,0.0,0.0,0.0,0.0,0.0,0.0,0.0,0.0,0.0,0.0,0.0,0.0,0.0,0.0,0.0,0.0,0.0,0.0,0.0,0.0,0.0,0.0,0.0,0.0,0.0,0.0,0.0,0.0,0.0,0.0,0.0,0.0,0.0,0.0,0.0,0.0,0.0,0.0,0.0,0.0,0.0,0.0,0.0,0.0,0.0,0.0,0.0,0.0,0.0,0.0,0.0,0.0,0.0,0.0,0.0,0.0,0.0,0.0,0.0,0.0,0.0,0.0,0.0,-3.8021,-4.0403,0.0,-4.3515,-4.3515,-4.3515,-4.1151,-3.9049,-3.7537,0.0,0.0,0.0,0.0,0.0,0.0,0.0,0.0,0.0,0.0,0.0,0.0,0.0,0.0,0.0,0.0,0.0,0.0,0.0,0.0,0.0,0.0,0.0,0.0,0.0,0.0,0.0,0.0,0.0,0.0,0.0,0.0,0.0,0.0,0.0,0.0,0.0,0.0,0.0,0.0,0.0,0.0,0.0,0.0,0.0,0.0,0.0,0.0,0.0,0.0,0.0,0.0,0.0,0.0,0.0,0.0,0.0,0.0,0.0,0.0,0.0,0.0,0.0,0.0,0.0,0.0,0.0,0.0,0.0,0.0,0.0,0.0,0.0,0.0,0.0,0.0,0.0,0.0,0.0,0.0,0.0,0.0,0.0,0.0,0.0,0.0,0.0,0.0,0.0,0.0,0.0,0.0,0.0,0.0,0.0,0.0,0.0,0.0,0.0,0.0,0.0,0.0,-3.6074,-3.8358,-4.063,0.0,-4.3515,-4.3387,-4.313,-4.0628,-3.8332,-3.6712,0.0,0.0,0.0,0.0,0.0,0.0,0.0,0.0,0.0,0.0,0.0,0.0,0.0,0.0,0.0,0.0,0.0,0.0,0.0,0.0,0.0,0.0,0.0,0.0,0.0,0.0,0.0,0.0,0.0,0.0,0.0,0.0,0.0,0.0,0.0,0.0,0.0,0.0,0.0,0.0,0.0,0.0,0.0,0.0,0.0,0.0,0.0,0.0,0.0,0.0,0.0,0.0,0.0,0.0,0.0,0.0,0.0,0.0,0.0,0.0,0.0,0.0,0.0,0.0,0.0,0.0,0.0,0.0,0.0,0.0,0.0,0.0,0.0,0.0,0.0,0.0,0.0,0.0,0.0,0.0,0.0,0.0,0.0,0.0,0.0,0.0,0.0,0.0,0.0,0.0,0.0,0.0,0.0,0.0,0.0,0.0,0.0,0.0,0.0,0.0,0.0,0.0,-3.6223,-3.9533,-4.2069,-4.3365,-4.3515,-4.3167,-4.2359,-3.8615,-3.6149,0.0,0.0,0.0,0.0,0.0,0.0,0.0,0.0,0.0,0.0,0.0,0.0,0.0,0.0,0.0,0.0,0.0,0.0,0.0,0.0,0.0,0.0,0.0,0.0,0.0,0.0,0.0,0.0,0.0,0.0,0.0,0.0,0.0,0.0,0.0,0.0,0.0,0.0,0.0,0.0,0.0,0.0,0.0,0.0,0.0,0.0,0.0,0.0,0.0,0.0,0.0,0.0,0.0,0.0,0.0,0.0,0.0,0.0,0.0,0.0,0.0,0.0,0.0,0.0,0.0,0.0,0.0,0.0,0.0,0.0,0.0,0.0,0.0,0.0,0.0,0.0,0.0,0.0,0.0,0.0,0.0,0.0,0.0,0.0,0.0,0.0,0.0,0.0,0.0,0.0,0.0,0.0,0.0,0.0,0.0,0.0,0.0,0.0,0.0,0.0,0.0,0.0,0.0,-3.6067,-3.9209,-4.183,-4.3331,-4.3515,-4.3167,-4.2359,-3.9129,-3.6657,-3.5578,0.0,0.0,0.0,0.0,0.0,0.0,0.0,0.0,0.0,0.0,0.0,0.0,0.0,0.0,0.0,0.0,0.0,0.0,0.0,0.0,0.0,0.0,0.0,0.0,0.0,0.0,0.0,0.0,0.0,0.0,0.0,0.0,0.0,0.0,0.0,0.0,0.0,0.0,0.0,0.0,0.0,0.0,0.0,0.0,0.0,0.0,0.0,0.0,0.0,0.0,0.0,0.0,0.0,0.0,0.0,0.0,0.0,0.0,0.0,0.0,0.0,0.0,0.0,0.0,0.0,0.0,0.0,0.0,0.0,0.0,0.0,0.0,0.0,0.0,0.0,0.0,0.0,0.0,0.0,0.0,0.0,0.0,0.0,0.0,0.0,0.0,0.0,0.0,0.0,0.0,0.0,0.0,0.0,0.0,0.0,0.0,0.0,0.0,0.0,0.0,0.0,0.0,-3.6001,-3.9129,-4.1735,-4.3331,-4.3221,-4.269,-4.1882,-3.8542,-3.6062,-3.4996,0.0,0.0,0.0,0.0,0.0,0.0,0.0,0.0,0.0,0.0,0.0,0.0,0.0,0.0,0.0,0.0,0.0,0.0,0.0,0.0,0.0,0.0,0.0,0.0,0.0,0.0,0.0,0.0,0.0,0.0,0.0,0.0,0.0,0.0,0.0,0.0,0.0,0.0,0.0,0.0,0.0,0.0,0.0,0.0,0.0,0.0,0.0,0.0,0.0,0.0,0.0,0.0,0.0,0.0,0.0,0.0,0.0,0.0,0.0,0.0,0.0,0.0,0.0,0.0,0.0,0.0,0.0,0.0,0.0,0.0,0.0,0.0,0.0,0.0,0.0,0.0,0.0,0.0,0.0,0.0,0.0,0.0,0.0,0.0,0.0,0.0,0.0,0.0,0.0,0.0,0.0,0.0,0.0,0.0,0.0,0.0,0.0,0.0,0.0,0.0,0.0,0.0,-3.6083,-3.9166,-4.1735,-4.3331,-4.2763,-4.1992,-4.1168,-3.7426,-3.487,-3.4191,0.0,0.0,0.0,0.0,0.0,0.0,0.0,0.0,0.0,0.0,0.0,0.0,0.0,0.0,0.0,0.0,0.0,0.0,0.0,0.0,0.0,0.0,0.0,0.0,0.0,0.0,0.0,0.0,0.0,0.0,0.0,0.0,0.0,0.0,0.0,0.0,0.0,0.0,0.0,0.0,0.0,0.0,0.0,0.0,0.0,0.0,0.0,0.0,0.0,0.0,0.0,0.0,0.0,0.0,0.0,0.0,0.0,0.0,0.0,0.0,-2.7163,0.0,0.0,0.0,0.0,0.0,0.0,0.0,0.0,0.0,0.0,0.0,0.0,0.0,0.0,0.0,0.0,0.0,0.0,0.0,0.0,0.0,0.0,0.0,0.0,0.0,0.0,0.0,0.0,0.0,0.0,0.0,0.0,0.0,0.0,0.0,0.0,0.0,0.0,0.0,0.0,0.0,-3.6905,-3.9496,-4.1735,-4.3331,-4.2763,-4.1992,-4.1168,-3.7991,-3.5413,-3.3973,-3.1658,0.0,0.0,0.0,0.0,0.0,0.0,0.0,0.0,0.0,0.0,0.0,0.0,0.0,0.0,0.0,0.0,0.0,0.0,0.0,0.0,0.0,0.0,0.0,0.0,0.0,0.0,0.0,0.0,0.0,0.0,0.0,0.0,0.0,0.0,0.0,0.0,0.0,0.0,0.0,0.0,0.0,0.0,0.0,0.0,0.0,0.0,0.0,0.0,0.0,0.0,0.0,0.0,0.0,0.0,0.0,0.0,0.0,0.0,0.0,0.0,-2.8517,0.0,0.0,0.0,0.0,0.0,0.0,0.0,0.0,0.0,0.0,0.0,0.0,0.0,0.0,0.0,0.0,0.0,0.0,0.0,0.0,0.0,0.0,0.0,0.0,0.0,0.0,0.0,0.0,0.0,0.0,0.0,0.0,0.0,0.0,0.0,0.0,0.0,0.0,0.0,0.0,-3.7199,-3.9606,-4.1735,-4.3331,-4.2433,-4.1535,-4.1132,-3.7756,-3.5298,-3.4417,-3.19,0.0,0.0,0.0,0.0,0.0,0.0,0.0,0.0,0.0,0.0,0.0,0.0,0.0,0.0,0.0,0.0,0.0,0.0,0.0,0.0,0.0,0.0,0.0,0.0,0.0,0.0,0.0,0.0,0.0,0.0,0.0,0.0,0.0,0.0,0.0,0.0,0.0,0.0,0.0,0.0,0.0,0.0,0.0,0.0,0.0,0.0,0.0,0.0,0.0,0.0,0.0,0.0,0.0,-3.3146,-3.3954,-3.4431,-3.4578,-3.5018,-3.5518,-3.2852,-3.1494,-3.1121,-3.0872,0.0,0.0,0.0,0.0,0.0,0.0,0.0,0.0,0.0,0.0,0.0,0.0,0.0,0.0,0.0,0.0,0.0,0.0,0.0,0.0,0.0,0.0,0.0,0.0,-3.3251,-3.279,-3.0844,0.0,0.0,0.0,0.0,0.0,0.0,0.0,0.0,0.0,0.0,0.0,-3.7419,-3.9827,-4.1882,-4.3314,-4.2066,-4.1095,-4.1095,-3.7609,-3.5298,-3.5041,-3.2362,-3.0721,0.0,0.0,0.0,0.0,0.0,0.0,0.0,0.0,0.0,0.0,0.0,0.0,0.0,0.0,0.0,0.0,0.0,0.0,0.0,0.0,0.0,0.0,0.0,0.0,0.0,0.0,0.0,0.0,0.0,0.0,0.0,0.0,-2.7722,-2.679,0.0,0.0,0.0,0.0,0.0,0.0,0.0,0.0,0.0,0.0,0.0,0.0,0.0,-3.1532,-3.2999,-3.4651,-3.5165,-3.4564,-3.6802,-3.7588,-3.7052,-3.7734,-3.8102,-3.8212,-3.7771,0.0,-3.3285,-3.1851,0.0,0.0,0.0,0.0,0.0,0.0,0.0,0.0,0.0,0.0,0.0,0.0,0.0,0.0,0.0,0.0,0.0,0.0,0.0,0.0,0.0,0.0,-3.4545,-3.386,-3.4228,-3.4485,0.0,-3.2449,-3.1373,-3.0337,-3.0182,0.0,0.0,0.0,0.0,0.0,0.0,0.0,-3.8322,-4.0634,-4.2506,-4.3387,-4.2066,-4.1095,-4.1095,-3.8689,-3.656,-3.5078,-3.394,-3.2388,-3.0343,-3.1039,0.0,0.0,0.0,0.0,0.0,0.0,0.0,0.0,0.0,0.0,0.0,0.0,0.0,0.0,0.0,0.0,0.0,0.0,0.0,0.0,0.0,0.0,0.0,0.0,0.0,0.0,0.0,0.0,0.0,-2.7798,-2.7493,-2.6722,-2.6602,-2.6135,0.0,0.0,0.0,0.0,0.0,0.0,0.0,0.0,0.0,-3.3366,-3.388,-3.4702,-3.5877,-3.7477,-3.8358,-3.8453,-3.9994,-4.0781,-4.0871,-4.1222,-4.1405,-4.1368,-4.0928,-3.9643,-3.7698,-3.5202,-3.3403,-3.2168,0.0,0.0,0.0,0.0,-3.1713,-3.2241,-3.2477,-3.1888,-3.1225,-3.2375,0.0,0.0,0.0,0.0,0.0,0.0,0.0,0.0,0.0,0.0,-3.7096,-3.7184,-3.7514,-3.7661,-3.7294,-3.6049,-3.431,0.0,-3.1898,-3.1935,-3.1017,0.0,0.0,0.0,0.0,-3.7037,-3.9093,-4.1075,-4.2616,-4.3404,-4.247,-4.1589,-4.1132,-3.9313,-3.7661,-3.6486,-3.4761,-3.333,-3.2265,-3.1932,-3.1672,0.0,0.0,0.0,0.0,0.0,0.0,0.0,0.0,0.0,0.0,0.0,0.0,0.0,0.0,0.0,0.0,0.0,0.0,0.0,0.0,0.0,0.0,0.0,0.0,0.0,0.0,0.0,0.0,-2.797,-2.775,-2.6712,-2.7519,-2.7493,0.0,0.0,0.0,0.0,0.0,0.0,-3.2572,-3.3403,-3.4798,-3.6802,-3.7514,-3.8432,-3.9659,-4.0818,-4.1735,-4.2343,-4.2947,-4.3534,-4.4085,-4.3901,-4.3791,-4.3754,-4.2947,-4.2139,-4.1168,-3.8175,-3.6046,-3.4651,-3.388,-3.4027,-3.4651,-3.3844,-3.4064,-3.4798,-3.5188,-3.4564,-3.3683,-3.4504,-3.382,-3.2645,-3.2645,0.0,0.0,0.0,0.0,-3.5848,-3.6707,-3.7955,-3.9203,-4.001,-4.0194,-4.0194,-4.0194,-3.9276,-3.7441,0.0,-3.4027,-3.399,-3.2559,0.0,0.0,0.0,0.0,-3.8175,-3.9974,-4.1625,-4.2837,-4.3441,-4.2763,-4.2066,-4.1462,-3.9937,-3.8652,-3.786,-3.5862,-3.4468,-3.3844,-3.3032,-3.2458,-3.2102,0.0,0.0,0.0,0.0,0.0,0.0,0.0,0.0,0.0,0.0,0.0,0.0,0.0,0.0,0.0,0.0,0.0,0.0,0.0,0.0,0.0,0.0,0.0,0.0,0.0,0.0,0.0,0.0,0.0,-2.6785,-2.9977,0.0,0.0,0.0,0.0,-3.1213,-3.2669,-3.4284,-3.5973,-3.6831,-3.8704,-4.1846,-4.1992,-4.313,-4.5443,-4.5553,-4.5626,-4.5663,-4.57,-4.5736,-4.5736,-4.5002,-4.4635,-4.4581,-4.3791,-4.2983,-4.2066,-3.9606,-3.8065,-3.7235,-3.6413,-3.6611,-3.7235,-3.6413,-3.6611,-3.7199,-3.6486,-3.6193,-3.6229,-3.7052,-3.6758,-3.6046,-3.6046,-3.5495,0.0,0.0,-3.6721,-3.7566,-3.8358,-3.9203,-4.0047,-4.0838,-4.1022,-4.1022,-4.1022,-4.0985,-3.9974,0.0,-3.6156,-3.5899,-3.4968,0.0,-3.7235,-3.7309,-3.935,-4.0912,-4.1022,-4.2433,-4.3478,-4.3515,-4.2763,-4.2286,-4.2249,-4.0744,-3.9496,-3.8689,-3.7823,-3.6281,-3.388,-3.4468,-3.4223,-3.297,-3.3727,0.0,0.0,0.0,0.0,0.0,0.0,0.0,0.0,0.0,0.0,0.0,0.0,0.0,0.0,0.0,0.0,0.0,0.0,0.0,0.0,0.0,0.0,0.0,0.0,0.0,0.0,0.0,0.0,-3.1237,-3.344,0.0,-3.1713,-3.2849,-3.4,-3.4676,-3.6127,-3.7881,-4.0047,-4.0928,-4.2376,-4.4562,-4.4635,-4.5039,-4.5883,-4.5883,-4.5883,-4.5883,-4.5883,-4.5883,-4.5883,-4.559,-4.5186,-4.4654,-4.4415,-4.3828,-4.302,-4.2139,-4.1001,-3.9753,-3.8909,-3.9093,-3.9717,-3.8909,-3.9129,-3.979,-3.9496,-3.9056,-3.8579,-3.8358,-3.8065,-3.7845,-3.7845,-3.7991,-3.8212,-3.8542,-3.9203,-4.001,-4.0818,-4.1222,-4.1662,-4.2433,-4.2653,-4.2653,-4.2653,-4.2249,-4.1552,-4.0377,-3.9313,-3.8358,-3.7499,-3.7881,-3.8432,-3.8961,-4.023,-4.1279,-4.1809,-4.28,-4.3515,-4.3515,-4.3258,-4.2873,-4.2323,-4.1295,-4.012,-3.8799,-3.7441,-3.6083,-3.4637,-3.4344,-3.4076,-3.3778,-3.4051,-3.4492,0.0,0.0,0.0,0.0,0.0,0.0,0.0,0.0,0.0,0.0,0.0,0.0,0.0,0.0,0.0,0.0,0.0,0.0,0.0,0.0,0.0,0.0,0.0,0.0,0.0,0.0,-3.3472,-3.3985,-3.5985,-3.6732,-3.515,-3.6032,-3.7228,-3.8442,-3.965,-4.1258,-4.3387,-4.4011,-4.4929,-4.625,-4.6324,-4.6434,-4.6728,-4.6728,-4.6728,-4.6728,-4.6728,-4.6728,-4.6691,-4.6434,-4.603,-4.5461,-4.4948,-4.4415,-4.3864,-4.3608,-4.2873,-4.1882,-4.1332,-4.1442,-4.1846,-4.1295,-4.1442,-4.1919,-4.1919,-4.1368,-4.0598,-4.0084,-3.9753,-3.957,-3.9827,-4.0084,-4.0414,-4.0965,-4.1295,-4.1682,-4.2506,-4.269,-4.2837,-4.3351,-4.3515,-4.3515,-4.3515,-4.3057,-4.269,-4.269,-4.1625,-4.0451,-3.9643,-3.9974,-4.0414,-4.0671,-4.1405,-4.2103,-4.2653,-4.3167,-4.3515,-4.3515,-4.3515,-4.3167,-4.2359,-4.1809,-4.0691,-3.8836,-3.7441,-3.6083,-3.4637,-3.4344,-3.4076,-3.3815,-3.4244,-3.4715,-3.5086,0.0,0.0,0.0,0.0,0.0,0.0,0.0,0.0,0.0,0.0,0.0,0.0,0.0,0.0,0.0,0.0,0.0,0.0,0.0,0.0,0.0,0.0,0.0,-3.0698,-3.3064,-3.476,-3.4754,-3.756,-3.8789,-3.6897,-3.8924,-4.0908,-4.2238,-4.3096,-4.4251,-4.5828,-4.5902,-4.6305,-4.7113,-4.7149,-4.7516,-4.8306,-4.8306,-4.8306,-4.8306,-4.8306,-4.8306,-4.8269,-4.748,-4.7113,-4.7003,-4.5425,-4.4728,-4.4635,-4.3828,-4.3515,-4.3515,-4.3515,-4.3515,-4.3515,-4.3515,-4.3515,-4.3515,-4.3515,-4.2983,-4.2323,-4.2323,-4.1809,-4.1315,-4.2103,-4.1809,-4.1515,-4.3057,-4.2947,-4.2506,-4.3294,-4.3515,-4.3515,-4.3515,-4.3515,-4.3515,-4.3515,-4.3515,-4.3515,-4.3515,-4.2873,-4.2103,-4.1315,-4.247,-4.3258,-4.2433,-4.2983,0.0,-4.3515,-4.3515,-4.3515,-4.3515,-4.3515,-4.3167,-4.2359,-4.2249,-4.1222,-3.8799,-3.7896,-3.6354,-3.3894,-3.4541,-3.4384,-3.3105,-3.4406,-3.5132,-3.5132,0.0,0.0,0.0,0.0,0.0,0.0,0.0,0.0,0.0,0.0,0.0,0.0,0.0,0.0,0.0,0.0,0.0,0.0,0.0,0.0,0.0,-3.2476,-3.3539,-3.4341,-3.6494,-3.8425,-3.9573,-4.1505,-4.2546,-4.2058,-4.3028,-4.3636,-4.3605,-4.4225,-4.5022,-4.6074,-4.611,-4.669,-4.792,-4.7957,-4.8067,-4.8306,-4.8306,-4.8306,-4.8306,-4.8306,-4.8306,-4.8306,-4.8086,-4.7626,-4.7039,-4.603,-4.5259,-4.4635,-4.3828,-4.3515,-4.3515,-4.3515,-4.3515,-4.3515,-4.3515,-4.3515,-4.3515,-4.3515,-4.3368,-4.3167,-4.3167,-4.302,-4.2873,-4.3094,-4.302,-4.291,-4.3404,-4.3314,-4.3204,-4.3441,-4.3515,-4.3515,-4.3515,-4.3515,-4.3515,-4.3515,-4.3515,-4.3515,-4.3515,-4.3331,-4.3094,-4.2873,-4.3221,-4.3441,-4.3204,-4.3368,0.0,-4.3515,-4.3515,-4.3515,-4.3515,-4.3515,-4.3167,-4.2359,-4.1222,-3.979,-3.797,-3.6486,-3.5202,-3.413,-3.4315,-3.4465,-3.45,-3.51,-3.5691,0.0,0.0,0.0,0.0,0.0,0.0,0.0,0.0,0.0,0.0,0.0,0.0,0.0,0.0,0.0,0.0,0.0,0.0,0.0,0.0,0.0,0.0,-3.4726,-3.6332,-3.7487,-3.8785,-4.041,-4.2578,-4.3125,-4.3745,-4.4862,-4.4525,-4.4432,-4.4963,-4.53,-4.5848,-4.6663,-4.7291,-4.7992,-4.882,-4.882,-4.9003,-4.9334,-4.8673,-4.8489,-4.882,-4.8489,-4.8306,-4.8306,-4.8306,-4.8049,-4.7516,-4.6397,-4.5626,-4.5149,-4.4342,-4.4011,0.0,0.0,0.0,0.0,0.0,-4.3515,-4.3515,-4.3515,-4.3515,-4.3515,-4.3515,-4.3515,-4.3515,-4.3515,-4.3515,-4.3515,-4.3515,-4.3515,-4.3515,-4.3515,-4.3515,-4.3515,-4.3515,-4.3515,-4.3515,-4.3515,-4.3515,-4.3515,-4.3515,-4.3515,0.0,-4.3515,-4.3515,-4.3515,-4.3515,-4.3515,-4.3515,-4.3515,-4.3515,-4.3515,-4.3515,-4.3515,-4.3167,-4.2359,-4.1442,0.0,0.0,0.0,-3.5304,-3.4446,-3.4175,0.0,0.0,0.0,-3.6423,-3.7238,0.0,0.0,0.0,-3.8315,-3.9008,0.0,0.0,0.0,0.0,0.0,0.0,0.0,0.0,0.0,0.0,0.0,0.0,0.0,0.0,0.0,0.0,-3.7001,-3.8734,-4.0366,-4.0603,-4.1537,-4.4129,-4.3468,-4.369,-4.601,-4.4765,-4.4484,-4.6112,-4.6275,-4.6663,-4.7349,0.0,0.0,0.0,0.0,-4.9904,-5.0508,-4.915,-4.8783,-4.9463,-4.8673,-4.8306,-4.8306,-4.8306,-4.8306,-4.8233,-4.6691,-4.5993,-4.5847,-4.5039,-4.4654,-4.4525,-4.3864,-4.3644,-4.3608,-4.3551,-4.3515,-4.3515,-4.3515,0.0,0.0,-4.3515,-4.3515,-4.3515,-4.3515,-4.3515,-4.3515,-4.3515,-4.3515,-4.3515,-4.3515,-4.3515,-4.3515,-4.3515,-4.3515,-4.3515,-4.3515,-4.3515,-4.3515,-4.3515,-4.3515,-4.3515,-4.3515,-4.3515,-4.3515,-4.3515,-4.3515,-4.3515,-4.3515,-4.3515,-4.3515,-4.3515,0.0,0.0,-4.2359,-4.2139,-4.0813,-3.7846,-3.7137,-3.6279,-3.5093,-3.453,-3.5297,-3.7515,-3.7103,-3.7315,-3.8277,-3.9053,-3.9554,-3.9708,-3.9515,-3.9861,0.0,0.0,0.0,0.0,0.0,0.0,0.0,0.0,0.0,0.0,0.0,0.0,0.0,0.0,0.0,-3.7288,-3.8843,-4.062,-4.3362,-4.3707,-4.3931,-4.4504,-4.5341,-4.6014,-4.6488,-4.7133,-4.7231,-4.6422,-4.6873,-4.724,-4.7385,-4.7693,-4.8052,-4.8544,-4.9224,-4.9334,-4.8783,-4.915,-4.9077,-4.8563,0.0,0.0,-4.8306,-4.8306,-4.8306,-4.8269,-4.7259,-4.6507,-4.5847,-4.5039,-4.4305,-4.3791,-4.4268,-4.4488,-4.4378,-4.3718,-4.3515,-4.3515,-4.3515,-4.3515,-4.3515,-4.3515,-4.3515,-4.3515,-4.3515,-4.3515,0.0,-4.3515,-4.3515,-4.3515,-4.3515,-4.3515,-4.3515,-4.3515,-4.3515,-4.3515,-4.3515,-4.3515,-4.3515,-4.3515,-4.3515,-4.3515,-4.3515,-4.3515,-4.3515,-4.3515,-4.3515,-4.3515,-4.3515,-4.3515,-4.3515,-4.3515,-4.3515,-4.3167,-4.2359,-4.1111,-3.9893,-3.8859,-3.7935,-3.731,-3.7061,-3.7124,-3.7417,-3.7909,-3.7793,-3.8507,-4.0015,-4.0208,-4.0977,-4.2316,-4.0939,-4.0739,0.0,0.0,0.0,0.0,0.0,0.0,0.0,0.0,0.0,0.0,0.0,-3.1834,-3.4145,0.0,-3.6763,-3.9354,-4.1223,-4.2888,-4.4412,-4.5258,-4.5812,-4.611,-4.6535,-4.7146,-4.806,-4.8183,-4.8187,-4.8125,-4.8407,-4.8417,-4.7998,-4.9095,-4.9658,-4.9534,-4.9958,-5.0178,-5.0141,-4.9794,-4.939,-4.893,-4.893,-4.871,-4.8306,-4.8306,-4.8306,-4.8269,-4.7443,-4.6856,-4.6471,-4.6049,-4.592,-4.5883,-4.5902,-4.5388,-4.4599,-4.3791,-4.3754,-4.4048,-4.3644,-4.3515,-4.3515,-4.3515,-4.3515,-4.3515,-4.3515,-4.3515,-4.3515,-4.3515,-4.3515,-4.3515,-4.3515,-4.3515,-4.3515,-4.3515,-4.3515,-4.3515,-4.3515,-4.3515,-4.3515,-4.3515,-4.3515,-4.3515,-4.3515,-4.3515,-4.3515,-4.3515,-4.3515,-4.3515,-4.3515,-4.3515,-4.3515,-4.3515,-4.3515,-4.3314,-4.291,-4.1193,-3.9956,-3.9632,-3.8355,-3.7644,-3.7784,-3.7917,-3.82,-3.8623,-3.8661,-3.9469,-4.1162,-4.1162,-4.1816,-4.3085,-4.22,-4.2047,0.0,0.0,0.0,0.0,0.0,0.0,0.0,-2.9702,-3.0465,-3.1765,-3.2747,-3.4189,-3.6761,-3.7956,-3.9276,-4.1508,-4.3403,-4.4716,-4.4987,-4.6177,-4.7248,-4.7852,-4.7608,-4.7961,-4.9412,-4.8997,-4.8951,-4.9744,-4.9923,-4.9713,-4.9039,-5.0759,-5.1389,-5.0582,-5.0875,-5.1206,-5.1557,-5.0418,-4.9757,-4.961,-4.9427,-4.8967,-4.8306,-4.8306,-4.8306,-4.8269,-4.7443,-4.7113,-4.7076,-4.6929,-4.7259,-4.7792,-4.7113,-4.6049,-4.4856,-4.4011,-4.4158,-4.4599,-4.3791,-4.3515,-4.3515,-4.3515,-4.3515,-4.3515,-4.3515,-4.3515,-4.3515,-4.3515,-4.3515,-4.3515,-4.3515,-4.3515,-4.3515,-4.3515,-4.3515,-4.3515,-4.3515,-4.3515,-4.3515,-4.3515,-4.3515,-4.3515,-4.3515,-4.3515,-4.3515,-4.3515,-4.3515,-4.3515,-4.3515,-4.3515,-4.3515,-4.3515,-4.3515,-4.3475,-4.3376,-4.189,-4.0854,-4.0596,-3.9231,-3.8503,-3.8731,-3.8584,-3.8892,-3.9777,-3.9777,-4.0623,-4.2277,-4.2277,-4.2739,-4.3585,-4.3585,-4.347,-3.1326,-3.0194,-2.9517,-3.0548,-3.0886,-3.163,0.0,-3.4303,-3.41,-3.4923,-3.6265,-3.7584,-3.8565,-3.9884,-4.1576,-4.387,-4.4445,-4.5055,-4.6346,-4.7259,-4.8031,-4.8702,-4.9293,-4.9477,-4.9017,-5.0521,-5.1063,-4.987,-5.0341,-5.0648,-5.0574,-5.0798,-5.0582,-4.9757,-5.1096,-5.1226,-4.9867,-5.0398,-5.0288,-4.961,-4.882,-4.8379,-4.8306,-4.8306,-4.8306,-4.8269,-4.7443,-4.7113,-4.7039,-4.6324,-4.6104,-4.6177,-4.6067,-4.592,-4.5663,-4.4856,-4.4618,-4.4599,-4.3791,-4.3515,-4.3515,-4.3515,-4.3515,-4.3515,-4.3515,-4.3515,-4.3515,-4.3515,-4.3515,-4.3515,-4.3515,-4.3515,-4.3515,-4.3515,-4.3515,-4.3515,-4.3515,-4.3515,-4.3515,-4.3515,-4.3515,-4.3515,-4.3515,-4.3515,-4.3515,-4.3515,-4.3515,-4.3515,-4.3515,-4.3515,-4.3515,-4.3515,-4.3515,-4.3336,-4.2917,-4.3177,-4.3096,-4.2352,-4.171,-4.133,-4.1385,-4.0623,-4.0623,-4.1508,-4.1508,-4.2354,-4.4008,-4.4008,-4.447,-4.5325,-4.5325,-4.4902,-3.2679,-3.2036,-3.1596,-3.1785,-3.2496,-3.3423,-3.4675,-3.5047,-3.5622,-3.7246,-3.843,-3.9648,-4.1271,-4.2083,-4.2963,0.0,-4.5326,-4.6214,-4.7249,-4.7969,-4.87,-4.9406,-4.9678,-5.0044,-5.0688,-5.1537,-5.2003,-5.1784,-5.2035,-5.2013,-5.1499,-5.194,-5.183,-5.1042,-5.1646,-5.1683,-5.1006,-5.1316,-5.1096,-5.0288,-4.9921,-4.9517,-4.904,-4.8526,-4.8306,-4.8269,-4.792,-4.7773,-4.7773,-4.7462,-4.7315,-4.7241,-4.6801,-4.6599,-4.6507,-4.57,-4.5406,-4.5296,-4.4488,-4.4195,-4.4121,-4.3662,-4.3515,-4.3515,-4.3515,-4.3515,-4.3515,-4.3515,-4.3515,-4.3515,-4.3515,-4.3515,-4.3515,-4.3515,-4.3515,-4.3515,-4.3515,-4.3515,-4.3515,-4.3515,-4.3515,-4.3515,-4.3515,-4.3515,-4.3515,-4.3515,-4.3515,-4.3515,-4.3515,-4.3515,-4.3563,-4.3791,-4.377,-4.3901,-4.4121,-4.3943,-4.3729,-4.3598,-4.2958,-4.2547,-4.2547,-4.22,-4.2162,-4.2547,-4.2547,-4.3124,-4.4316,-4.4316,-4.4739,-4.5594,-4.5594,-4.5402,-3.333,-3.3254,-3.3389,-3.322,-3.4472,-3.5791,-3.5994,-3.6772,-3.7922,-3.958,-4.0493,-4.1508,-4.3105,-4.3606,-4.4045,-4.5055,-4.6277,-4.7238,-4.7726,-4.8541,-4.9135,-4.9217,-4.9303,-4.997,-5.1584,-5.1933,-5.2403,-5.3146,-5.3004,-5.2711,-5.2344,-5.2674,-5.2601,-5.2013,-5.2197,-5.2197,-5.1977,-5.1977,-5.161,-5.0802,-5.0582,-5.0031,-4.9243,-4.86,-4.8306,-4.8306,-4.8306,-4.8306,-4.8269,-4.8086,-4.7957,-4.7902,-4.7076,-4.6746,-4.6709,-4.6104,-4.5773,-4.548,-4.4892,-4.4562,-4.4268,-4.3681,-4.3515,-4.3515,-4.3515,-4.3515,-4.3515,-4.3515,-4.3515,-4.3515,-4.3515,-4.3515,-4.3515,-4.3515,-4.3515,-4.3515,-4.3515,-4.3515,-4.3515,-4.3515,-4.3515,-4.3515,-4.3515,-4.3515,-4.3512,-4.3631,-4.3546,-4.3512,-4.3631,-4.3726,-4.3918,-4.4132,-4.4247,-4.4521,-4.5044,-4.4607,-4.4394,-4.4654,-4.3893,-4.3431,-4.3431,-4.3201,-4.3201,-4.3431,-4.3431,-4.3855,-4.4662,-4.4662,-4.4979,-4.5594,-4.5594,-4.5594,-3.2672,-3.2848,-3.3761,-3.516,-3.7212,-3.9039,-3.9758,-4.1068,-4.2117,-4.2185,-4.2794,-4.3308,-4.3375,-4.4045,-4.5055,-4.6481,-4.7346,-4.7754,-4.7726,-4.8943,-4.9277,-4.7695,-4.8099,-4.9148,0.0,-5.1552,-5.2323,-5.313,-5.2491,-5.238,-5.3093,-5.2454,-5.2013,-5.1977,-5.2747,-5.2784,-5.2013,-5.1977,-5.161,-5.0802,-5.0014,-4.9187,-4.8343,-4.8306,-4.8306,-4.8306,-4.8306,-4.8306,-4.8233,-4.7443,-4.7149,-4.7076,-4.625,-4.5957,-4.592,-4.592,-4.5406,-4.4728,-4.4709,-4.4195,-4.3551,-4.3515,-4.3515,-4.3515,-4.3515,-4.3515,-4.3515,-4.3515,-4.3515,-4.3515,-4.3515,-4.3515,-4.3515,-4.3515,-4.3515,-4.3515,-4.3515,-4.3515,-4.3515,-4.3515,-4.3515,-4.3515,-4.3515,-4.3515,-4.3614,-4.3958,-4.371,-4.3631,-4.3958,-4.4318,-4.4585,-4.4599,-4.4872,-4.5094,-4.5115,-4.5362,-4.5547,-4.5556,-4.4739,-4.4239,-4.4239,-4.3508,-4.347,-4.4239,-4.4239,-4.4701,-4.5556,-4.5556,-4.5556,-4.5594,-4.5594,-4.5594,-3.323,-3.4675,-3.6637,-3.7618,-3.9174,-4.0663,-4.1407,-4.1948,-4.2286,-4.2286,-4.1963,-4.1644,-4.1644,-4.2196,-4.2936,-4.3969,-4.6125,-4.7809,-4.8247,-4.9139,-4.9329,-4.8154,-4.8214,0.0,0.0,0.0,0.0,-5.3078,-5.2454,-5.2344,-5.3188,-5.2454,-5.2234,-5.2784,-5.2013,-5.172,-5.1977,-5.1463,-5.1059,-5.0802,-4.9978,-4.9114,-4.8306,-4.8306,-4.8306,-4.8306,-4.8306,-4.8306,-4.8269,-4.8012,-4.7883,-4.781,-4.7003,-4.6709,-4.6709,-4.6709,-4.5828,-4.4691,-4.4691,-4.4525,-4.4195,-4.3644,-4.3515,-4.3515,-4.3515,-4.3515,-4.3515,-4.3515,-4.3515,-4.3515,-4.3515,-4.3515,-4.3515,-4.3515,-4.3515,-4.3515,-4.3515,-4.3515,-4.3515,-4.3515,-4.3515,-4.3515,-4.3515,-4.3515,-4.3614,-4.3974,-4.4117,-4.4146,-4.4013,-4.4346,-4.4701,-4.4908,-4.5022,-4.5191,-4.5419,-4.555,-4.5594,-4.5594,-4.5325,-4.5171,-4.5171,-4.4902,-4.4902,-4.5171,-4.5171,-4.5325,-4.5594,-4.5594,-4.5594,-4.5594,-4.5594,-4.5594,-3.5302,-3.7009,-3.8937,-3.9918,-4.1102,-4.2117,-4.2591,-4.2692,-4.2692,-4.2692,-4.1681,-4.0802,-4.0802,-4.0986,-4.1419,-4.2216,-4.4533,-4.6686,-4.7969,-4.8511,-4.8655,-4.8321,-4.8306,-4.8306,0.0,0.0,0.0,-5.2197,-5.161,-5.161,-5.2711,-5.172,-5.1646,-5.2747,-5.1499,-5.1059,-5.1573,-5.1059,-5.0655,-5.0362,-4.9517,-4.882,-4.8306,-4.8306,-4.8306,-4.8269,-4.8012,-4.7846,-4.7846,-4.7572,-4.7462,-4.7352,-4.6562,-4.6415,-4.6636,-4.6342,-4.5572,-4.4745,-4.5039,-4.4966,-4.4635,-4.4085,-4.3938,-4.3938,-4.3938,-4.3718,-4.3515,-4.3515,-4.3515,-4.3515,-4.3515,-4.3515,-4.3515,-4.3515,-4.3515,-4.3515,-4.3515,-4.3515,-4.3515,-4.3515,-4.3515,-4.3515,-4.3515,-4.373,-4.3958,-4.4175,-4.4638,-4.4811,-4.4455,-4.4713,-4.5033,-4.5253,-4.5273,-4.5381,-4.5577,-4.5594,-4.5594,-4.5594,-4.5594,-4.5594,-4.5594,-4.5594,-4.5594,-4.5594,-4.5594,-4.5594,-4.5594,-4.5594,-4.5594,-4.5594,-4.5594,-4.5594,-3.8598,-3.9673,-4.062,-4.2016,-4.2895,-4.3375,-4.3375,-4.3375,-4.3335,-4.3227,-4.1902,-4.0676,-4.0596,-4.046,-4.0616,-4.1406,-4.292,-4.4766,-4.7075,-4.7332,-4.7553,0.0,-4.8416,0.0,0.0,0.0,0.0,-5.0545,0.0,-5.0345,-5.1867,-5.0492,-5.0381,-5.1867,-5.1096,-5.0692,-5.0729,-5.0692,-5.0288,-4.9537,-4.871,-4.8306,-4.8306,-4.8306,-4.8269,-4.8196,-4.7443,-4.7076,-4.6966,-4.6214,-4.5883,-4.581,-4.5076,-4.5259,-4.5847,-4.5076,-4.4764,-4.4856,-4.559,-4.5296,-4.4635,-4.4635,-4.4635,-4.4635,-4.4635,-4.4121,-4.3515,-4.3551,-4.3551,-4.3515,-4.3551,-4.3551,-4.3515,-4.3515,-4.3515,-4.3515,-4.3515,-4.3515,-4.3515,-4.3515,-4.3532,-4.3512,-4.3529,-4.4154,-4.4637,-4.4637,-4.5191,-4.5466,-4.5148,-4.54,-4.5594,-4.5594,-4.5594,-4.5594,-4.5594,-4.5594,-4.5594,-4.5594,-4.5594,-4.5594,-4.5594,-4.5594,-4.5594,-4.5594,-4.5594,-4.5594,-4.5594,-4.5594,-4.5594,-4.5594,-4.5594,-4.5594,-3.9627,-4.117,-4.2658,-4.3031,-4.324,-4.3375,-4.3375,-4.2963,-4.2189,-4.0832,-4.0099,-3.9258,-3.7925,-3.8959,-4.0488,-4.1869,-4.4436,0.0,-4.8769,-4.9511,-4.9701,-4.9317,-4.9811,-4.9664,-4.8416,-4.8893,0.0,0.0,-4.9884,-5.0655,-5.1096,-5.0729,-5.0692,-5.1096,-4.9701,-4.926,-4.9904,-4.926,-4.882,-4.8636,-4.8416,-4.8306,-4.8306,-4.8306,-4.7957,-4.7369,-4.7186,-4.6746,-4.6177,-4.5993,-4.5883,-4.5883,-4.5663,-4.6104,-4.6709,-4.5883,-4.559,-4.5553,-4.5149,-4.4488,-4.3791,-4.3791,-4.3791,-4.3791,-4.3791,-4.3644,-4.3608,-4.4232,-4.3975,-4.3644,-4.4232,-4.3938,-4.3515,-4.3515,-4.3515,-4.3515,-4.3515,-4.3515,-4.3515,-4.3515,-4.3693,-4.3974,-4.4285,-4.4663,-4.4966,-4.4966,-4.5313,-4.5466,-4.5148,-4.54,-4.5594,-4.5594,-4.5594,-4.5594,-4.5594,-4.5594,-4.5594,-4.5594,-4.5594,-4.5594,-4.5594,-4.5594,-4.5594,-4.5594,-4.5594,-4.5594,-4.5594,-4.5594,-4.5594,-4.5594,-4.5594,-4.5594,-4.1315,-4.2726,-4.3944,-4.3944,-4.3673,-4.3288,-4.2822,-4.1912,-4.0695,-3.9232,-3.8491,-3.77,-3.6338,-3.7883,-3.968,-4.0561,-4.313,-4.5957,-4.8636,-4.9114,-4.9554,-5.0565,-5.1059,-5.0839,-4.9517,-5.0141,-5.0288,0.0,-4.9591,-4.9884,-5.0251,-4.9921,-4.9884,-5.0251,-4.9003,-4.8526,-4.9003,-4.8526,-4.8306,-4.8306,-4.8306,-4.8306,-4.8306,-4.8306,-4.803,-4.759,0.0,-4.6636,-4.5883,-4.5883,-4.57,-4.5369,-4.5369,-4.5663,-4.5975,-4.5553,-4.5149,-4.4819,-4.4745,-4.4415,-4.4085,-4.4452,-4.4525,-4.4599,-4.4966,-4.4599,-4.4195,-4.5002,-4.4378,-4.3681,-4.4488,-4.4085,-4.3515,-4.3515,-4.3515,-4.3515,-4.3515,-4.3515,-4.3529,-4.3693,-4.402,-4.4373,-4.4763,-4.4966,-4.5159,-4.5283,-4.5466,-4.5541,-4.5323,-4.5466,-4.5594,-4.5594,-4.5594,-4.5594,-4.5594,-4.5594,-4.5594,-4.5594,-4.5594,-4.5594,-4.5594,-4.5594,-4.5594,-4.5594,-4.5594,-4.5594,-4.5594,-4.5594,-4.5594,-4.5594,-4.5594,-4.5594,-4.3401,-4.4313,-4.4824,-4.4722,-4.4014,-4.3064,-4.195,-4.0516,-3.9115,-3.7963,-3.7148,-3.635,-3.5515,-3.7093,-3.8689,-3.9129,-4.1038,-4.3901,-4.8049,-4.803,-4.8727,-5.1793,-5.216,-5.183,-5.1059,-5.1573,-5.161,-5.0729,-4.9407,-4.8967,-4.9721,-4.915,-4.9077,-4.9757,-4.882,-4.8379,-4.8489,-4.8379,-4.8306,-4.8306,-4.8306,-4.8306,-4.8306,-4.8306,-4.8233,-4.8122,-4.7296,-4.6489,-4.5736,-4.5626,-4.5223,-4.4691,-4.4691,-4.4838,-4.4984,-4.4764,-4.4342,-4.3901,-4.4488,-4.4691,-4.4819,-4.5406,-4.5663,-4.5883,-4.6562,-4.5792,-4.4874,-4.5663,-4.4819,-4.3828,-4.4525,-4.4085,-4.3515,-4.3515,-4.3512,-4.3563,-4.3563,-4.3614,-4.3742,-4.4073,-4.4428,-4.4788,-4.5126,-4.5169,-4.5253,-4.5559,-4.5594,-4.5594,-4.5594,-4.5594,-4.5594,-4.5594,-4.5594,-4.5594,-4.5594,-4.5594,-4.5594,-4.5594,-4.5594,-4.5594,-4.5594,-4.5594,-4.5594,-4.5594,-4.5594,-4.5594,-4.5594,-4.5594,-4.5594,-4.5594,-4.5594,-4.5594,-4.5655,-4.5982,-4.5912,-4.5256,-4.4027,-4.2587,-4.1099,-3.9554,-3.7937,-3.622,-3.6266,-3.6305,-3.5243,-3.6501,-3.8594,-4.1222,-4.258,-4.4929,-4.9701,-5.0251,-5.0875,-5.2784,-5.3004,-5.2674,-5.1867,-5.1903,0.0,0.0,0.0,-5.0435,-5.0582,-5.1059,-5.1132,-5.0618,-4.9114,-4.8636,-4.939,-4.8673,-4.8306,-4.8306,-4.8306,-4.8306,-4.8306,-4.8306,-4.792,-4.7259,-4.6471,0.0,-4.4856,-4.4195,-4.4232,-4.4691,-4.4691,-4.5498,-4.6526,-4.5168,-4.5039,-4.5406,-4.4892,-4.4691,-4.4635,-4.4085,-4.4378,-4.4929,-4.5058,-4.4911,-4.4874,-4.5663,-4.5223,-4.4525,-4.4672,-4.4085,-4.3515,-4.3515,-4.371,-4.3927,-4.3927,-4.4161,-4.4495,-4.4823,-4.4966,-4.5137,-4.5448,-4.5494,-4.5541,-4.5586,-4.5594,-4.5594,-4.5594,-4.5594,-4.5594,-4.5594,-4.5594,-4.5594,-4.5594,-4.5594,-4.5594,-4.5594,-4.5594,-4.5594,-4.5594,-4.5594,-4.5594,-4.5594,-4.5594,-4.5594,-4.5594,-4.5594,-4.5594,-4.5594,-4.5594,-4.5594,-4.6283,-4.6389,-4.6212,-4.5411,-4.4031,-4.2328,-4.017,-3.8484,-3.6827,-3.4945,-3.5218,-3.546,-3.4559,-3.6083,-3.8153,-4.012,-4.1442,-4.3791,-4.8269,-4.8874,-4.9644,-5.172,-5.2307,-5.227,-5.1463,-5.1756,-5.1683,-5.0932,0.0,-5.1059,-5.0215,-5.0949,-5.1022,-5.0178,-4.9407,-4.8967,-4.893,-4.8526,-4.8306,-4.8306,-4.8306,-4.8306,-4.8306,-4.8306,-4.8086,-4.77,-4.7315,0.0,-4.5333,-4.5369,-4.5112,-4.4745,-4.5149,-4.581,-4.6324,-4.5131,-4.5223,-4.5773,-4.5002,-4.5241,-4.5828,-4.5002,-4.5296,-4.6012,-4.6471,-4.5993,-4.5533,-4.6537,-4.551,-4.421,-4.4818,-4.435,-4.3775,-4.3775,-4.405,-4.4304,-4.4304,-4.4587,-4.4908,-4.5094,-4.5615,-4.61,-4.626,-4.6278,-4.6278,-4.6278,-4.5893,-4.5594,-4.5594,-4.5594,-4.5594,-4.5594,-4.5594,-4.5594,-4.5594,-4.5594,-4.5594,-4.5594,-4.5594,-4.5594,-4.5594,-4.5594,-4.5594,-4.5594,-4.5594,-4.5594,-4.5594,-4.5594,-4.5594,-4.5594,-4.5594,-4.5594,-4.6569,-4.6676,-4.6569,-4.5584,-4.4157,-4.2297,-3.9482,-3.7639,-3.6017,-3.4179,-3.4307,-3.4564,-3.3917,-3.5579,-3.744,-3.8604,-3.9989,-4.2329,-4.636,-4.7022,-4.803,-5.0508,-5.1499,0.0,-5.1353,-5.172,0.0,-5.1977,0.0,0.0,-5.0455,-5.0802,-5.0839,-5.0398,-4.9867,-4.9353,-4.8857,-4.8489,-4.8306,-4.8306,-4.8306,-4.8306,-4.8306,-4.8306,-4.8306,-4.8306,-4.8122,0.0,0.0,-4.6452,-4.6049,-4.5241,-4.5736,-4.6104,-4.6324,-4.5516,-4.5608,-4.6067,-4.5425,-4.6049,-4.7003,-4.6581,-4.6728,-4.7186,-4.7645,-4.6911,-4.6084,-4.6942,-4.5564,-4.4083,-4.5056,-4.4864,-4.4408,-4.4495,-4.4745,-4.4928,-4.485,-4.5163,-4.5479,-4.5479,-4.6378,-4.7154,-4.7154,-4.7,-4.6885,-4.6885,-4.6163,-4.5594,-4.5594,-4.5594,-4.5594,-4.5594,-4.5594,-4.5594,-4.5594,-4.5594,-4.5594,-4.5594,-4.5594,-4.5594,-4.5594,-4.5594,-4.5594,-4.5594,-4.5594,-4.5594,-4.5594,-4.5594,-4.5594,-4.5594,-4.5594,-4.571,-4.7053,-4.7565,-4.7748,-4.6211,-4.462,-4.2607,-3.9454,-3.7491,-3.5856,-3.4174,-3.3844,-3.388,-3.3807,-3.4833,-3.6422,-3.8704,-3.9793,-4.1809,-4.5902,-4.6836,-4.803,-5.0508,-5.1499,0.0,-5.2931,-5.238,0.0,0.0,0.0,0.0,-5.2858,-5.2234,-5.2197,-5.2858,-5.0729,-4.9904,-5.0545,-4.9077,-4.8306,-4.8306,-4.8306,-4.8306,-4.8306,-4.8306,-4.8306,-4.8269,-4.7516,0.0,0.0,-4.5498,-4.5682,-4.6819,-4.6177,-4.6801,-4.7976,-4.7186,-4.6929,-4.6966,-4.6892,-4.6966,-4.7223,-4.7865,-4.7626,-4.6966,-4.6324,-4.603,-4.5827,-4.553,-4.5217,-4.5146,-4.5632,-4.5704,-4.5708,-4.6007,-4.6138,-4.6037,-4.5592,-4.6156,-4.6742,-4.6742,-4.7414,-4.8009,-4.8009,-4.7394,-4.6885,-4.6885,-4.6163,-4.5594,-4.5594,-4.5594,-4.5594,-4.5594,-4.5594,-4.5594,-4.5594,-4.5594,-4.5594,-4.5594,-4.5594,-4.5594,-4.5594,-4.5594,-4.5594,-4.5594,-4.5594,-4.5594,-4.5594,-4.5594,-4.5594,-4.5594,-4.5594,-4.6009,-4.6856,-4.7333,-4.7296,-4.6177,-4.3975,-4.1479,-3.9203,-3.7059,-3.5188,-3.4027,-3.3941,-3.4204,-3.4748,-3.4927,-3.5833,-3.8275,-3.8525,-3.9627,-4.325,-4.4197,-4.5608,-4.8512,-4.9857,0.0,0.0,0.0,0.0,0.0,0.0,0.0,-5.3167,-5.2894,-5.2417,-5.1793,-5.0839,-4.9994,-4.9297,-4.8636,-4.8306,-4.8306,-4.8306,-4.8306,-4.8306,-4.8306,-4.8306,-4.8269,-4.7957,0.0,0.0,-4.6415,-4.6671,-4.7416,-4.71,-4.7512,-4.821,-4.7943,-4.7778,-4.7687,-4.7202,-4.7351,-4.7762,-4.758,-4.7634,-4.7676,-4.7151,-4.6288,-4.5547,-4.58,-4.5714,-4.559,-4.5765,-4.6145,-4.6669,-4.7253,-4.7366,-4.7309,-4.7145,-4.7394,-4.7625,-4.7625,-4.8317,-4.8894,-4.8894,-4.8625,-4.824,-4.7702,-4.6894,-4.6201,-4.5671,-4.5594,-4.5594,-4.5594,-4.5594,-4.5594,-4.5594,-4.5594,-4.5594,-4.5594,-4.5594,-4.5594,-4.5594,-4.5594,-4.5594,-4.5594,-4.5594,-4.5594,-4.5594,-4.5594,-4.5594,-4.5594,-4.6124,-4.6586,-4.5351,-4.6195,-4.6526,-4.5736,-4.3314,-4.0691,-3.9093,-3.6765,-3.4775,-3.4086,-3.408,-3.4421,-3.5135,-3.5426,-3.6129,-3.7881,-3.806,-3.8958,-4.1751,-4.2632,-4.4035,-4.6896,0.0,-4.9767,0.0,-5.2084,0.0,0.0,0.0,0.0,-5.3203,-5.3203,-5.2653,-5.1573,-5.1059,-5.0362,-4.9407,-4.915,-4.904,-4.904,-4.882,-4.8673,-4.8673,-4.8416,-4.8306,-4.8306,-4.8306,0.0,0.0,-4.7297,-4.7505,-4.7841,-4.7857,-4.8176,-4.8546,-4.8348,-4.8409,-4.8433,-4.7377,-4.7528,-4.8117,-4.7537,-4.7589,-4.7877,-4.8003,-4.7132,-4.6165,-4.643,-4.6668,-4.6845,-4.6859,-4.7479,-4.8172,-4.8423,-4.8471,-4.8394,-4.8163,-4.8317,-4.8471,-4.8471,-4.9202,-4.9779,-4.9779,-4.9586,-4.9086,-4.824,-4.7432,-4.6586,-4.571,-4.5594,-4.5594,-4.5594,-4.5594,-4.5594,-4.5594,-4.5594,-4.5594,-4.5594,-4.5594,-4.5594,-4.5594,-4.5594,-4.5594,-4.5594,-4.5594,-4.5594,-4.5594,-4.5594,-4.5748,-4.6009,-4.6624,-4.7163,-4.2359,-4.4085,-4.5736,-4.4929,-4.2893,-4.0691,-3.9093,-3.6765,-3.4843,-3.4302,-3.4188,-3.4292,-3.4662,-3.6274,-3.7591,-3.7591,-3.8985,-4.0644,-4.2273,-4.2957,-4.4086,0.0,0.0,-4.9039,-5.1183,0.0,0.0,0.0,0.0,0.0,-5.3203,-5.3203,-5.3167,-5.3167,-5.1646,-5.1169,-5.194,-5.1169,-5.0765,-5.0765,-4.9978,-4.961,-4.9574,-4.8673,-4.8306,0.0,0.0,0.0,0.0,-4.7669,-4.7888,-4.8192,-4.8273,-4.8763,-4.9376,-4.8508,-4.8735,-4.9263,-4.7575,-4.7537,-4.8192,-4.8192,-4.7641,-4.7232,-4.8427,-4.8542,-4.8098,-4.7253,-4.8155,-4.9346,-4.9346,-5.001,-5.0433,-4.9586,-4.9394,-4.9163,-4.8279,-4.8779,-4.9394,-4.9394,-5.0087,-5.0712,-5.0712,-4.9971,-4.9086,-4.824,-4.7432,-4.6586,-4.571,-4.5594,-4.5594,-4.5594,-4.5594,-4.5594,-4.5594,-4.5594,-4.5594,-4.5594,-4.5594,-4.5594,-4.5594,-4.5594,-4.5594,-4.5594,-4.5594,-4.5594,-4.5594,-4.5594,-4.6047,-4.6885,-4.6885,-4.7778,-4.0622,-4.1378,-4.1735,-4.1479,-3.9755,-3.797,-3.7465,-3.6013,-3.4757,-3.4594,-3.4695,-3.5031,-3.5656,-3.643,-3.7533,-3.9306,-4.0035,-4.0987,-4.2666,0.0,0.0,-4.7742,-5.0919,-5.296,0.0,0.0,0.0,0.0,0.0,0.0,-5.3604,-5.3067,-5.2653,-5.2401,-5.1867,-5.1463,-5.1169,-5.0949,-5.0508,-4.9978,-4.9936,-4.9656,-4.9117,-4.9127,-4.9108,0.0,0.0,0.0,0.0,-4.8348,-4.8654,-4.9455,-4.891,-4.9005,-4.9472,-4.9789,-4.933,-4.8466,-4.793,-4.793,-4.8056,-4.7471,-4.7903,-4.8657,-4.8762,-4.8336,-4.7931,-4.8471,-4.8821,-4.9188,-5.0048,-5.0302,-5.0281,-5.0278,-5.0289,-5.0212,-4.9933,-5.0087,-5.0289,-5.0289,-5.0519,-5.0712,-5.0712,-5.0481,-4.9971,-4.9125,-4.8779,-4.8279,-4.7432,-4.7317,-4.7317,-4.7317,-4.7317,-4.6855,-4.571,-4.5594,-4.5855,-4.6432,-4.5932,-4.6133,-4.7278,-4.621,-4.5893,-4.6471,-4.5893,-4.5893,-4.6509,-4.6509,-4.724,-4.8625,-4.8625,-4.9202,-3.8664,-3.9412,-3.974,-3.974,-3.8271,-3.6832,-3.6832,-3.5732,-3.4743,-3.4841,-3.4981,-3.5378,-3.6272,-3.6849,-3.7815,-3.9746,-4.0593,-4.147,-4.2893,0.0,0.0,-4.9231,0.0,0.0,0.0,0.0,0.0,0.0,0.0,0.0,-5.4031,-5.3596,-5.3194,-5.2958,-5.247,-5.2151,-5.191,-5.191,-5.159,-5.0969,-5.119,-5.0912,-5.0291,-5.0078,-4.9994,0.0,0.0,0.0,0.0,-4.9045,-4.9327,-4.9827,-4.9658,-4.9726,-4.9933,-5.0125,-4.974,-4.8971,-4.8317,-4.8317,-4.8509,-4.8009,-4.8779,-4.9827,-4.9576,-4.9071,-4.8743,-4.9634,-4.9698,-4.9718,-5.047,-5.0734,-5.0752,-5.0711,-5.0933,-5.1087,-5.0789,-5.0712,-5.0712,-5.0712,-5.0712,-5.0712,-5.0712,-5.0712,-5.0404,-4.951,-4.9394,-4.9086,-4.8202,-4.8086,-4.8086,-4.8086,-4.8086,-4.7663,-4.6624,-4.6547,-4.6663,-4.6885,-4.6663,-4.7009,-4.8048,-4.7086,-4.6817,-4.7355,-4.6817,-4.6817,-4.7346,-4.7702,-4.8394,-4.9394,-4.974,-5.0164,0.0,-3.8064,-3.9147,-3.9147,-3.8041,-3.6944,-3.6944,-3.5818,0.0,-3.506,-3.5179,-3.5551,-3.6587,-3.7507,-3.8392,-3.9323,-4.0854,-4.22,0.0,-4.5509,0.0,0.0,-5.2039,0.0,0.0,0.0,0.0,0.0,0.0,0.0,-5.45,-5.4532,-5.4547,-5.4579,-5.342,-5.3104,-5.3832,-5.3832,-5.3644,-5.3203,-5.3236,-5.3037,-5.2559,-5.139,-5.0889,0.0,0.0,0.0,0.0,-4.9804,-4.9899,-4.9586,-5.0366,-5.0712,-5.0596,-4.9779,-4.9971,-5.0366,-4.874,-4.8702,-4.9394,-4.9471,-5.0048,-5.0712,-5.0712,-5.0451,-5.0206,-5.0604,-5.0712,-5.0712,-5.0789,-5.1356,-5.1692,-5.0971,-5.1395,-5.1769,-5.0971,-5.0827,-5.0866,-5.0866,-5.0866,-5.0866,-5.0789,-5.0789,-5.0481,-4.9625,-4.9471,-4.9202,-4.8394,-4.8279,-4.8279,-4.8279,-4.8279,-4.8279,-4.8202,-4.8125,-4.7817,-4.7115,-4.774,-4.8163,-4.8279,-4.8163,-4.8125,-4.8202,-4.8202,-4.8202,-4.8202,-4.9086,-4.9471,-4.951,-5.0327,-5.0712,-3.5783,0.0,-3.5824,-3.5824,-3.5712,-3.5551,0.0,-3.5433,-3.5339,-3.5383,-3.5897,-3.6603,-3.7538,-3.8392,-3.9469,-4.0969,0.0,-4.3085,-4.3893,0.0,0.0,-5.1471,-5.3612,0.0,0.0,0.0,0.0,0.0,0.0,-5.4516,-5.4919,-5.4947,-5.5107,-5.5411,-5.4825,-5.4443,-5.4338,-5.4338,-5.3933,-5.3211,-5.3503,-5.3308,-5.2569,-5.1938,-5.1656,0.0,0.0,0.0,-5.0266,-5.0458,-5.0499,-5.0404,-5.0635,-5.0712,-5.0673,-5.0481,-5.0087,-4.9663,-4.924,-4.924,-4.951,-5.0164,-5.0519,-5.0712,-5.0712,-5.0624,-5.0594,-5.0654,-5.0712,-5.0827,-5.1471,-5.1769,-5.1846,-5.1654,-5.2279,-5.2664,-5.1818,-5.2125,-5.2626,-5.2626,-5.2626,-5.2395,-5.1741,-5.1625,-5.1356,-5.051,-5.0404,-5.0327,-5.0125,-5.0087,-5.0087,-5.0087,-5.0087,-4.9817,-4.9163,-4.8471,-4.8317,-4.8779,-4.8355,-4.8702,-5.001,-4.8817,-4.8394,-4.9086,-4.9086,-4.9086,-4.9086,-4.9971,-5.0404,-5.0404,-5.0596,-5.0712,-3.55,-3.5308,-3.5166,-3.5517,-3.545,-3.5385,-3.5768,-3.5659,-3.55,-3.55,-3.6154,-3.6962,-3.7853,-3.87,-3.9854,-4.1546,-4.2547,0.0,0.0,0.0,-5.024,-5.2269,0.0,0.0,0.0,0.0,0.0,0.0,0.0,-5.4933,-5.5363,-5.5387,-5.5458,-5.5703,-5.547,-5.5186,-5.4775,-5.476,-5.4443,-5.3783,-5.4383,-5.4345,-5.3722,-5.3305,-5.2856,0.0,0.0,0.0,-5.0712,-5.0712,-5.0712,-5.0712,-5.0712,-5.0712,-5.0712,-5.0712,-5.0404,-5.001,-5.001,-5.001,-5.0048,-5.0558,-5.0712,-5.0712,-5.0712,-5.0971,-5.1164,-5.0789,-5.0971,-5.1356,-5.1769,-5.25,-5.301,-5.2577,-5.3164,-5.3549,-5.2692,-5.2856,-5.3203,-5.3203,-5.3203,-5.2933,-5.2038,-5.1885,-5.1625,-5.0827,-5.0712,-5.0712,-5.0712,-5.0712,-5.0712,-5.0712,-5.0712,-5.0519,-5.0048,-4.9548,-4.9317,-4.9394,-4.9317,-4.9702,-5.0673,-4.9779,-4.951,-4.9971,-5.001,-5.001,-5.001,-5.0481,-5.0712,-5.0712,-5.0712,-5.0894,-3.5654,-3.5692,-3.5808,-3.6385,-3.6,-3.5692,-3.6346,-3.6,-3.5538,-3.5654,-3.6346,-3.7238,-3.8354,-3.9161,-4.0239,-4.1931,0.0,0.0,-4.8202,-4.8894,-5.0087,-5.2856,0.0,0.0,0.0,0.0,0.0,0.0,0.0,-5.535,-5.5692,-5.5703,-5.5703,-5.5703,-5.5703,-5.5554,-5.5199,-5.5186,-5.504,-5.4686,-5.5387,-5.5531,-5.5161,-5.471,-5.401,-5.3164,0.0,0.0,-5.0712,-5.0712,-5.0712,-5.0712,-5.0712,-5.0712,-5.0712,-5.0712,-5.0712,-5.0712,-5.0712,-5.0712,-5.0712,-5.0712,-5.0712,-5.0712,-5.0866,-5.1356,-5.1769,-5.1241,-5.1587,-5.2115,-5.2269,-5.3395,-5.4318,-5.3587,-5.4049,-5.4434,-5.3587,-5.3395,-5.3433,-5.3549,-5.3472,-5.3126,-5.2231,-5.2115,-5.1779,-5.0827,-5.0712,-5.0712,-5.0712,-5.0712,-5.0712,-5.0712,-5.0712,-5.0712,-5.0712,-5.0712,-5.0366,-4.9663,-5.0289,-5.0712,-5.0712,-5.0712,-5.0712,-5.0712,-5.0712,-5.0712,-5.0712,-5.0712,-5.0712,-5.0712,-5.0827,-5.1241,-3.6346,-3.65,-3.6385,-3.5808,-3.5577,-3.5538,-3.5654,-3.5577,-3.5692,-3.6385,-3.7199,-3.8507,-4.0769,-4.1316,-4.197,-4.3624,0.0,-4.75,0.0,0.0,0.0,0.0,0.0,0.0,0.0,0.0,0.0,0.0,0.0,-5.5621,-5.5703,-5.5703,-5.5703,-5.5703,-5.5703,-5.5682,-5.5599,-5.5599,-5.5577,-5.5531,-5.5621,-5.5682,-5.5561,-5.4836,-5.401,-5.3164,0.0,-5.1433,-5.0712,-5.0712,-5.0712,-5.0712,-5.0712,-5.0712,-5.0712,-5.0712,-5.0712,-5.0712,-5.0712,-5.0712,-5.0712,-5.0712,-5.0712,-5.0827,-5.151,-5.1808,-5.2038,-5.2626,-5.2895,-5.3164,-5.3895,-5.428,-5.4472,-5.4318,-5.4934,-5.528,-5.4472,-5.428,-5.4511,-5.5164,-5.478,-5.401,-5.3164,-5.301,-5.2472,-5.0943,-5.0712,-5.0712,-5.0712,-5.0712,-5.0712,-5.0712,-5.0712,-5.0712,-5.0712,-5.0712,-5.0635,-5.0519,-5.0635,-5.0712,-5.0712,-5.0712,-5.0712,-5.0712,-5.0712,-5.0712,-5.0712,-5.0712,-5.0712,-5.0712,-5.1395,-5.1769,-3.5962,-3.6038,-3.6077,-3.6115,-3.6154,-3.6269,-3.6731,-3.65,-3.6385,-3.7238,-3.843,-3.97,-4.0893,-4.2239,-4.3855,-4.6009,0.0,-4.9625,-5.1615,0.0,0.0,0.0,0.0,0.0,0.0,0.0,0.0,0.0,0.0,0.0,-5.5703,-5.5703,-5.5703,-5.5703,-5.5703,-5.5703,-5.5703,-5.5703,-5.5703,-5.5703,-5.5703,-5.5703,-5.5703,-5.5318,-5.4703,-5.3857,0.0,-5.2125,-5.1356,-5.1356,-5.1087,-5.075,-5.1164,-5.1087,-5.0712,-5.0712,-5.0712,-5.0712,-5.0712,-5.0712,-5.0712,-5.0712,-5.0712,-5.0856,-5.1654,-5.2231,-5.2779,-5.3664,-5.3895,-5.3972,-5.4395,-5.4818,-5.5164,-5.5164,-5.5434,-5.5588,-5.5241,-5.5164,-5.5241,-5.5626,-5.5395,-5.4895,-5.4049,-5.3895,-5.3472,-5.2241,-5.2049,-5.1895,-5.1395,-5.1356,-5.1164,-5.075,-5.0712,-5.0712,-5.0712,-5.0712,-5.0712,-5.0712,-5.0712,-5.0712,-5.0712,-5.0712,-5.0712,-5.0712,-5.0712,-5.0712,-5.0712,-5.1125,-5.1356,-5.1356,-5.2202,-5.2856,-3.5731,-3.5769,-3.5923,-3.6538,-3.6577,-3.6731,-3.8007,-3.7623,-3.7353,-3.8623,-3.9892,-4.0939,-4.1324,-4.347,0.0,-4.8048,-5.001,-5.1625,0.0,0.0,0.0,0.0,0.0,0.0,0.0,0.0,0.0,0.0,0.0,0.0,-5.5703,-5.5703,-5.5703,-5.5703,-5.5703,-5.5703,-5.5703,-5.5703,-5.5703,-5.5703,-5.5703,-5.5703,-5.5703,-5.5703,-5.5164,-5.4164,-5.351,-5.2587,-5.1625,-5.1625,-5.1279,-5.075,-5.1395,-5.1241,-5.0712,-5.0712,-5.0712,-5.0712,-5.0712,-5.0712,-5.075,-5.0933,-5.0971,-5.1164,-5.2202,-5.2972,-5.3664,-5.4549,-5.478,-5.478,-5.478,-5.5241,-5.5703,-5.5703,-5.5703,-5.5703,-5.5703,-5.5549,-5.5472,-5.5665,-5.5549,-5.5203,-5.4626,-5.4511,-5.4203,-5.3318,-5.3203,-5.2972,-5.2269,-5.2192,-5.1895,-5.1048,-5.0971,-5.0894,-5.0712,-5.0712,-5.0712,-5.0712,-5.0712,-5.0712,-5.0712,-5.0712,-5.0712,-5.0712,-5.0712,-5.0789,-5.0971,-5.1587,-5.2,-5.2231,-5.3087,-5.3857,-3.6423,-3.6615,-3.6615,-3.6692,-3.6154,-3.6231,-3.8661,-3.8546,-3.8584,-4.1038,-4.1615,-4.22,-4.3739,-4.6124,-4.8163,-4.9163,-5.1395,0.0,0.0,0.0,0.0,0.0,0.0,0.0,0.0,0.0,0.0,0.0,0.0,0.0,-5.5703,-5.5703,-5.5703,-5.5703,-5.5703,-5.5703,-5.5703,-5.5703,-5.5703,-5.5703,-5.5703,-5.5703,-5.5703,-5.5703,-5.4818,-5.328,-5.3241,-5.2279,-5.0789,-5.0789,-5.075,-5.0712,-5.075,-5.075,-5.0712,-5.0712,-5.0712,-5.0712,-5.0712,-5.0712,-5.0827,-5.1587,-5.1808,-5.2115,-5.3818,-5.4357,-5.4587,-5.5395,-5.5588,-5.5588,-5.5588,-5.5665,-5.5703,-5.5703,-5.5703,-5.5703,-5.5703,-5.5126,-5.4818,-5.5549,-5.5088,-5.4549,-5.4511,-5.4511,-5.4203,-5.3318,-5.3203,-5.3164,-5.3126,-5.3126,-5.2779,-5.1923,-5.1808,-5.151,-5.075,-5.0712,-5.0712,-5.0712,-5.0712,-5.0712,-5.0712,-5.0712,-5.0712,-5.0712,-5.0712,-5.1087,-5.1808,-5.1885,-5.2308,-5.3126,-5.401,-5.4434,-3.5885,-3.6308,-3.6692,-3.6692,-3.6885,-3.7469,-3.8977,-3.9854,-4.0777,-4.2316,-4.3855,-4.5316,-4.6471,-4.8355,-4.9971,-5.0818,-5.3549,0.0,0.0,0.0,0.0,0.0,0.0,0.0,0.0,0.0,0.0,0.0,0.0,0.0,-5.5703,-5.5703,-5.5703,-5.5703,-5.5703,-5.5703,-5.5703,-5.5703,-5.5703,-5.5703,-5.5703,-5.5703,-5.5703,-5.5703,-5.5357,-5.4741,-5.4241,-5.3664,-5.301,-5.2472,-5.1933,-5.1471,-5.1471,-5.1125,-5.075,-5.1279,-5.1125,-5.0712,-5.0712,-5.0712,-5.0827,-5.1654,-5.1885,-5.2231,-5.3972,-5.4511,-5.4664,-5.5472,-5.5703,-5.5703,-5.5703,-5.5703,-5.5703,-5.5703,-5.5703,-5.5703,-5.5703,-5.5472,-5.5318,-5.5626,-5.5434,-5.5241,-5.5241,-5.5241,-5.5126,-5.478,-5.4741,-5.4587,-5.4087,-5.401,-5.3472,-5.2038,-5.1885,-5.2,-5.2241,-5.2241,-5.201,-5.1471,-5.0971,-5.0933,-5.1433,-5.0971,-5.1202,-5.2241,-5.1702,-5.1856,-5.2692,-5.3241,-5.3703,-5.4049,-5.4857,-5.5241,-3.5577,-3.5885,-3.6385,-3.6654,-3.7546,-3.8777,-4.0162,-4.1393,-4.2701,-4.4355,-4.6086,-4.7471,-4.8009,-4.951,0.0,0.0,0.0,0.0,0.0,0.0,0.0,0.0,0.0,0.0,0.0,0.0,0.0,0.0,0.0,0.0,0.0,-5.5703,-5.5703,-5.5703,-5.5703,-5.5703,-5.5703,-5.5703,-5.5703,-5.5703,-5.5703,-5.5703,-5.5703,-5.5703,-5.5395,-5.4895,-5.4626,-5.4203,-5.3626,-5.3049,-5.2423,-5.1923,-5.2192,-5.1972,-5.1548,-5.2125,-5.1779,-5.1125,-5.1395,-5.1318,-5.1241,-5.2356,-5.2731,-5.301,-5.4434,-5.4895,-5.4972,-5.5549,-5.5703,-5.5703,-5.5703,-5.5703,-5.5703,-5.5703,-5.5703,-5.5703,-5.5703,-5.5703,-5.5703,-5.5703,-5.5703,-5.5703,-5.5703,-5.5703,-5.5703,-5.5703,-5.5703,-5.5511,-5.4934,-5.4895,-5.4318,-5.2895,-5.2231,-5.2231,-5.3126,-5.3203,-5.2972,-5.2346,-5.1779,-5.1625,-5.1885,-5.1625,-5.201,-5.3164,-5.2615,-5.2741,-5.3626,-5.4203,-5.4626,-5.4895,-5.5434,-5.5703,-3.5731,-3.5538,-3.5731,-3.6538,-3.8046,-3.9977,-4.2547,-4.3124,-4.4085,-4.7432,-4.8125,-4.8125,-4.8125,-4.9548,0.0,-5.1769,0.0,0.0,0.0,0.0,0.0,0.0,0.0,0.0,0.0,0.0,0.0,0.0,0.0,0.0,0.0,-5.5703,-5.5703,-5.5703,-5.5703,-5.5703,-5.5703,-5.5703,-5.5703,-5.5703,-5.5665,-5.5665,-5.5703,-5.5703,-5.478,-5.328,-5.4126,-5.351,-5.1923,-5.1923,-5.1885,-5.1962,-5.2856,-5.3164,-5.3164,-5.3164,-5.2654,-5.2,-5.2895,-5.2615,-5.2192,-5.3933,-5.4511,-5.4664,-5.5472,-5.5703,-5.5703,-5.5703,-5.5703,-5.5703,-5.5703,-5.5703,-5.5703,-5.5703,-5.5703,-5.5703,-5.5703,-5.5703,-5.5703,-5.5703,-5.5703,-5.5703,-5.5703,-5.5703,-5.5703,-5.5703,-5.5703,-5.5703,-5.5703,-5.5703,-5.5395,-5.4587,-5.2972,-5.2269,-5.3164,-5.3241,-5.3241,-5.3203,-5.3241,-5.2818,-5.1962,-5.2741,-5.3203,-5.3241,-5.3241,-5.3626,-5.4511,-5.4511,-5.4934,-5.5703,-5.5703,-5.5703,-3.7315,-3.77,-3.8238,-3.8469,-3.9815,-4.1585,-4.3508,-4.4432,-4.5663,-4.8432,-4.951,-4.9933,-4.9933,-5.1318,0.0,0.0,0.0,0.0,0.0,0.0,0.0,0.0,0.0,0.0,0.0,0.0,0.0,0.0,0.0,0.0,0.0,-5.5703,-5.5703,-5.5703,-5.5703,-5.5703,-5.5703,-5.5126,-5.4857,-5.4857,-5.4241,-5.4549,-5.5665,-5.5126,-5.4895,-5.4934,-5.4626,-5.4511,-5.4472,-5.3318,-5.2125,-5.1125,-5.1972,-5.1933,-5.151,-5.2087,-5.1779,-5.1164,-5.201,-5.2115,-5.2192,-5.3933,-5.4511,-5.4664,-5.5472,-5.5703,-5.5703,-5.5703,-5.5703,-5.5703,-5.5703,-5.5703,-5.5703,-5.5703,-5.5703,-5.5703,-5.5703,-5.5703,-5.5703,-5.5703,-5.5703,-5.5703,-5.5703,-5.5703,-5.5703,-5.5703,-5.5203,-5.4857,-5.4857,-5.4857,-5.4972,-5.5318,-5.4395,-5.4049,-5.4895,-5.4972,-5.4703,-5.4164,-5.4664,-5.4587,-5.378,-5.3395,-5.3741,-5.4934,-5.4395,-5.4511,-5.5318,-5.5318,-5.5472,-5.5703,-5.5703,-5.6011,-3.8084,-3.8392,-3.8931,-3.9631,-4.1046,-4.3008,-4.5701,-4.724,-4.8625,-5.051,-5.1318,-5.1702,-5.1702,-5.251,0.0,0.0,0.0,0.0,0.0,0.0,0.0,0.0,0.0,0.0,0.0,0.0,0.0,0.0,0.0,0.0,0.0,-5.5203,-5.5049,-5.4703,-5.4703,-5.4703,-5.4703,-5.4241,-5.3972,-5.3972,-5.3818,-5.4049,-5.4703,-5.4549,-5.4587,-5.4664,-5.4203,-5.4049,-5.4126,-5.3472,-5.2395,-5.1241,-5.2087,-5.2125,-5.1779,-5.2626,-5.2202,-5.1356,-5.251,-5.2692,-5.2654,-5.4049,-5.4703,-5.5049,-5.5549,-5.5703,-5.5703,-5.5703,-5.5703,-5.5703,-5.5703,-5.5703,-5.5703,-5.5703,-5.5703,-5.5703,-5.5703,-5.5703,-5.5703,-5.5703,-5.5703,-5.5703,-5.5703,-5.5703,-5.5703,-5.5703,-5.528,-5.4972,-5.4972,-5.4703,-5.4818,-5.5588,-5.4972,-5.4818,-5.5626,-5.5703,-5.5472,-5.5011,-5.5434,-5.5472,-5.5011,-5.4472,-5.4664,-5.5665,-5.5203,-5.5203,-5.5703,-5.5703,-5.5857,-5.6214,-5.6214,-5.6665,-3.8546,-3.8354,-3.8738,-4.0439,-4.22,-4.4586,-4.8625,-5.0741,-5.2115,-5.2933,-5.328,-5.3395,-5.3318,-5.3395,-5.3703,0.0,0.0,0.0,0.0,0.0,0.0,0.0,0.0,0.0,0.0,0.0,0.0,0.0,0.0,0.0,0.0,-5.4395,-5.401,-5.3241,-5.3203,-5.3203,-5.3203,-5.3126,-5.3087,-5.3087,-5.3818,-5.3741,-5.301,-5.3933,-5.3895,-5.3087,-5.3164,-5.2692,-5.1962,-5.2731,-5.2587,-5.1885,-5.2664,-5.2972,-5.3087,-5.3857,-5.3164,-5.2038,-5.3703,-5.3818,-5.3356,-5.4203,-5.5049,-5.5703,-5.5703,-5.5703,-5.5703,-5.5703,-5.5703,-5.5703,-5.5703,-5.5703,-5.5703,-5.5703,-5.5703,-5.5703,-5.5703,-5.5703,-5.5703,-5.5703,-5.5703,-5.5703,-5.5703,-5.5703,-5.5665,-5.5588,-5.5665,-5.5665,-5.5588,-5.5011,-5.4895,-5.5626,-5.5049,-5.4895,-5.5626,-5.5703,-5.5703,-5.5703,-5.5703,-5.5703,-5.5703,-5.5703,-5.5703,-5.5703,-5.5703,-5.5703,-5.5703,-5.578,-5.6252,-5.6983,-5.7099,-5.7588,-4.0854,-4.0962,-4.1393,-4.3047,-4.5278,-4.7625,-4.9894,-5.1202,-5.1962,-5.2154,-5.378,-5.4972,-5.4357,-5.4741,0.0,0.0,0.0,0.0,0.0,0.0,0.0,0.0,0.0,0.0,0.0,0.0,0.0,0.0,0.0,0.0,-5.351,-5.3472,-5.3395,-5.3203,-5.3203,-5.3203,-5.3203,-5.25,-5.2192,0.0,-5.1741,-5.1443,-5.1279,-5.2779,-5.301,-5.2231,-5.2895,-5.2692,-5.1923,-5.2115,-5.1702,-5.0971,-5.1164,-5.1241,-5.1241,-5.1443,-5.1279,-5.1087,-5.2125,-5.2779,-5.3356,-5.4203,-5.5049,-5.5703,-5.5703,-5.5703,-5.5703,-5.5703,-5.5703,-5.5703,-5.5703,-5.5703,-5.5703,-5.5703,-5.5703,-5.5703,-5.5703,-5.5703,-5.5703,-5.5703,-5.5703,-5.5703,-5.5703,-5.5703,-5.5472,-5.4857,-5.528,-5.5472,-5.4857,-5.5164,-5.5511,-5.5665,-5.5549,-5.5511,-5.5703,-5.5703,-5.5703,-5.5703,-5.5703,-5.5703,-5.5703,-5.5703,-5.5703,-5.5703,-5.5703,-5.5703,-5.5703,-5.6406,-5.683,-5.7022,-5.7703,-5.8473,-4.1046,-4.147,-4.2385,-4.4932,-4.7163,-4.9163,-5.0894,-5.1587,-5.2154,-5.2972,-5.4203,-5.5126,-5.5088,0.0,0.0,0.0,0.0,0.0,0.0,0.0,0.0,0.0,0.0,0.0,0.0,0.0,0.0,0.0,0.0,-5.301,-5.2577,-5.2577,-5.2395,-5.201,-5.201,-5.201,-5.201,-5.1548,-5.1318,-5.1318,-5.1279,-5.1279,-5.1318,-5.2202,-5.2308,-5.1923,-5.2385,-5.2087,-5.1318,-5.1318,-5.1087,-5.0712,-5.0712,-5.0712,-5.075,-5.1125,-5.101,-5.0866,-5.2087,-5.2538,-5.2779,-5.4087,-5.478,-5.5203,-5.5588,-5.5703,-5.5703,-5.5703,-5.5703,-5.5703,-5.5703,-5.5703,-5.5703,-5.5703,-5.5703,-5.5703,-5.5703,-5.5703,-5.5703,-5.5703,-5.5703,-5.5703,-5.5703,-5.5703,-5.5549,-5.5126,-5.5434,-5.5549,-5.5126,-5.5434,-5.5703,-5.5703,-5.5703,-5.5703,-5.5703,-5.5703,-5.5703,-5.5703,-5.5703,-5.5703,-5.5703,-5.5703,-5.5703,-5.5703,-5.5703,-5.5895,-5.6329,-5.6791,-5.7407,-5.8204,-5.8665,-5.9319,-4.0669,-4.147,-4.2962,-4.6115,-4.8048,-4.9625,-5.1318,-5.1692,-5.2125,-5.3741,-5.428,-5.4741,0.0,0.0,0.0,0.0,0.0,0.0,0.0,0.0,0.0,0.0,0.0,0.0,0.0,0.0,0.0,0.0,0.0,-5.2472,-5.1731,-5.1692,-5.1395,-5.0712,-5.0712,-5.0712,-5.0712,-5.0712,-5.0712,-5.0712,-5.1356,-5.1692,-5.1692,-5.1692,-5.1692,-5.1692,-5.1692,-5.1318,-5.0712,-5.0712,-5.0712,-5.0712,-5.0712,-5.0712,-5.0789,-5.1471,-5.1356,-5.1125,-5.251,-5.2692,-5.2577,-5.4049,-5.4587,-5.4818,-5.5511,-5.5703,-5.5703,-5.5703,-5.5703,-5.5703,-5.5703,-5.5703,-5.5703,-5.5703,-5.5703,-5.5703,-5.5703,-5.5703,-5.5703,-5.5703,-5.5703,-5.5703,-5.5703,-5.5703,-5.5703,-5.5703,-5.5703,-5.5703,-5.5703,-5.5703,-5.5703,-5.5703,-5.5703,-5.5703,-5.5703,-5.5703,-5.5703,-5.5703,-5.5703,-5.5703,-5.5703,-5.5818,-5.5934,-5.5934,-5.5934,-5.6357,-5.7214,-5.7368,-5.8127,-5.9511,-5.9665,-6.0127,-4.1431,-4.2777,-4.4432,-4.6432,-4.7586,-4.874,-5.0471,-5.0856,-5.1125,0.0,-5.3433,0.0,0.0,0.0,0.0,0.0,0.0,0.0,0.0,0.0,0.0,0.0,0.0,0.0,0.0,0.0,0.0,0.0,-5.1433,-5.0981,-5.0866,-5.0856,-5.0827,-5.0712,-5.0712,-5.0712,-5.0712,-5.0712,-5.0712,-5.0712,-5.0827,-5.0856,-5.0856,-5.0856,-5.0856,-5.0856,-5.0856,-5.0789,-5.0712,-5.0712,-5.0712,-5.0712,-5.0712,-5.0712,-5.0712,-5.0827,-5.1241,-5.1769,-5.2,-5.301,-5.4203,-5.4434,-5.4972,-5.5549,-5.5665,-5.5703,-5.5703,-5.5703,-5.5703,-5.5703,-5.5703,-5.5703,-5.5703,-5.5703,-5.5703,-5.5703,-5.5703,-5.5703,-5.5703,-5.5703,-5.5703,-5.5703,-5.5703,-5.5703,-5.5703,-5.5703,-5.5703,-5.5703,-5.5703,-5.5703,-5.5703,-5.5703,-5.5703,-5.5703,-5.5703,-5.5703,-5.5703,-5.5703,-5.5703,-5.5703,-5.5703,-5.6445,-5.683,-5.683,-5.683,-5.7242,-5.8127,-5.8819,-5.9281,-5.9511,-6.0281,-6.0704,-4.2162,-4.3393,-4.4701,-4.6471,-4.7855,-4.9048,-4.9779,-5.0366,-5.0933,-5.1731,-5.25,0.0,0.0,0.0,0.0,0.0,0.0,0.0,0.0,0.0,0.0,0.0,0.0,0.0,0.0,0.0,0.0,0.0,-5.0894,-5.0712,-5.0712,-5.0712,-5.0712,-5.0712,-5.025,-4.9971,-4.9971,-4.9471,-4.9471,-4.9971,-5.0481,-5.0712,-5.0712,-5.0712,-5.0712,-5.0712,-5.0712,-5.0712,-5.0712,-5.0712,-5.0712,-5.0712,-5.0712,-5.0712,-5.0712,-5.0712,-5.1202,-5.1962,-5.2462,-5.3126,-5.3933,-5.4857,-5.5126,-5.5126,-5.5549,-5.5703,-5.5703,-5.5703,-5.5703,-5.5703,-5.5703,-5.5703,-5.5703,-5.5703,-5.5703,-5.5703,-5.5703,-5.5703,-5.5703,-5.5703,-5.5703,-5.5703,-5.5703,-5.5703,-5.5703,-5.5703,-5.5703,-5.5703,-5.5703,-5.5703,-5.5703,-5.5703,-5.5703,-5.5703,-5.5703,-5.5703,-5.5703,-5.5703,-5.6165,-5.6445,-5.6445,-5.728,-5.7934,-5.8396,-5.7973,-5.8127,-5.8973,-5.9319,-5.9742,-6.0242,-6.0627,-6.0781,-4.2085,-4.3047,-4.4085,-4.5817,-4.7355,-4.8586,-4.924,0.0,-5.0587,0.0,0.0,0.0,0.0,0.0,0.0,0.0,0.0,0.0,0.0,0.0,0.0,0.0,0.0,0.0,0.0,0.0,0.0,0.0,-5.0366,-5.0289,-5.0048,-5.0048,-5.0048,-5.0048,-4.9394,-4.9086,-4.9086,-4.8432,-4.8432,-4.9086,-4.9933,-5.0366,-5.0366,-5.0596,-5.0712,-5.0712,-5.0712,-5.0712,-5.0712,-5.0712,-5.0712,-5.0712,-5.0712,-5.0712,-5.0712,-5.0712,-5.1202,-5.2,-5.2895,-5.3356,-5.378,-5.5241,-5.528,-5.4895,-5.528,-5.5549,-5.5665,-5.5434,-5.5549,-5.5703,-5.5703,-5.5703,-5.5703,-5.5703,-5.5703,-5.5703,-5.5703,-5.5703,-5.5703,-5.5703,-5.5703,-5.5703,-5.5703,-5.5703,-5.5703,-5.5703,-5.5703,-5.5703,-5.5703,-5.5703,-5.5703,-5.5703,-5.5703,-5.5703,-5.5703,-5.5895,-5.5934,-5.5703,-5.6742,-5.7253,-5.7022,-5.8011,-5.8896,-5.9473,-5.9127,-5.9242,-5.9819,-5.9819,-6.0165,-6.0781,-6.0781,-6.0781,-4.0593,-4.1277,-4.2316,-4.4008,-4.5124,-4.6441,-4.8856,0.0,-4.9702,0.0,0.0,0.0,0.0,0.0,0.0,0.0,0.0,0.0,0.0,0.0,0.0,0.0,0.0,0.0,0.0,0.0,0.0,0.0,-4.9471,-4.9125,-4.8279,-4.824,-4.824,-4.824,-4.8202,-4.8163,-4.8163,-4.8125,-4.8125,-4.8202,-4.9048,-4.9471,-4.951,-5.0327,-5.0712,-5.0712,-5.0712,-5.0712,-5.0712,-5.0712,-5.0712,-5.0712,-5.0712,-5.0712,-5.0712,-5.0712,-5.1202,-5.2,-5.2895,-5.3741,-5.4587,-5.5434,-5.5665,-5.5511,-5.478,-5.5088,-5.5549,-5.478,-5.5126,-5.5703,-5.5703,-5.5703,-5.5703,-5.5703,-5.5703,-5.5703,-5.5703,-5.5703,-5.5703,-5.5703,-5.5703,-5.5703,-5.5703,-5.5703,-5.5703,-5.5703,-5.5703,-5.5703,-5.5703,-5.5703,-5.5703,-5.5703,-5.5703,-5.5703,-5.5703,-5.6483,-5.6599,-5.5742,-5.728,-5.7857,-5.7022,-5.855,-5.9473,-5.9511,-6.0281,-6.0704,-6.0742,-6.0742,-6.0742,-6.0781,-6.0781,-6.0781,-3.9746,-4.0323,-4.1239,-4.2393,-4.4162,-4.5825,-4.6749,-4.7778,-4.8663,0.0,0.0,0.0,0.0,0.0,0.0,0.0,0.0,0.0,0.0,0.0,0.0,0.0,0.0,0.0,0.0,0.0,0.0,0.0,0.0,-4.8432,-4.8125,-4.8086,-4.8086,-4.8086,-4.7586,-4.7048,-4.6509,-4.7048,-4.7317,-4.7355,-4.8163,-4.8856,-4.9394,-4.9702,-5.0164,-5.0712,-5.0712,-5.0712,-5.0712,-5.0712,-5.0712,-5.0712,-5.0712,-5.0712,-5.0712,-5.0712,-5.1202,-5.1923,-5.2269,-5.3318,-5.4549,-5.4857,-5.528,-5.5665,-5.5357,-5.5472,-5.5626,-5.5357,-5.5472,-5.5703,-5.5703,-5.5318,-5.4934,-5.4934,-5.5318,-5.5703,-5.5703,-5.5703,-5.5703,-5.5703,-5.5703,-5.5703,-5.5703,-5.5703,-5.5703,-5.5703,-5.5703,-5.5703,-5.5703,-5.5703,-5.5703,-5.5703,-5.5703,-5.5934,-5.6483,-5.6329,-5.6511,-5.7319,-5.7934,-5.8396,-5.8588,-5.9704,-6.0319,-6.0319,-6.0627,-6.0781,-6.0781,-6.0781,-6.0781,-6.0819,-6.1358,-6.1639,-3.8931,-3.9246,-4.0008,-4.1431,-4.2854,-4.4209,-4.5325,0.0,-4.7009,0.0,0.0,0.0,0.0,0.0,0.0,0.0,0.0,0.0,0.0,0.0,0.0,0.0,0.0,0.0,0.0,0.0,0.0,0.0,0.0,0.0,-4.7278,-4.7278,-4.7278,-4.7278,-4.674,-4.6201,-4.5594,-4.6163,-4.6471,-4.6471,-4.7317,-4.8125,-4.8971,-4.8971,-4.9586,-5.0673,-5.0404,-5.0442,-5.0712,-5.0712,-5.0712,-5.0712,-5.0712,-5.0712,-5.0712,-5.0712,-5.1048,-5.1548,-5.1808,-5.2856,-5.4126,-5.4395,-5.4857,-5.528,-5.528,-5.528,-5.528,-5.528,-5.5472,-5.5703,-5.5703,-5.528,-5.4895,-5.4895,-5.5318,-5.5703,-5.5703,-5.5703,-5.5703,-5.5703,-5.5703,-5.5703,-5.5703,-5.5703,-5.5703,-5.5703,-5.5703,-5.5703,-5.5703,-5.5703,-5.5703,-5.5703,-5.5703,-5.6049,-5.6945,-5.6742,-5.7088,-5.8242,-5.8819,-5.9242,-5.9473,-6.0319,-6.0781,-6.0781,-6.0781,-6.0781,-6.0781,-6.0781,-6.0935,-6.1243,-6.1831,-6.2409,0.0,0.0,0.0,-4.1077,-4.1085,-4.1324,-4.471,0.0,-4.4701,0.0,0.0,0.0,0.0,0.0,0.0,0.0,0.0,0.0,0.0,0.0,0.0,0.0,0.0,0.0,0.0,0.0,0.0,0.0,-4.6846,-4.6509,-4.5633,-4.5594,-4.5594,-4.5594,-4.5594,-4.5594,-4.5594,-4.5594,-4.5594,-4.5594,-4.6471,-4.7317,-4.8086,-4.8125,-4.9048,-5.0635,-4.9779,-4.9933,-5.0712,-5.0712,-5.0712,-5.0712,-5.0712,-5.0712,-5.0712,-5.0712,-5.0712,-5.0866,-5.1625,-5.25,-5.3395,-5.4241,-5.4511,-5.4549,-5.4549,-5.4549,-5.4549,-5.4549,-5.5088,-5.5703,-5.5665,-5.5665,-5.5703,-5.5665,-5.5665,-5.5703,-5.5703,-5.5665,-5.5665,-5.5665,-5.5665,-5.5665,-5.5665,-5.5665,-5.5703,-5.5703,-5.5703,-5.5703,-5.5703,-5.5703,-5.5703,-5.5703,-5.5703,-5.6049,-5.6945,-5.778,-5.828,-5.8357,-5.9896,-6.0396,-5.9588,-6.0358,-6.0781,-6.0781,-6.0781,-6.0781,-6.0781,-6.0819,-6.1281,-6.2101,-6.2139,-6.3051,-3.7469,0.0,0.0,0.0,0.0,0.0,-4.1554,-4.22,-4.297,0.0,0.0,0.0,0.0,0.0,0.0,0.0,0.0,0.0,0.0,0.0,0.0,0.0,0.0,0.0,0.0,0.0,0.0,0.0,-4.597,-4.5855,-4.5594,-4.5594,-4.5594,-4.5594,-4.5594,-4.5594,-4.5594,-4.5594,-4.5594,-4.5594,-4.6471,-4.7,-4.7269,-4.8509,-4.9317,-4.9779,-5.0164,-5.0481,-5.0712,-5.0712,-5.0712,-5.0712,-5.0712,-5.0712,-5.0712,-5.0712,-5.1087,-5.1587,-5.1808,-5.2895,-5.4164,-5.4434,-5.4895,-5.5357,-5.5357,-5.5357,-5.5357,-5.5357,-5.5511,-5.5549,-5.4972,-5.5241,-5.5549,-5.4972,-5.528,-5.5703,-5.5703,-5.5241,-5.4818,-5.4818,-5.4818,-5.4818,-5.4818,-5.5318,-5.5703,-5.5703,-5.5703,-5.5703,-5.5703,-5.5703,-5.5703,-5.5703,-5.5703,-5.6319,-5.7819,-5.7588,-5.8165,-5.9973,-5.9935,-6.0012,-6.0435,-6.0666,-6.0781,-6.0781,-6.0781,-6.0781,-6.0781,-6.1435,-6.187,-6.2139,-6.332,-6.4474,-3.7161,-3.7353,-3.8161,-3.8854,0.0,0.0,-4.0246,-4.0623,-4.1123,0.0,0.0,0.0,0.0,0.0,0.0,0.0,0.0,0.0,0.0,0.0,0.0,0.0,0.0,0.0,0.0,-4.5893,-4.5594,-4.5594,-4.5594,-4.5594,-4.5594,-4.5594,-4.5594,-4.5594,-4.5594,-4.5594,-4.5594,-4.5594,-4.5594,-4.5594,-4.6124,-4.6547,-4.6923,-4.7548,-4.8202,-4.8856,-4.9048,-4.951,-5.0164,-5.0164,-5.0366,-5.0712,-5.0712,-5.0712,-5.0712,-5.0712,-5.101,-5.1471,-5.1769,-5.2818,-5.3972,-5.3972,-5.428,-5.4664,-5.4664,-5.4664,-5.4741,-5.5088,-5.5434,-5.5588,-5.5126,-5.5357,-5.5588,-5.5126,-5.5357,-5.5703,-5.5703,-5.5049,-5.4587,-5.4934,-5.4741,-5.4626,-5.4934,-5.5395,-5.5703,-5.5703,-5.5703,-5.5703,-5.5703,-5.5703,-5.5703,-5.5703,-5.6011,-5.678,-5.8165,-5.8127,-5.8819,-6.0666,-6.0319,-6.0281,-6.0781,-6.0781,-6.0781,-6.0781,-6.0781,-6.1127,-6.1858,-6.2024,-6.2447,-6.3166,-6.4512,-6.559,-3.743,-3.7546,-3.8507,-3.9977,-3.9161,0.0,-3.99,-3.9669,-3.94,-4.0323,0.0,0.0,0.0,0.0,0.0,0.0,0.0,0.0,0.0,0.0,0.0,0.0,0.0,0.0,-4.5594,-4.5594,-4.5594,-4.5594,-4.5594,-4.5594,-4.5594,-4.5594,-4.5594,-4.5594,-4.5594,-4.5594,-4.5594,-4.5594,-4.5594,-4.5594,-4.571,-4.6086,-4.674,-4.624,-4.674,-4.7932,-4.7509,-4.8125,-4.9394,-4.951,-5.001,-5.0712,-5.0712,-5.0712,-5.0712,-5.0789,-5.0904,-5.1087,-5.1933,-5.2702,-5.3356,-5.3356,-5.328,-5.3241,-5.3318,-5.3356,-5.351,-5.4395,-5.5164,-5.5703,-5.5703,-5.5703,-5.5703,-5.5703,-5.5703,-5.5703,-5.5703,-5.5049,-5.4741,-5.5549,-5.5049,-5.4741,-5.5434,-5.5626,-5.5703,-5.5703,-5.5703,-5.5703,-5.5703,-5.5703,-5.5703,-5.5703,-5.6483,-5.7368,-5.8242,-5.905,-5.9858,-6.0742,-6.0781,-6.0781,-6.0781,-6.0781,-6.0781,-6.0781,-6.0896,-6.1704,-6.3308,-6.2666,-6.3205,-6.4782,-6.5628,-6.6397,-3.9053,-3.8931,-3.913,-3.9438,-3.8738,0.0,-3.8392,-3.8354,-3.8661,0.0,0.0,0.0,0.0,0.0,0.0,0.0,0.0,0.0,0.0,0.0,0.0,0.0,0.0,0.0,-4.5594,-4.5594,-4.5594,-4.5594,-4.5594,-4.5594,-4.5594,-4.5594,-4.5594,-4.5594,-4.5594,-4.5594,-4.5594,-4.5594,-4.5594,-4.5594,-4.6317,-4.6355,-4.5941,-4.7778,-4.8086,-4.724,-4.9125,-4.974,-4.9433,-5.0173,-5.0558,-5.0712,-5.0712,-5.0712,-5.0789,-5.1433,-5.2125,-5.2818,-5.3703,-5.4087,-5.4241,-5.4241,-5.378,-5.3318,-5.4049,-5.4241,-5.4434,-5.5241,-5.5588,-5.5703,-5.5703,-5.5703,-5.5703,-5.5703,-5.5703,-5.5703,-5.5703,-5.5049,-5.4741,-5.5549,-5.5049,-5.4549,-5.4703,-5.528,-5.5703,-5.5703,-5.5703,-5.5703,-5.5703,-5.5703,-5.5703,-5.5703,-5.6483,-5.7368,-5.8242,-5.905,-5.9858,-6.0742,-6.0781,-6.0781,-6.0781,-6.0781,-6.0781,-6.0781,-6.1473,-6.232,-6.3308,-6.3858,-6.4628,-6.5667,-6.6474,-6.6936,-3.9515,-3.9592,0.0,-3.99,0.0,0.0,0.0,-3.8661,-3.8892,0.0,0.0,0.0,0.0,0.0,0.0,0.0,0.0,0.0,0.0,0.0,0.0,0.0,0.0,0.0,-4.5594,-4.5594,-4.5594,-4.5594,-4.5594,-4.5594,-4.5594,-4.5594,-4.5594,-4.5594,-4.5594,-4.5594,-4.5594,-4.5594,-4.5594,-4.5594,-4.6047,-4.6009,-4.5633,-4.6941,-4.7048,-4.6355,-4.8048,-4.8779,-4.8817,-4.9702,-5.0327,-5.0712,-5.0712,-5.0712,-5.075,-5.1164,-5.1818,-5.2692,-5.3549,-5.4126,-5.4434,-5.3972,-5.3549,-5.3126,-5.2741,-5.3203,-5.4126,-5.5357,-5.5395,-5.5203,-5.5588,-5.5395,-5.5088,-5.5088,-5.5088,-5.5088,-5.5088,-5.478,-5.4741,-5.5549,-5.5357,-5.5088,-5.5088,-5.5434,-5.5703,-5.5703,-5.5703,-5.5703,-5.5703,-5.5703,-5.5857,-5.6291,-5.7126,-5.7973,-5.8819,-5.9665,-6.0319,-6.0781,-6.0781,-6.0781,-6.0781,-6.0781,-6.1012,-6.1435,-6.2281,-6.3128,-6.3935,-6.482,-6.5667,-6.6513,-6.6898,-6.7552,0.0,0.0,0.0,0.0,0.0,-3.97,0.0,0.0,0.0,0.0,0.0,0.0,0.0,0.0,0.0,0.0,0.0,0.0,0.0,0.0,0.0,0.0,0.0,0.0,0.0,-4.5594,-4.5594,-4.5594,-4.5594,-4.5594,-4.5594,-4.5594,-4.5594,-4.5594,-4.5594,-4.5594,-4.5594,-4.5594,-4.5594,-4.5594,-4.5594,-4.5594,-4.5594,-4.5787,-4.5748,-4.5671,-4.6855,-4.7663,-4.8202,-4.9202,-5.0048,-5.0712,-5.0712,-5.0712,-5.075,-5.1058,-5.1471,-5.2038,-5.3087,-5.3703,-5.3895,-5.3164,-5.3049,-5.2933,-5.1587,-5.2356,-5.3972,-5.5318,-5.5241,-5.4895,-5.5511,-5.5203,-5.4703,-5.4549,-5.4511,-5.4511,-5.4511,-5.4511,-5.4741,-5.5549,-5.5703,-5.5703,-5.5703,-5.5703,-5.5703,-5.5703,-5.5703,-5.5703,-5.5703,-5.5857,-5.6214,-5.6907,-5.7934,-5.8781,-5.9435,-6.0281,-6.0781,-6.0781,-6.0781,-6.0781,-6.0781,-6.0973,-6.1358,-6.2101,-6.3051,-6.3897,-6.4589,-6.5628,-6.6436,-6.709,-6.7282,-6.8205,0.0,0.0,0.0,0.0,-4.1585,0.0,0.0,0.0,-3.9284,-3.9284,0.0,0.0,0.0,0.0,0.0,0.0,0.0,0.0,0.0,0.0,0.0,0.0,0.0,0.0,0.0,-4.5594,-4.5594,-4.5594,-4.5594,-4.5594,-4.5594,-4.5594,-4.5594,-4.5594,-4.5594,-4.5594,-4.5594,-4.5594,-4.5594,-4.5594,-4.5594,-4.5594,-4.5633,-4.6394,-4.6317,-4.5748,-4.8086,-4.874,-4.824,-4.9856,-5.0596,-5.0712,-5.0712,-5.0712,-5.0866,-5.2356,-5.2472,-5.2154,-5.378,-5.3395,-5.2192,-5.2077,-5.2577,-5.3164,-5.2972,-5.4087,-5.5472,-5.5665,-5.5626,-5.5588,-5.5665,-5.5626,-5.5395,-5.4664,-5.4511,-5.4511,-5.4511,-5.4511,-5.4741,-5.5549,-5.5703,-5.5703,-5.5703,-5.5703,-5.5703,-5.5703,-5.5703,-5.5703,-5.5703,-5.6368,-5.6907,-5.6983,-5.8434,-5.9396,-5.9473,-6.0281,-6.0781,-6.0781,-6.0781,-6.0781,-6.0781,-6.1562,-6.1985,-6.2101,-6.3666,-6.4512,-6.4589,-6.6205,-6.7013,-6.7128,-6.7898,-6.8783,0.0,0.0,0.0,0.0,0.0,0.0,-4.1046,0.0,-4.0739,0.0,0.0,0.0,0.0,0.0,0.0,0.0,-4.1739,0.0,0.0,0.0,0.0,0.0,0.0,0.0,0.0,0.0,0.0,0.0,-4.5594,-4.5594,-4.5594,-4.5594,-4.5594,-4.5594,-4.5594,-4.5594,-4.5594,-4.5594,-4.5594,-4.5594,-4.5594,-4.5594,-4.5594,-4.597,-4.5932,-4.571,-4.774,-4.8432,-4.824,-4.9971,-5.0712,-5.0712,-5.0712,-5.0712,-5.0827,-5.201,-5.2538,-5.2779,-5.351,-5.3587,-5.3318,-5.2818,-5.2538,-5.2615,-5.3664,-5.4087,-5.4357,-5.4857,-5.428,-5.3626,-5.4126,-5.4241,-5.4049,-5.3203,-5.378,-5.4357,-5.3857,-5.4126,-5.4741,-5.5549,-5.5703,-5.5703,-5.5703,-5.5703,-5.5703,-5.5703,-5.5703,-5.5857,-5.6406,-5.6791,-5.7368,-5.8357,-5.9088,-5.9704,-6.0204,-6.0589,-6.0781,-6.0781,-6.0781,-6.1012,-6.1524,-6.1908,-6.2563,-6.3512,-6.4243,-6.4859,-6.5359,-6.6513,-6.7359,-6.7898,-6.8744,-6.959,-4.3778,0.0,0.0,0.0,0.0,0.0,0.0,0.0,0.0,0.0,0.0,0.0,0.0,0.0,-4.1854,-4.1008,0.0,-4.2701,0.0,0.0,0.0,0.0,0.0,0.0,0.0,0.0,0.0,0.0,0.0,-4.5594,-4.5594,-4.5594,-4.5594,-4.5594,-4.5594,-4.5594,-4.5594,-4.5594,-4.5594,-4.5594,-4.5594,-4.5594,-4.5594,-4.5594,-4.5594,-4.5671,-4.7124,-4.7894,-4.824,-4.9702,-5.0481,-5.0712,-5.0712,-5.0712,-5.0789,-5.1587,-5.2154,-5.2549,-5.2779,-5.3126,-5.3356,-5.2702,-5.2241,-5.2154,-5.3395,-5.351,-5.3318,-5.3972,-5.3241,-5.2385,-5.3049,-5.3203,-5.2972,-5.2115,-5.3049,-5.3972,-5.3356,-5.3895,-5.4741,-5.5549,-5.5703,-5.5703,-5.5703,-5.5703,-5.5703,-5.5703,-5.5703,-5.6011,-5.6907,-5.7214,-5.7896,-5.9358,-5.9704,-6.0127,-6.0742,-6.0781,-6.0781,-6.0781,-6.0781,-6.1166,-6.2062,-6.2332,-6.3089,-6.4589,-6.5051,-6.559,-6.6244,-6.7282,-6.8129,-6.8783,-6.9398,-7.0129,0.0,0.0,0.0,-4.347,0.0,0.0,0.0,0.0,-4.3047,0.0,0.0,0.0,0.0,-4.3047,-4.2777,-4.1885,-4.2508,0.0,0.0,0.0,0.0,0.0,0.0,0.0,0.0,0.0,0.0,0.0,0.0,0.0,-4.5594,-4.5594,-4.5594,-4.5594,-4.5594,-4.5594,-4.5594,-4.5594,-4.5594,-4.5594,-4.5594,-4.5594,-4.5594,-4.5594,-4.5594,-4.5633,-4.6547,-4.7394,-4.8163,-4.9086,-4.9933,-5.0712,-5.0712,-5.0712,-5.0789,-5.1587,-5.1433,-5.0904,-5.1664,-5.1433,-5.0827,-5.0789,-5.1279,-5.1923,-5.1962,-5.2538,-5.3203,-5.3241,-5.3203,-5.3164,-5.3203,-5.3203,-5.2972,-5.2115,-5.2577,-5.3241,-5.3203,-5.3895,-5.4741,-5.5549,-5.5703,-5.5703,-5.5703,-5.5703,-5.5703,-5.5703,-5.5703,-5.6011,-5.6907,-5.7742,-5.8588,-5.9396,-6.0242,-6.0781,-6.0781,-6.0781,-6.0781,-6.0781,-6.0781,-6.1166,-6.2062,-6.2858,-6.3666,-6.4589,-6.6205,-6.7013,-6.7051,-6.8783,-6.9629,-6.9667,-6.9706,-7.0129,0.0,0.0,-4.6201,-4.5047,0.0,0.0,0.0,0.0,0.0,0.0,0.0,0.0,0.0,-4.3547,-4.3624,-4.2777,-4.2893,-4.2893,0.0,0.0,0.0,0.0,0.0,0.0,0.0,0.0,0.0,0.0,-4.5594,0.0,-4.5594,-4.5594,-4.5594,-4.5594,-4.5594,-4.5594,-4.5594,-4.5594,-4.5594,-4.5594,-4.5594,-4.5594,-4.5594,-4.5594,-4.5594,-4.5633,-4.6509,-4.7355,-4.8163,-4.9048,-4.9894,-5.0712,-5.0712,-5.0712,-5.0789,-5.1587,-5.1731,-5.1625,-5.2472,-5.2202,-5.1587,-5.2164,-5.2164,-5.2,-5.2577,-5.2538,-5.2346,-5.2346,-5.2346,-5.2241,-5.1664,-5.2779,-5.3549,-5.1587,-5.301,-5.4549,-5.3433,-5.4318,-5.5357,-5.5665,-5.5703,-5.5703,-5.5703,-5.5703,-5.5703,-5.5703,-5.5703,-5.6203,-5.7665,-5.8127,-5.8819,-6.0204,-6.0627,-6.0781,-6.0781,-6.0781,-6.0781,-6.0781,-6.1331,-6.2012,-6.2858,-6.3705,-6.4589,-6.5436,-6.6551,-6.709,-6.709,-6.8859,-6.9706,-6.9706,-7.0244,-7.0629,-4.674,-4.7115,0.0,-4.5902,-4.624,0.0,-4.4701,0.0,0.0,0.0,0.0,0.0,0.0,-4.4393,-4.4586,-4.4085,-4.3739,-4.3547,0.0,-4.397,0.0,0.0,0.0,0.0,0.0,0.0,0.0,-4.5594,-4.5594,-4.5594,0.0,0.0,-4.5594,-4.5594,-4.5594,-4.5594,-4.5594,-4.5594,-4.5594,-4.5594,-4.5594,-4.5594,-4.5594,-4.5594,-4.5594,-4.5633,-4.6509,-4.7355,-4.8163,-4.9048,-4.9894,-5.0712,-5.0712,-5.0712,-5.075,-5.1279,-5.1654,-5.1923,-5.2202,-5.2125,-5.1962,-5.2202,-5.1933,-5.1587,-5.2125,-5.1933,-5.1548,-5.1808,-5.1885,-5.1769,-5.1279,-5.2587,-5.3549,-5.1587,-5.3241,-5.4972,-5.3895,-5.4741,-5.5703,-5.5703,-5.5703,-5.5703,-5.5703,-5.5703,-5.5703,-5.5703,-5.5703,-5.6319,-5.8088,-5.8319,-5.8934,-6.0627,-6.0781,-6.0781,-6.0781,-6.0781,-6.0781,-6.0781,-6.1639,-6.2474,-6.3281,-6.4128,-6.5282,-6.6744,-6.7282,-6.7859,-6.8436,-6.959,-7.0129,-7.0129,-7.0667,-7.0898]},{"header":{"parameterUnit":"m.s-1","parameterCategory":1,"la1":30.6,"la2":29.2853,"lo1":-89.7004,"lo2":-87.6739,"dy":0.0162,"dx":0.0183,"nx":112,"ny":82,"refTime":"2024-02-09T06:00:00:Z","depth":0,"parameterNumber":3,"parameterNumberName":"V-component_of_WINDS"},"data":[0.0,0.0,0.0,0.0,0.0,0.0,0.0,0.0,0.0,0.0,0.0,0.0,0.0,0.0,0.0,0.0,0.0,0.0,0.0,0.0,0.0,0.0,0.0,0.0,0.0,0.0,0.0,0.0,0.0,0.0,0.0,0.0,0.0,0.0,0.0,0.0,0.0,0.0,0.0,0.0,0.0,0.0,0.0,0.0,0.0,0.0,0.0,0.0,0.0,0.0,0.0,0.0,0.0,0.0,0.0,0.0,0.0,0.0,0.0,0.0,0.0,0.0,0.0,0.0,0.0,0.0,0.0,0.0,0.0,0.0,0.0,0.0,0.0,0.0,0.0,0.0,0.0,0.0,0.0,0.0,0.0,0.0,0.0,0.0,0.0,0.0,0.0,0.0,0.0,0.0,0.8825,1.0553,1.1801,1.24,1.2057,1.1869,1.0815,0.864,0.0,0.0,0.0,0.0,0.0,0.0,0.0,0.0,0.0,0.0,0.0,0.0,0.0,0.0,0.0,0.0,0.0,0.0,0.0,0.0,0.0,0.0,0.0,0.0,0.0,0.0,0.0,0.0,0.0,0.0,0.0,0.0,0.0,0.0,0.0,0.0,0.0,0.0,0.0,0.0,0.0,0.0,0.0,0.0,0.0,0.0,0.0,0.0,0.0,0.0,0.0,0.0,0.0,0.0,0.0,0.0,0.0,0.0,0.0,0.0,0.0,0.0,0.0,0.0,0.0,0.0,0.0,0.0,0.0,0.0,0.0,0.0,0.0,0.0,0.0,0.0,0.0,0.0,0.0,0.0,0.0,0.0,0.0,0.0,0.0,0.0,0.0,0.0,0.0,0.0,0.0,0.0,0.0,0.0,0.0,0.0,0.0,0.0,0.0,0.0,0.0,0.0,0.0,0.0,0.934,1.279,1.4378,1.4746,1.3682,1.3194,1.1801,0.9173,0.0,0.0,0.0,0.0,0.0,0.0,0.0,0.0,0.0,0.0,0.0,0.0,0.0,0.0,0.0,0.0,0.0,0.0,0.0,0.0,0.0,0.0,0.0,0.0,0.0,0.0,0.0,0.0,0.0,0.0,0.0,0.0,0.0,0.0,0.0,0.0,0.0,0.0,0.0,0.0,0.0,0.0,0.0,0.0,0.0,0.0,0.0,0.0,0.0,0.0,0.0,0.0,0.0,0.0,0.0,0.0,0.0,0.0,0.0,0.0,0.0,0.0,0.0,0.0,0.0,0.0,0.0,0.0,0.0,0.0,0.0,0.0,0.0,0.0,0.0,0.0,0.0,0.0,0.0,0.0,0.0,0.0,0.0,0.0,0.0,0.0,0.0,0.0,0.0,0.0,0.0,0.0,0.0,0.0,0.0,0.0,0.0,0.0,0.0,0.0,0.0,0.0,0.0,1.0198,1.2011,1.4583,1.5408,1.5581,1.4997,1.389,1.2248,1.005,0.8751,0.0,0.0,0.0,0.0,0.0,0.0,0.0,0.0,0.0,0.0,0.0,0.0,0.0,0.0,0.0,0.0,0.0,0.0,0.0,0.0,0.0,0.0,0.0,0.0,0.0,0.0,0.0,0.0,0.0,0.0,0.0,0.0,0.0,0.0,0.0,0.0,0.0,0.0,0.0,0.0,0.0,0.0,0.0,0.0,0.0,0.0,0.0,0.0,0.0,0.0,0.0,0.0,0.0,0.0,0.0,0.0,0.0,0.0,0.0,0.0,0.0,0.0,0.0,0.0,0.0,0.0,0.0,0.0,0.0,0.0,0.0,0.0,0.0,0.0,0.0,0.0,0.0,0.0,0.0,0.0,0.0,0.0,0.0,0.0,0.0,0.0,0.0,0.0,0.0,0.0,0.0,0.0,0.0,0.0,0.0,0.0,0.0,0.0,0.0,0.0,0.0,0.0,1.2362,1.4004,1.5638,1.5784,1.5784,1.5784,1.433,1.2624,1.0776,0.9116,0.0,0.0,0.0,0.0,0.0,0.0,0.0,0.0,0.0,0.0,0.0,0.0,0.0,0.0,0.0,0.0,0.0,0.0,0.0,0.0,0.0,0.0,0.0,0.0,0.0,0.0,0.0,0.0,0.0,0.0,0.0,0.0,0.0,0.0,0.0,0.0,0.0,0.0,0.0,0.0,0.0,0.0,0.0,0.0,0.0,0.0,0.0,0.0,0.0,0.0,0.0,0.0,0.0,0.0,0.0,0.0,0.0,0.0,0.0,0.0,0.0,0.0,0.0,0.0,0.0,0.0,0.0,0.0,0.0,0.0,0.0,0.0,0.0,0.0,0.0,0.0,0.0,0.0,0.0,0.0,0.0,0.0,0.0,0.0,0.0,0.0,0.0,0.0,0.0,0.0,0.0,0.0,0.0,0.0,0.0,0.0,0.0,0.0,0.0,0.0,0.0,0.0,1.1878,1.3607,1.5583,1.5784,1.5784,1.5784,1.4701,1.3134,1.0939,0.9514,0.0,0.0,0.0,0.0,0.0,0.0,0.0,0.0,0.0,0.0,0.0,0.0,0.0,0.0,0.0,0.0,0.0,0.0,0.0,0.0,0.0,0.0,0.0,0.0,0.0,0.0,0.0,0.0,0.0,0.0,0.0,0.0,0.0,0.0,0.0,0.0,0.0,0.0,0.0,0.0,0.0,0.0,0.0,0.0,0.0,0.0,0.0,0.0,0.0,0.0,0.0,0.0,0.0,0.0,0.0,0.0,0.0,0.0,0.0,0.0,0.0,0.0,0.0,0.0,0.0,0.0,0.0,0.0,0.0,0.0,0.0,0.0,0.0,0.0,0.0,0.0,0.0,0.0,0.0,0.0,0.0,0.0,0.0,0.0,0.0,0.0,0.0,0.0,0.0,0.0,0.0,0.0,0.0,0.0,0.0,0.0,0.0,0.0,0.0,0.0,0.0,0.0,1.2675,1.4159,0.0,1.5784,1.5784,1.5784,1.427,1.2547,1.0808,0.0,0.0,0.0,0.0,0.0,0.0,0.0,0.0,0.0,0.0,0.0,0.0,0.0,0.0,0.0,0.0,0.0,0.0,0.0,0.0,0.0,0.0,0.0,0.0,0.0,0.0,0.0,0.0,0.0,0.0,0.0,0.0,0.0,0.0,0.0,0.0,0.0,0.0,0.0,0.0,0.0,0.0,0.0,0.0,0.0,0.0,0.0,0.0,0.0,0.0,0.0,0.0,0.0,0.0,0.0,0.0,0.0,0.0,0.0,0.0,0.0,0.0,0.0,0.0,0.0,0.0,0.0,0.0,0.0,0.0,0.0,0.0,0.0,0.0,0.0,0.0,0.0,0.0,0.0,0.0,0.0,0.0,0.0,0.0,0.0,0.0,0.0,0.0,0.0,0.0,0.0,0.0,0.0,0.0,0.0,0.0,0.0,0.0,0.0,0.0,0.0,0.0,1.1591,1.3021,1.4338,0.0,1.5784,1.5792,1.5698,1.3989,1.2224,1.057,0.0,0.0,0.0,0.0,0.0,0.0,0.0,0.0,0.0,0.0,0.0,0.0,0.0,0.0,0.0,0.0,0.0,0.0,0.0,0.0,0.0,0.0,0.0,0.0,0.0,0.0,0.0,0.0,0.0,0.0,0.0,0.0,0.0,0.0,0.0,0.0,0.0,0.0,0.0,0.0,0.0,0.0,0.0,0.0,0.0,0.0,0.0,0.0,0.0,0.0,0.0,0.0,0.0,0.0,0.0,0.0,0.0,0.0,0.0,0.0,0.0,0.0,0.0,0.0,0.0,0.0,0.0,0.0,0.0,0.0,0.0,0.0,0.0,0.0,0.0,0.0,0.0,0.0,0.0,0.0,0.0,0.0,0.0,0.0,0.0,0.0,0.0,0.0,0.0,0.0,0.0,0.0,0.0,0.0,0.0,0.0,0.0,0.0,0.0,0.0,0.0,0.0,1.1639,1.2702,1.3872,1.5623,1.5784,1.5712,1.5418,1.4055,1.2359,0.0,0.0,0.0,0.0,0.0,0.0,0.0,0.0,0.0,0.0,0.0,0.0,0.0,0.0,0.0,0.0,0.0,0.0,0.0,0.0,0.0,0.0,0.0,0.0,0.0,0.0,0.0,0.0,0.0,0.0,0.0,0.0,0.0,0.0,0.0,0.0,0.0,0.0,0.0,0.0,0.0,0.0,0.0,0.0,0.0,0.0,0.0,0.0,0.0,0.0,0.0,0.0,0.0,0.0,0.0,0.0,0.0,0.0,0.0,0.0,0.0,0.0,0.0,0.0,0.0,0.0,0.0,0.0,0.0,0.0,0.0,0.0,0.0,0.0,0.0,0.0,0.0,0.0,0.0,0.0,0.0,0.0,0.0,0.0,0.0,0.0,0.0,0.0,0.0,0.0,0.0,0.0,0.0,0.0,0.0,0.0,0.0,0.0,0.0,0.0,0.0,0.0,0.0,1.2595,1.3788,1.4813,1.5718,1.5784,1.5712,1.5418,1.4242,1.2801,1.1218,0.0,0.0,0.0,0.0,0.0,0.0,0.0,0.0,0.0,0.0,0.0,0.0,0.0,0.0,0.0,0.0,0.0,0.0,0.0,0.0,0.0,0.0,0.0,0.0,0.0,0.0,0.0,0.0,0.0,0.0,0.0,0.0,0.0,0.0,0.0,0.0,0.0,0.0,0.0,0.0,0.0,0.0,0.0,0.0,0.0,0.0,0.0,0.0,0.0,0.0,0.0,0.0,0.0,0.0,0.0,0.0,0.0,0.0,0.0,0.0,0.0,0.0,0.0,0.0,0.0,0.0,0.0,0.0,0.0,0.0,0.0,0.0,0.0,0.0,0.0,0.0,0.0,0.0,0.0,0.0,0.0,0.0,0.0,0.0,0.0,0.0,0.0,0.0,0.0,0.0,0.0,0.0,0.0,0.0,0.0,0.0,0.0,0.0,0.0,0.0,0.0,0.0,1.3014,1.4242,1.519,1.5718,1.5678,1.5538,1.5244,1.4028,1.2726,1.1371,0.0,0.0,0.0,0.0,0.0,0.0,0.0,0.0,0.0,0.0,0.0,0.0,0.0,0.0,0.0,0.0,0.0,0.0,0.0,0.0,0.0,0.0,0.0,0.0,0.0,0.0,0.0,0.0,0.0,0.0,0.0,0.0,0.0,0.0,0.0,0.0,0.0,0.0,0.0,0.0,0.0,0.0,0.0,0.0,0.0,0.0,0.0,0.0,0.0,0.0,0.0,0.0,0.0,0.0,0.0,0.0,0.0,0.0,0.0,0.0,0.0,0.0,0.0,0.0,0.0,0.0,0.0,0.0,0.0,0.0,0.0,0.0,0.0,0.0,0.0,0.0,0.0,0.0,0.0,0.0,0.0,0.0,0.0,0.0,0.0,0.0,0.0,0.0,0.0,0.0,0.0,0.0,0.0,0.0,0.0,0.0,0.0,0.0,0.0,0.0,0.0,0.0,1.3133,1.4255,1.519,1.5718,1.5565,1.5284,1.5035,1.3668,1.2348,1.1192,0.0,0.0,0.0,0.0,0.0,0.0,0.0,0.0,0.0,0.0,0.0,0.0,0.0,0.0,0.0,0.0,0.0,0.0,0.0,0.0,0.0,0.0,0.0,0.0,0.0,0.0,0.0,0.0,0.0,0.0,0.0,0.0,0.0,0.0,0.0,0.0,0.0,0.0,0.0,0.0,0.0,0.0,0.0,0.0,0.0,0.0,0.0,0.0,0.0,0.0,0.0,0.0,0.0,0.0,0.0,0.0,0.0,0.0,0.0,0.0,0.8014,0.0,0.0,0.0,0.0,0.0,0.0,0.0,0.0,0.0,0.0,0.0,0.0,0.0,0.0,0.0,0.0,0.0,0.0,0.0,0.0,0.0,0.0,0.0,0.0,0.0,0.0,0.0,0.0,0.0,0.0,0.0,0.0,0.0,0.0,0.0,0.0,0.0,0.0,0.0,0.0,0.0,1.3387,1.4376,1.519,1.5718,1.5565,1.5284,1.5035,1.3828,1.2802,1.2072,1.0516,0.0,0.0,0.0,0.0,0.0,0.0,0.0,0.0,0.0,0.0,0.0,0.0,0.0,0.0,0.0,0.0,0.0,0.0,0.0,0.0,0.0,0.0,0.0,0.0,0.0,0.0,0.0,0.0,0.0,0.0,0.0,0.0,0.0,0.0,0.0,0.0,0.0,0.0,0.0,0.0,0.0,0.0,0.0,0.0,0.0,0.0,0.0,0.0,0.0,0.0,0.0,0.0,0.0,0.0,0.0,0.0,0.0,0.0,0.0,0.0,0.906,0.0,0.0,0.0,0.0,0.0,0.0,0.0,0.0,0.0,0.0,0.0,0.0,0.0,0.0,0.0,0.0,0.0,0.0,0.0,0.0,0.0,0.0,0.0,0.0,0.0,0.0,0.0,0.0,0.0,0.0,0.0,0.0,0.0,0.0,0.0,0.0,0.0,0.0,0.0,0.0,1.3493,1.4416,1.519,1.5718,1.5444,1.5169,1.5022,1.3789,1.2891,1.2569,1.114,0.0,0.0,0.0,0.0,0.0,0.0,0.0,0.0,0.0,0.0,0.0,0.0,0.0,0.0,0.0,0.0,0.0,0.0,0.0,0.0,0.0,0.0,0.0,0.0,0.0,0.0,0.0,0.0,0.0,0.0,0.0,0.0,0.0,0.0,0.0,0.0,0.0,0.0,0.0,0.0,0.0,0.0,0.0,0.0,0.0,0.0,0.0,0.0,0.0,0.0,0.0,0.0,0.0,1.2064,1.2358,1.2532,1.2585,1.2746,1.2971,1.1957,1.0998,1.0149,1.0031,0.0,0.0,0.0,0.0,0.0,0.0,0.0,0.0,0.0,0.0,0.0,0.0,0.0,0.0,0.0,0.0,0.0,0.0,0.0,0.0,0.0,0.0,0.0,0.0,1.0924,1.0575,0.9063,0.0,0.0,0.0,0.0,0.0,0.0,0.0,0.0,0.0,0.0,0.0,1.3573,1.4496,1.5244,1.5765,1.5311,1.5008,1.5008,1.3735,1.2891,1.2797,1.1819,1.0841,0.0,0.0,0.0,0.0,0.0,0.0,0.0,0.0,0.0,0.0,0.0,0.0,0.0,0.0,0.0,0.0,0.0,0.0,0.0,0.0,0.0,0.0,0.0,0.0,0.0,0.0,0.0,0.0,0.0,0.0,0.0,0.0,0.9715,0.9421,0.0,0.0,0.0,0.0,0.0,0.0,0.0,0.0,0.0,0.0,0.0,0.0,0.0,1.136,1.2011,1.2612,1.2799,1.2623,1.344,1.3681,1.344,1.3734,1.3868,1.3908,1.3748,0.0,1.191,1.1396,0.0,0.0,0.0,0.0,0.0,0.0,0.0,0.0,0.0,0.0,0.0,0.0,0.0,0.0,0.0,0.0,0.0,0.0,0.0,0.0,0.0,0.0,1.2446,1.2157,1.2289,1.2381,0.0,1.0739,1.0005,1.052,1.0725,0.0,0.0,0.0,0.0,0.0,0.0,0.0,1.3948,1.479,1.5471,1.5792,1.5311,1.5008,1.5008,1.4082,1.3307,1.2811,1.2395,1.1748,1.0857,1.0273,0.0,0.0,0.0,0.0,0.0,0.0,0.0,0.0,0.0,0.0,0.0,0.0,0.0,0.0,0.0,0.0,0.0,0.0,0.0,0.0,0.0,0.0,0.0,0.0,0.0,0.0,0.0,0.0,0.0,1.0083,1.0007,0.9726,0.9715,0.9512,0.0,0.0,0.0,0.0,0.0,0.0,0.0,0.0,0.0,1.2144,1.2331,1.2587,1.3014,1.3641,1.3961,1.4043,1.4606,1.4843,1.4825,1.5003,1.507,1.5057,1.4897,1.4429,1.3721,1.2812,1.2158,1.1668,0.0,0.0,0.0,0.0,1.0842,1.1695,1.1381,1.1292,1.1404,1.1784,0.0,0.0,0.0,0.0,0.0,0.0,0.0,0.0,0.0,0.0,1.3548,1.3534,1.3654,1.3707,1.3574,1.2765,1.194,0.0,1.161,1.1623,1.1289,0.0,0.0,0.0,0.0,1.348,1.4229,1.495,1.5511,1.5744,1.5458,1.5137,1.5022,1.4309,1.3707,1.328,1.2652,1.2131,1.1744,1.0684,0.9835,0.0,0.0,0.0,0.0,0.0,0.0,0.0,0.0,0.0,0.0,0.0,0.0,0.0,0.0,0.0,0.0,0.0,0.0,0.0,0.0,0.0,0.0,0.0,0.0,0.0,0.0,0.0,0.0,1.018,1.01,0.9755,1.005,1.0007,0.0,0.0,0.0,0.0,0.0,0.0,1.1815,1.2158,1.2665,1.344,1.3654,1.3988,1.4386,1.4856,1.519,1.5464,1.5631,1.5845,1.6046,1.5979,1.5939,1.5925,1.5631,1.5337,1.5035,1.3895,1.312,1.2612,1.2331,1.2385,1.2612,1.2318,1.2398,1.2665,1.2851,1.2623,1.2301,1.2559,1.2268,1.1842,1.1842,0.0,0.0,0.0,0.0,1.3092,1.336,1.3814,1.4269,1.4563,1.4629,1.4629,1.4629,1.4295,1.3627,0.0,1.2385,1.2371,1.185,0.0,0.0,0.0,0.0,1.3895,1.4549,1.515,1.5591,1.5758,1.5565,1.5311,1.5142,1.4536,1.4068,1.3733,1.3053,1.2545,1.2318,1.1333,1.0585,1.016,0.0,0.0,0.0,0.0,0.0,0.0,0.0,0.0,0.0,0.0,0.0,0.0,0.0,0.0,0.0,0.0,0.0,0.0,0.0,0.0,0.0,0.0,0.0,0.0,0.0,0.0,0.0,0.0,0.0,0.9782,1.0948,0.0,0.0,0.0,0.0,1.1322,1.1891,1.2478,1.3093,1.336,1.4039,1.5231,1.5284,1.5698,1.654,1.658,1.6607,1.662,1.6633,1.6647,1.6647,1.638,1.6246,1.6281,1.5939,1.5645,1.5311,1.4416,1.3854,1.3507,1.3253,1.328,1.3507,1.3253,1.328,1.3493,1.328,1.3173,1.3186,1.344,1.3333,1.312,1.312,1.2919,0.0,0.0,1.332,1.3626,1.3961,1.4269,1.4576,1.4914,1.4981,1.4981,1.4981,1.4968,1.4549,0.0,1.316,1.3066,1.277,0.0,1.3507,1.3533,1.4322,1.4941,1.4981,1.5444,1.5771,1.5784,1.5565,1.5391,1.5378,1.483,1.4376,1.4082,1.372,1.316,1.2331,1.2545,1.1951,1.0395,1.0594,0.0,0.0,0.0,0.0,0.0,0.0,0.0,0.0,0.0,0.0,0.0,0.0,0.0,0.0,0.0,0.0,0.0,0.0,0.0,0.0,0.0,0.0,0.0,0.0,0.0,0.0,0.0,0.0,1.1369,1.2171,0.0,1.2853,1.2527,1.2797,1.3966,1.3687,1.3788,1.4576,1.4897,1.5371,1.6219,1.6246,1.6393,1.67,1.67,1.67,1.67,1.67,1.67,1.67,1.6593,1.6446,1.6308,1.6166,1.5952,1.5658,1.5337,1.4923,1.4469,1.4162,1.4229,1.4456,1.4162,1.4242,1.4482,1.4376,1.4215,1.4041,1.3961,1.3854,1.3774,1.3774,1.3828,1.3908,1.4028,1.4269,1.4563,1.4856,1.5003,1.5164,1.5444,1.5524,1.5524,1.5524,1.5378,1.5124,1.4696,1.4309,1.3961,1.3695,1.3788,1.3988,1.4133,1.4643,1.5075,1.5217,1.5578,1.5784,1.5784,1.5691,1.5605,1.5404,1.503,1.4603,1.4122,1.3627,1.3133,1.265,1.2543,1.19,1.0691,1.0736,0.9809,0.0,0.0,0.0,0.0,0.0,0.0,0.0,0.0,0.0,0.0,0.0,0.0,0.0,0.0,0.0,0.0,0.0,0.0,0.0,0.0,0.0,0.0,0.0,0.0,0.0,0.0,1.3609,1.3903,1.4585,1.5028,1.4965,1.4467,1.4524,1.5385,1.4973,1.5017,1.5792,1.6019,1.6353,1.6834,1.686,1.6901,1.7007,1.7007,1.7007,1.7007,1.7007,1.7007,1.6994,1.6901,1.6754,1.6603,1.6415,1.6166,1.5965,1.5872,1.5605,1.5244,1.5044,1.5084,1.5231,1.503,1.5084,1.5257,1.5257,1.5057,1.4776,1.4589,1.4469,1.4402,1.4496,1.4589,1.471,1.491,1.503,1.5223,1.5471,1.5538,1.5591,1.5778,1.5784,1.5784,1.5784,1.5671,1.5538,1.5538,1.515,1.4723,1.4429,1.4549,1.471,1.4803,1.507,1.5324,1.5524,1.5712,1.5784,1.5784,1.5784,1.5712,1.5418,1.5217,1.4861,1.4135,1.3627,1.3133,1.265,1.2543,1.19,1.0703,1.0103,0.914,0.7778,0.0,0.0,0.0,0.0,0.0,0.0,0.0,0.0,0.0,0.0,0.0,0.0,0.0,0.0,0.0,0.0,0.0,0.0,0.0,0.0,0.0,0.0,0.0,1.3548,1.533,1.686,1.7139,1.8067,1.7933,1.6043,1.6472,1.6476,1.5635,1.5792,1.6161,1.6737,1.6764,1.6911,1.7206,1.7219,1.7353,1.7582,1.7582,1.7582,1.7582,1.7582,1.7582,1.7569,1.734,1.7206,1.7166,1.6589,1.6335,1.6246,1.5952,1.5784,1.5784,1.5784,1.5784,1.5784,1.5784,1.5784,1.5784,1.5784,1.5645,1.5404,1.5404,1.5217,1.5089,1.5324,1.5217,1.511,1.5671,1.5631,1.5471,1.5704,1.5784,1.5784,1.5784,1.5784,1.5784,1.5784,1.5784,1.5784,1.5784,1.5605,1.5324,1.5089,1.5458,1.5691,1.5444,1.5645,0.0,1.5784,1.5784,1.5784,1.5784,1.5784,1.5712,1.5418,1.5378,1.5003,1.4122,1.3746,1.3187,1.2294,1.2572,1.1965,1.0359,0.8618,0.7748,0.7748,0.0,0.0,0.0,0.0,0.0,0.0,0.0,0.0,0.0,0.0,0.0,0.0,0.0,0.0,0.0,0.0,0.0,0.0,0.0,0.0,0.0,1.628,1.788,1.6288,1.7309,1.8431,1.8928,1.9686,1.9953,1.9333,1.8597,1.8466,1.913,1.8375,1.8076,1.8498,1.8513,1.8215,1.7501,1.7514,1.7554,1.7582,1.7582,1.7582,1.7582,1.7582,1.7582,1.7582,1.7502,1.7393,1.7179,1.6754,1.6473,1.6246,1.5952,1.5784,1.5784,1.5784,1.5784,1.5784,1.5784,1.5784,1.5784,1.5784,1.5731,1.5712,1.5712,1.5658,1.5605,1.5685,1.5658,1.5618,1.5744,1.5765,1.5725,1.5758,1.5784,1.5784,1.5784,1.5784,1.5784,1.5784,1.5784,1.5784,1.5784,1.5718,1.5685,1.5605,1.5678,1.5758,1.5725,1.5731,0.0,1.5784,1.5784,1.5784,1.5784,1.5784,1.5712,1.5418,1.5003,1.4482,1.3773,1.328,1.2466,1.1254,1.1315,1.0455,0.8562,0.7341,0.6776,0.0,0.0,0.0,0.0,0.0,0.0,0.0,0.0,0.0,0.0,0.0,0.0,0.0,0.0,0.0,0.0,0.0,0.0,0.0,0.0,0.0,0.0,1.8561,2.0504,1.9775,2.0244,2.0757,2.1055,2.1796,2.1692,2.015,2.0232,2.0249,2.0019,1.9345,1.905,1.9328,1.8927,1.8422,1.7769,1.7769,1.7836,1.7956,1.7716,1.7649,1.7769,1.7649,1.7582,1.7582,1.7582,1.7488,1.7353,1.6887,1.6607,1.6433,1.6139,1.6019,0.0,0.0,0.0,0.0,0.0,1.5784,1.5784,1.5784,1.5784,1.5784,1.5784,1.5784,1.5784,1.5784,1.5784,1.5784,1.5784,1.5784,1.5784,1.5784,1.5784,1.5784,1.5784,1.5784,1.5784,1.5784,1.5784,1.5784,1.5784,1.5784,0.0,1.5784,1.5784,1.5784,1.5784,1.5784,1.5784,1.5784,1.5784,1.5784,1.5784,1.5784,1.5712,1.5418,1.5084,0.0,0.0,0.0,1.1684,1.0244,0.9638,0.0,0.0,0.0,0.6463,0.6566,0.0,0.0,0.0,0.6756,0.6878,0.0,0.0,0.0,0.0,0.0,0.0,0.0,0.0,0.0,0.0,0.0,0.0,0.0,0.0,0.0,0.0,2.0669,2.2363,2.3364,2.3501,2.3441,2.3341,2.3909,2.3169,2.0065,2.1292,2.1516,1.9633,1.9345,1.9328,1.9612,0.0,0.0,0.0,0.0,1.8102,1.8384,1.7889,1.7756,1.7942,1.7716,1.7582,1.7582,1.7582,1.7582,1.7555,1.6994,1.674,1.6687,1.6393,1.6308,1.6206,1.5965,1.5885,1.5872,1.5798,1.5784,1.5784,1.5784,0.0,0.0,1.5784,1.5784,1.5784,1.5784,1.5784,1.5784,1.5784,1.5784,1.5784,1.5784,1.5784,1.5784,1.5784,1.5784,1.5784,1.5784,1.5784,1.5784,1.5784,1.5784,1.5784,1.5784,1.5784,1.5784,1.5784,1.5784,1.5784,1.5784,1.5784,1.5784,1.5784,0.0,0.0,1.5418,1.5337,1.4754,1.3541,1.2111,1.066,0.9239,0.7932,0.7543,0.8188,0.7086,0.658,0.6749,0.6842,0.693,0.6957,0.6923,0.6984,0.0,0.0,0.0,0.0,0.0,0.0,0.0,0.0,0.0,0.0,0.0,0.0,0.0,0.0,0.0,1.9983,2.1697,2.3393,2.4972,2.5234,2.5236,2.5179,2.4554,2.3953,2.3368,2.1667,2.0782,2.1156,2.0138,1.9568,1.9627,1.939,1.8807,1.7728,1.7916,1.7956,1.7756,1.7889,1.7862,1.7675,0.0,0.0,1.7582,1.7582,1.7582,1.7569,1.7259,1.6927,1.6687,1.6393,1.6126,1.5939,1.6112,1.6192,1.6152,1.5912,1.5784,1.5784,1.5784,1.5784,1.5784,1.5784,1.5784,1.5784,1.5784,1.5784,0.0,1.5784,1.5784,1.5784,1.5784,1.5784,1.5784,1.5784,1.5784,1.5784,1.5784,1.5784,1.5784,1.5784,1.5784,1.5784,1.5784,1.5784,1.5784,1.5784,1.5784,1.5784,1.5784,1.5784,1.5784,1.5784,1.5784,1.5712,1.5418,1.4963,1.4078,1.2626,1.0254,0.8742,0.8429,0.7384,0.6893,0.7026,0.6792,0.679,0.7011,0.7045,0.7179,0.7461,0.7173,0.7183,0.0,0.0,0.0,0.0,0.0,0.0,0.0,0.0,0.0,0.0,0.0,1.6927,1.8155,0.0,2.0535,2.1983,2.3442,2.4699,2.5577,2.6064,2.6118,2.5428,2.5464,2.4739,2.2731,2.2468,2.2087,2.1176,2.0423,1.9993,1.9882,1.9463,1.8876,1.809,1.8183,1.8263,1.825,1.8062,1.7916,1.7809,1.7809,1.7729,1.7582,1.7582,1.7582,1.7569,1.7326,1.7112,1.6914,1.6817,1.6714,1.67,1.6764,1.6576,1.6233,1.5939,1.5925,1.6032,1.5885,1.5784,1.5784,1.5784,1.5784,1.5784,1.5784,1.5784,1.5784,1.5784,1.5784,1.5784,1.5784,1.5784,1.5784,1.5784,1.5784,1.5784,1.5784,1.5784,1.5784,1.5784,1.5784,1.5784,1.5784,1.5784,1.5784,1.5784,1.5784,1.5784,1.5784,1.5784,1.5784,1.5784,1.5784,1.5765,1.5618,1.4385,1.279,1.0712,0.9076,0.7959,0.7473,0.6985,0.6736,0.681,0.6817,0.6959,0.7258,0.7258,0.7373,0.7597,0.7441,0.7414,0.0,0.0,0.0,0.0,0.0,0.0,0.0,1.7148,1.7545,1.834,1.8906,1.9689,2.1171,2.1914,2.2676,2.3965,2.5059,2.5752,2.5908,2.666,2.6596,2.5243,2.5782,2.5034,2.1935,2.2848,2.2761,2.0668,2.0233,2.0022,1.9813,1.9168,1.8704,1.841,1.8517,1.8637,1.8701,1.8288,1.8049,1.7995,1.7929,1.7822,1.7582,1.7582,1.7582,1.7569,1.7326,1.7206,1.7192,1.7139,1.7259,1.7395,1.7206,1.6817,1.6326,1.6019,1.6072,1.6233,1.5939,1.5784,1.5784,1.5784,1.5784,1.5784,1.5784,1.5784,1.5784,1.5784,1.5784,1.5784,1.5784,1.5784,1.5784,1.5784,1.5784,1.5784,1.5784,1.5784,1.5784,1.5784,1.5784,1.5784,1.5784,1.5784,1.5784,1.5784,1.5784,1.5784,1.5784,1.5784,1.5784,1.5784,1.5784,1.5663,1.536,1.3409,1.1282,0.9093,0.8384,0.7659,0.6873,0.6803,0.6858,0.7014,0.7014,0.7163,0.7455,0.7455,0.7536,0.7685,0.7685,0.7665,1.8086,1.7389,1.6999,1.7637,1.7832,1.8262,0.0,1.9805,1.9687,2.0214,2.0937,2.1699,2.2266,2.3027,2.4004,2.5265,2.5596,2.5947,2.6758,2.7285,2.7036,2.5556,2.4309,2.3931,2.4774,2.164,1.9793,2.0466,1.9387,1.8685,1.8658,1.8615,1.841,1.8049,1.8597,1.8582,1.8089,1.8343,1.8303,1.7995,1.7769,1.7609,1.7582,1.7582,1.7582,1.7569,1.7326,1.7206,1.7179,1.686,1.678,1.6807,1.6767,1.6714,1.662,1.6326,1.6295,1.6233,1.5939,1.5784,1.5784,1.5784,1.5784,1.5784,1.5784,1.5784,1.5784,1.5784,1.5784,1.5784,1.5784,1.5784,1.5784,1.5784,1.5784,1.5784,1.5784,1.5784,1.5784,1.5784,1.5784,1.5784,1.5784,1.5784,1.5784,1.5784,1.5784,1.5784,1.5784,1.5784,1.5784,1.5784,1.5784,1.524,1.379,1.1519,0.99,0.9292,0.8155,0.7427,0.7344,0.7163,0.7163,0.7319,0.7319,0.7468,0.776,0.776,0.7841,0.7941,0.7941,0.7867,1.8867,1.8496,1.8242,1.8305,1.8715,1.9297,2.0019,2.0234,2.0566,2.1504,2.2187,2.2891,2.3828,2.4297,2.4805,0.0,2.6103,2.628,2.5788,2.6181,2.5894,2.4432,2.2771,2.215,2.31,2.1545,2.0288,1.9878,1.9326,1.8931,1.8744,1.8905,1.8865,1.8515,1.8798,1.8811,1.8502,1.8677,1.8597,1.8303,1.817,1.8023,1.7849,1.7662,1.7582,1.7569,1.7501,1.7447,1.7447,1.7275,1.7221,1.7194,1.7034,1.7018,1.6927,1.6633,1.6526,1.6486,1.6192,1.6086,1.6059,1.5838,1.5784,1.5784,1.5784,1.5784,1.5784,1.5784,1.5784,1.5784,1.5784,1.5784,1.5784,1.5784,1.5784,1.5784,1.5784,1.5784,1.5784,1.5784,1.5784,1.5784,1.5784,1.5784,1.5784,1.5784,1.5784,1.5784,1.5784,1.5784,1.5534,1.4758,1.4698,1.3789,1.1616,1.0398,0.9395,0.8475,0.7865,0.7502,0.7502,0.7441,0.7434,0.7502,0.7502,0.7604,0.7814,0.7814,0.7889,0.7988,0.7988,0.7955,1.9146,1.9199,1.9277,1.918,1.9902,2.0664,2.0781,2.123,2.1894,2.2852,2.3379,2.3965,2.4949,2.5176,2.543,2.5947,2.6249,2.605,2.4977,2.4933,2.4364,2.2559,2.131,2.0634,2.071,2.0785,2.0444,1.9475,1.9292,1.9185,1.9052,1.9172,1.9145,1.8931,1.8998,1.8998,1.8918,1.8918,1.8784,1.849,1.841,1.821,1.7862,1.7689,1.7582,1.7582,1.7582,1.7582,1.7569,1.7502,1.7514,1.7435,1.7192,1.7072,1.7058,1.678,1.666,1.6553,1.6339,1.6219,1.6112,1.5899,1.5784,1.5784,1.5784,1.5784,1.5784,1.5784,1.5784,1.5784,1.5784,1.5784,1.5784,1.5784,1.5784,1.5784,1.5784,1.5784,1.5784,1.5784,1.5784,1.5784,1.5784,1.5784,1.5676,1.5343,1.5581,1.5676,1.5343,1.4949,1.4376,1.344,1.3054,1.2086,1.0141,0.9583,0.8881,0.7924,0.774,0.7658,0.7658,0.7617,0.7617,0.7658,0.7658,0.7733,0.7875,0.7875,0.788,0.7988,0.7988,0.7988,1.8485,1.8965,1.9492,2.0351,2.1484,2.2539,2.3012,2.3711,2.4316,2.4355,2.4707,2.5067,2.5106,2.543,2.5947,2.6836,2.5773,2.4925,2.4977,2.4136,2.2522,2.0,2.0046,1.9857,0.0,1.8827,1.9109,1.9403,1.9105,1.9065,1.939,1.9092,1.8931,1.8918,1.9199,1.9212,1.8931,1.8918,1.8784,1.849,1.8142,1.7903,1.7595,1.7582,1.7582,1.7582,1.7582,1.7582,1.7555,1.7326,1.7219,1.7192,1.6834,1.6727,1.6714,1.6714,1.6526,1.6335,1.6273,1.6086,1.5798,1.5784,1.5784,1.5784,1.5784,1.5784,1.5784,1.5784,1.5784,1.5784,1.5784,1.5784,1.5784,1.5784,1.5784,1.5784,1.5784,1.5784,1.5784,1.5784,1.5784,1.5784,1.5784,1.5784,1.5391,1.4124,1.4997,1.5343,1.4124,1.2813,1.1999,1.195,1.0877,1.01,1.0002,0.8817,0.8031,0.7982,0.7889,0.7801,0.7801,0.7672,0.7665,0.7801,0.7801,0.7882,0.7982,0.7982,0.7982,0.7988,0.7988,0.7988,1.8848,2.0019,2.1152,2.1719,2.2617,2.3477,2.3906,2.4219,2.4414,2.4414,2.3561,2.2847,2.2847,2.2318,2.1995,2.2464,2.2872,2.2804,2.1861,2.1685,2.0749,1.8545,1.8387,0.0,0.0,0.0,0.0,1.9319,1.9092,1.9052,1.9359,1.9092,1.9011,1.9212,1.8931,1.8824,1.8918,1.8731,1.8584,1.849,1.8129,1.7876,1.7582,1.7582,1.7582,1.7582,1.7582,1.7582,1.7569,1.7475,1.7487,1.746,1.7166,1.7058,1.7058,1.7058,1.6737,1.6321,1.6321,1.6206,1.6086,1.5885,1.5784,1.5784,1.5784,1.5784,1.5784,1.5784,1.5784,1.5784,1.5784,1.5784,1.5784,1.5784,1.5784,1.5784,1.5784,1.5784,1.5784,1.5784,1.5784,1.5784,1.5784,1.5784,1.5391,1.4076,1.3488,1.3392,1.3824,1.2716,1.156,1.073,1.0239,0.9657,0.8726,0.8237,0.7988,0.7988,0.7941,0.7914,0.7914,0.7867,0.7867,0.7914,0.7914,0.7941,0.7988,0.7988,0.7988,0.7988,0.7988,0.7988,2.0024,2.1367,2.248,2.3047,2.373,2.4316,2.459,2.4648,2.4648,2.4648,2.3104,2.1695,2.1695,2.0659,1.9867,2.0193,2.0589,2.0664,2.0054,1.9661,1.8982,1.7767,1.7582,1.7582,0.0,0.0,0.0,1.8998,1.8784,1.8784,1.9185,1.8824,1.8798,1.9199,1.8744,1.8584,1.8771,1.8584,1.8437,1.833,1.8023,1.7769,1.7582,1.7582,1.7582,1.7569,1.7475,1.7474,1.7474,1.7315,1.7275,1.7235,1.7005,1.6951,1.7032,1.6924,1.6643,1.6286,1.6393,1.6366,1.6246,1.6046,1.5992,1.5992,1.5992,1.5912,1.5784,1.5784,1.5784,1.5784,1.5784,1.5784,1.5784,1.5784,1.5784,1.5784,1.5784,1.5784,1.5784,1.5784,1.5784,1.5784,1.5784,1.5057,1.4124,1.3295,1.1648,1.0965,1.2328,1.1356,1.019,0.9361,0.9262,0.8924,0.8088,0.7988,0.7988,0.7988,0.7988,0.7988,0.7988,0.7988,0.7988,0.7988,0.7988,0.7988,0.7988,0.7988,0.7988,0.7988,0.7988,0.7988,2.1893,2.2847,2.3393,2.4258,2.4766,2.5106,2.5106,2.5106,2.5019,2.4894,2.3107,2.1514,2.1415,2.0228,1.9373,1.9805,1.8941,1.86,1.9559,1.8288,1.7367,0.0,1.7622,0.0,0.0,0.0,0.0,1.8397,0.0,1.8262,1.8878,1.8315,1.8275,1.8878,1.8597,1.845,1.8464,1.845,1.8303,1.7969,1.7729,1.7582,1.7582,1.7582,1.7569,1.7542,1.7326,1.7192,1.7152,1.682,1.67,1.6673,1.6406,1.6473,1.6687,1.6406,1.6348,1.6326,1.6593,1.6486,1.6246,1.6246,1.6246,1.6246,1.6246,1.6059,1.5784,1.5798,1.5798,1.5784,1.5798,1.5798,1.5784,1.5784,1.5784,1.5784,1.5784,1.5784,1.5784,1.5784,1.5737,1.5676,1.5629,1.3499,1.1804,1.1804,0.9657,0.8478,0.9854,0.8825,0.7988,0.7988,0.7988,0.7988,0.7988,0.7988,0.7988,0.7988,0.7988,0.7988,0.7988,0.7988,0.7988,0.7988,0.7988,0.7988,0.7988,0.7988,0.7988,0.7988,0.7988,0.7988,2.2534,2.3769,2.4629,2.4844,2.5028,2.5106,2.5106,2.4805,2.4113,2.2459,2.0763,1.9042,1.7383,1.6387,1.5948,1.6493,1.7113,0.0,1.8355,1.8266,1.809,1.7889,1.813,1.8076,1.7622,1.7796,0.0,0.0,1.8156,1.8437,1.8597,1.8464,1.845,1.8597,1.809,1.7929,1.8102,1.7929,1.7769,1.7702,1.7622,1.7582,1.7582,1.7582,1.7514,1.73,1.7233,1.7072,1.6807,1.674,1.67,1.67,1.662,1.678,1.7058,1.67,1.6593,1.658,1.6433,1.6192,1.5939,1.5939,1.5939,1.5939,1.5939,1.5885,1.5872,1.6099,1.6005,1.5885,1.6099,1.5992,1.5784,1.5784,1.5784,1.5784,1.5784,1.5784,1.5784,1.5784,1.5045,1.4076,1.3065,1.1551,1.0485,1.0485,0.9065,0.8478,0.9854,0.8825,0.7988,0.7988,0.7988,0.7988,0.7988,0.7988,0.7988,0.7988,0.7988,0.7988,0.7988,0.7988,0.7988,0.7988,0.7988,0.7988,0.7988,0.7988,0.7988,0.7988,0.7988,0.7988,2.3673,2.4668,2.5371,2.5371,2.5215,2.4866,2.4105,2.3412,2.2384,2.0314,1.8566,1.6933,1.5565,1.478,1.4442,1.4763,1.5698,1.6727,1.7702,1.7876,1.8036,1.8342,1.8584,1.8504,1.8023,1.825,1.8303,0.0,1.805,1.8156,1.829,1.817,1.8156,1.829,1.7836,1.7662,1.7836,1.7662,1.7582,1.7582,1.7582,1.7582,1.7582,1.7582,1.7541,1.738,0.0,1.7032,1.67,1.67,1.6633,1.6513,1.6513,1.662,1.679,1.658,1.6433,1.6313,1.6286,1.6166,1.6046,1.6179,1.6206,1.6233,1.6366,1.6233,1.6086,1.638,1.6152,1.5899,1.6192,1.6046,1.5784,1.5784,1.5784,1.5784,1.5784,1.5784,1.5629,1.5045,1.3932,1.2619,1.1317,1.0485,0.9805,0.9213,0.8478,0.8287,0.9015,0.8478,0.7988,0.7988,0.7988,0.7988,0.7988,0.7988,0.7988,0.7988,0.7988,0.7988,0.7988,0.7988,0.7988,0.7988,0.7988,0.7988,0.7988,0.7988,0.7988,0.7988,0.7988,0.7988,2.443,2.488,2.5167,2.511,2.4775,2.3994,2.2364,2.1316,2.02,1.8311,1.6636,1.5336,1.4802,1.4332,1.4082,1.4242,1.4937,1.5979,1.7488,1.7541,1.7795,1.8851,1.8985,1.8865,1.8584,1.8771,1.8784,1.8464,1.7983,1.7822,1.8035,1.7889,1.7862,1.8049,1.7769,1.7609,1.7649,1.7609,1.7582,1.7582,1.7582,1.7582,1.7582,1.7582,1.7555,1.7515,1.7273,1.6978,1.6647,1.6607,1.646,1.6321,1.6321,1.6375,1.6429,1.6348,1.6139,1.5979,1.6192,1.6321,1.6313,1.6526,1.662,1.67,1.7005,1.6723,1.6388,1.662,1.6313,1.5952,1.6206,1.6046,1.5784,1.5784,1.5676,1.5534,1.5534,1.5391,1.4902,1.3632,1.2425,1.1219,0.9953,0.9756,0.9361,0.8187,0.7988,0.7988,0.7988,0.7988,0.7988,0.7988,0.7988,0.7988,0.7988,0.7988,0.7988,0.7988,0.7988,0.7988,0.7988,0.7988,0.7988,0.7988,0.7988,0.7988,0.7988,0.7988,0.7988,0.7988,0.7988,0.7988,2.2144,2.2365,2.2331,2.2073,2.1473,2.0771,1.999,1.9238,1.8095,1.6032,1.5534,1.5038,1.3484,1.3466,1.3999,1.5003,1.5498,1.6353,1.809,1.829,1.8517,1.9212,1.9292,1.9172,1.8878,1.8891,0.0,0.0,0.0,1.8357,1.841,1.8584,1.8611,1.8424,1.7876,1.7702,1.7916,1.7716,1.7582,1.7582,1.7582,1.7582,1.7582,1.7582,1.7501,1.7259,1.6914,0.0,1.6326,1.6086,1.6099,1.6321,1.6321,1.6616,1.6991,1.6496,1.6393,1.6526,1.6339,1.6321,1.6246,1.6046,1.6152,1.6353,1.6455,1.6402,1.6388,1.662,1.646,1.6206,1.6259,1.6046,1.5784,1.5784,1.4997,1.422,1.422,1.3343,1.2183,1.0916,1.0485,0.9903,0.8577,0.8329,0.8287,0.8038,0.7988,0.7988,0.7988,0.7988,0.7988,0.7988,0.7988,0.7988,0.7988,0.7988,0.7988,0.7988,0.7988,0.7988,0.7988,0.7988,0.7988,0.7988,0.7988,0.7988,0.7988,0.7988,0.7988,0.7988,0.7988,0.7988,2.1644,2.1693,2.1611,2.1296,2.0649,1.9681,1.8201,1.7285,1.6204,1.403,1.3873,1.379,1.275,1.3133,1.384,1.4603,1.5084,1.5939,1.7569,1.7849,1.813,1.8824,1.9038,1.9025,1.8731,1.8838,1.8811,1.8475,0.0,1.8584,1.8277,1.8544,1.8571,1.8263,1.7983,1.7822,1.7809,1.7662,1.7582,1.7582,1.7582,1.7582,1.7582,1.7582,1.7502,1.742,1.7221,0.0,1.65,1.6513,1.642,1.6286,1.6433,1.6673,1.686,1.6482,1.646,1.666,1.638,1.6522,1.6737,1.638,1.6486,1.6804,1.6914,1.674,1.6404,1.6024,1.6004,1.5928,1.5377,1.5055,1.4806,1.4806,1.3836,1.2861,1.2861,1.1843,1.073,1.01,0.954,0.8909,0.8261,0.816,0.816,0.816,0.8092,0.7988,0.7988,0.7988,0.7988,0.7988,0.7988,0.7988,0.7988,0.7988,0.7988,0.7988,0.7988,0.7988,0.7988,0.7988,0.7988,0.7988,0.7988,0.7988,0.7988,0.7988,0.7988,0.7988,0.7988,0.7988,2.0734,2.0782,2.0734,2.0355,1.9718,1.8611,1.6455,1.5494,1.4506,1.2652,1.2529,1.2623,1.2345,1.2687,1.3166,1.3623,1.4161,1.5041,1.6531,1.6998,1.7541,1.8384,1.8744,0.0,1.8691,1.8824,0.0,1.8918,0.0,0.0,1.8302,1.849,1.8504,1.8343,1.8089,1.7902,1.7782,1.7649,1.7582,1.7582,1.7582,1.7582,1.7582,1.7582,1.7582,1.7582,1.7515,0.0,0.0,1.6965,1.6817,1.6522,1.6647,1.678,1.686,1.6567,1.6656,1.6767,1.6589,1.6817,1.7166,1.6954,1.7007,1.7233,1.7341,1.7074,1.6489,1.5309,1.5245,1.5233,1.4152,1.3716,1.3471,1.318,1.2304,1.1462,1.113,1.0323,0.9615,0.9615,0.891,0.8368,0.8368,0.834,0.832,0.832,0.814,0.7988,0.7988,0.7988,0.7988,0.7988,0.7988,0.7988,0.7988,0.7988,0.7988,0.7988,0.7988,0.7988,0.7988,0.7988,0.7988,0.7988,0.7988,0.7988,0.7988,0.7988,0.7988,0.7988,0.7988,0.8008,1.7592,1.7784,1.7852,1.7278,1.6627,1.5877,1.4604,1.3831,1.3184,1.2438,1.2318,1.2331,1.2305,1.1739,1.1528,1.2343,1.2786,1.3534,1.497,1.6356,1.7541,1.8384,1.8744,0.0,1.9265,1.9065,0.0,0.0,0.0,0.0,1.9239,1.9011,1.8998,1.9239,1.8464,1.8102,1.8397,1.7862,1.7582,1.7582,1.7582,1.7582,1.7582,1.7582,1.7582,1.7569,1.7353,0.0,0.0,1.6616,1.6683,1.7099,1.6807,1.7034,1.7462,1.7233,1.7139,1.7152,1.7125,1.7152,1.7246,1.7422,1.7393,1.7152,1.686,1.6754,1.6397,1.4849,1.442,1.4126,1.2762,1.2353,1.2034,1.0833,1.044,0.9996,0.8656,0.8398,0.8452,0.8452,0.8467,0.8465,0.8465,0.8357,0.832,0.832,0.814,0.7988,0.7988,0.7988,0.7988,0.7988,0.7988,0.7988,0.7988,0.7988,0.7988,0.7988,0.7988,0.7988,0.7988,0.7988,0.7988,0.7988,0.7988,0.7988,0.7988,0.7988,0.7988,0.7988,0.7988,0.8113,1.7112,1.7286,1.7273,1.6807,1.6005,1.5097,1.4269,1.3534,1.2851,1.2385,1.1811,1.1403,1.15,1.0678,1.0233,1.093,1.1047,1.1456,1.2709,1.4148,1.5482,1.6527,1.7655,0.0,0.0,0.0,0.0,0.0,0.0,0.0,1.9417,1.9252,1.9078,1.8851,1.8504,1.8196,1.7943,1.7702,1.7582,1.7582,1.7582,1.7582,1.7582,1.7582,1.7582,1.7569,1.7514,0.0,0.0,1.6951,1.647,1.5865,1.5702,1.5323,1.4797,1.4601,1.4607,1.4636,1.4487,1.4533,1.4659,1.4717,1.4677,1.4804,1.5548,1.5544,1.4799,1.2594,1.2463,1.2911,1.2423,1.2365,1.1907,0.9721,0.9153,0.9035,0.8419,0.8357,0.8397,0.8397,0.852,0.8621,0.8621,0.8574,0.8506,0.8411,0.8269,0.8147,0.8002,0.7988,0.7988,0.7988,0.7988,0.7988,0.7988,0.7988,0.7988,0.7988,0.7988,0.7988,0.7988,0.7988,0.7988,0.7988,0.7988,0.7988,0.7988,0.7988,0.7988,0.7988,0.8133,0.8214,1.6563,1.6871,1.6991,1.6647,1.5765,1.4861,1.4229,1.3427,1.2614,1.1987,1.1279,1.0729,1.0533,0.9658,0.9134,0.9533,0.9622,0.9894,1.0798,1.2174,1.3621,1.5068,0.0,1.6471,0.0,1.7427,0.0,0.0,0.0,0.0,1.943,1.943,1.9229,1.8771,1.8584,1.833,1.7983,1.7889,1.7849,1.7849,1.7769,1.7716,1.7716,1.7622,1.7582,1.7582,1.7582,0.0,0.0,1.6575,1.5722,1.4399,1.4346,1.3814,1.3065,1.2898,1.2971,1.3034,1.275,1.2791,1.3005,1.2904,1.2863,1.2997,1.3708,1.3905,1.3456,1.1576,1.1096,1.1193,1.1304,1.1399,1.1011,0.9029,0.8547,0.8533,0.8492,0.852,0.8547,0.8547,0.8676,0.8777,0.8777,0.8743,0.8655,0.8506,0.8364,0.8214,0.8008,0.7988,0.7988,0.7988,0.7988,0.7988,0.7988,0.7988,0.7988,0.7988,0.7988,0.7988,0.7988,0.7988,0.7988,0.7988,0.7988,0.7988,0.7988,0.7988,0.8015,0.8113,0.8221,0.8316,1.5418,1.6046,1.6647,1.6353,1.5665,1.4861,1.4229,1.3427,1.2424,1.1104,1.082,1.0484,0.949,0.8709,0.8205,0.8205,0.8598,0.9057,0.9468,1.081,1.2486,0.0,0.0,1.4062,1.5893,0.0,0.0,0.0,0.0,0.0,1.943,1.943,1.9417,1.9417,1.8798,1.8624,1.8905,1.8624,1.8477,1.8477,1.8129,1.7995,1.7982,1.7716,1.7582,0.0,0.0,0.0,0.0,1.5087,1.4242,1.3026,1.2878,1.3009,1.3288,1.3055,1.3115,1.3258,1.2915,1.2904,1.3026,1.3026,1.2821,1.238,1.1292,1.1822,1.2775,1.2606,1.0731,0.8757,0.8757,0.8818,0.8893,0.8743,0.871,0.8669,0.8513,0.8601,0.871,0.871,0.8832,0.8885,0.8885,0.8811,0.8655,0.8506,0.8364,0.8214,0.8008,0.7988,0.7988,0.7988,0.7988,0.7988,0.7988,0.7988,0.7988,0.7988,0.7988,0.7988,0.7988,0.7988,0.7988,0.7988,0.7988,0.7988,0.7988,0.7988,0.8119,0.832,0.832,0.8425,1.3641,1.445,1.519,1.5097,1.3883,1.2705,1.249,1.1398,1.0296,0.9879,0.9216,0.8694,0.8437,0.766,0.7126,0.7418,0.7556,0.7782,0.8149,0.0,0.0,1.2125,1.246,1.3635,0.0,0.0,0.0,0.0,0.0,0.0,1.7806,1.7563,1.7937,1.9008,1.8878,1.8731,1.8624,1.8544,1.8384,1.8129,1.7072,1.6434,1.6196,1.5137,1.4663,0.0,0.0,0.0,0.0,1.3636,1.281,1.1702,1.146,1.0864,1.0178,1.0186,1.0092,1.0026,0.9915,0.9915,0.9886,0.982,0.9855,1.0065,1.0699,1.0993,1.1011,1.0192,1.0044,1.0007,0.905,0.9607,1.0116,0.9092,0.8811,0.8797,0.8804,0.8832,0.8811,0.8811,0.8851,0.8885,0.8885,0.8844,0.8811,0.8662,0.8601,0.8513,0.8364,0.8343,0.8343,0.8343,0.8343,0.8262,0.8008,0.7988,0.8085,0.8187,0.8099,0.8083,0.8336,0.8096,0.8092,0.8194,0.8092,0.8092,0.8201,0.8201,0.833,0.8574,0.8574,0.8676,1.1683,1.2568,1.32,1.32,1.2159,1.1129,1.1129,1.0162,0.9188,0.8808,0.8237,0.7722,0.7462,0.6954,0.6668,0.6964,0.7112,0.7312,0.7563,0.0,0.0,1.0184,0.0,0.0,0.0,0.0,0.0,0.0,0.0,0.0,1.6197,1.5876,1.6263,1.7271,1.7747,1.7957,1.7937,1.7937,1.8143,1.8488,1.6263,1.5444,1.5736,1.4123,1.3396,0.0,0.0,0.0,0.0,1.2228,1.1388,1.0194,1.0047,0.9497,0.8804,0.8838,0.8771,0.8635,0.852,0.852,0.8554,0.8465,0.8601,0.8954,0.9861,1.0375,1.0416,0.9143,0.9435,0.9946,0.9127,0.9632,1.0153,0.9113,0.8981,0.9008,0.8898,0.8885,0.8885,0.8885,0.8885,0.8885,0.8885,0.8885,0.8831,0.873,0.871,0.8655,0.8499,0.8479,0.8479,0.8479,0.8479,0.8404,0.8221,0.8208,0.8228,0.832,0.8228,0.8289,0.8472,0.8303,0.8255,0.835,0.8255,0.8255,0.8402,0.8411,0.8533,0.871,0.8771,0.8845,0.0,1.0377,1.0857,1.0857,1.046,1.0029,1.0029,0.9555,0.0,0.7893,0.7718,0.7475,0.6657,0.6614,0.677,0.6889,0.7204,0.7441,0.0,0.8024,0.0,0.0,1.0292,0.0,0.0,0.0,0.0,0.0,0.0,0.0,1.454,1.4421,1.4361,1.4242,1.5507,1.6426,1.6844,1.6844,1.756,1.8971,1.558,1.4709,1.6069,1.4071,1.322,0.0,0.0,0.0,0.0,1.087,1.0039,0.8743,0.8824,0.8885,0.8865,0.8777,0.8811,0.8824,0.8594,0.8587,0.871,0.8723,0.8825,0.8885,0.8885,0.9864,1.0672,0.9265,0.8885,0.8885,0.8898,0.9055,0.9173,0.8988,0.9062,0.9187,0.8988,0.8905,0.8912,0.8912,0.8912,0.8912,0.8898,0.8898,0.8844,0.875,0.8723,0.8676,0.8533,0.8513,0.8513,0.8513,0.8513,0.8513,0.8499,0.8486,0.8431,0.8361,0.8418,0.8492,0.8513,0.8492,0.8486,0.8499,0.8499,0.8499,0.8499,0.8655,0.8723,0.873,0.8817,0.8885,0.7118,0.0,0.9683,0.9683,0.9028,0.8371,0.0,0.7653,0.6949,0.6718,0.6734,0.6784,0.6661,0.677,0.6959,0.7224,0.0,0.7597,0.774,0.0,0.0,0.9076,0.9755,0.0,0.0,0.0,0.0,0.0,0.0,1.448,1.2868,1.2749,1.2217,1.0959,1.2406,1.3827,1.5133,1.5133,1.5274,1.5384,1.3402,1.2552,1.2621,1.0981,1.0216,0.0,0.0,0.0,0.9373,0.9409,0.9189,0.8831,0.8871,0.8885,0.8878,0.8844,0.8832,0.8757,0.8682,0.8682,0.873,0.8845,0.8851,0.8885,0.8885,0.9154,0.932,0.8989,0.8885,0.8905,0.9076,0.9187,0.92,0.9166,0.9218,0.9286,0.9137,0.9191,0.9279,0.9279,0.9279,0.9239,0.9123,0.9103,0.9055,0.8906,0.8831,0.8817,0.8838,0.8832,0.8832,0.8832,0.8832,0.8784,0.8669,0.8547,0.852,0.8601,0.8526,0.8587,0.8818,0.8608,0.8533,0.8655,0.8655,0.8655,0.8655,0.8811,0.8831,0.8831,0.8865,0.8885,0.63,0.7103,0.7957,0.7996,0.7575,0.7119,0.7196,0.673,0.63,0.63,0.6416,0.6559,0.6675,0.6824,0.7027,0.7326,0.7502,0.0,0.0,0.0,0.8859,0.9275,0.0,0.0,0.0,0.0,0.0,0.0,0.0,1.2808,1.1201,1.108,1.0717,0.9822,1.0657,1.1856,1.3467,1.3526,1.3827,1.4348,1.2056,1.1304,1.1787,1.012,0.932,0.0,0.0,0.0,0.8885,0.8885,0.8885,0.8885,0.8885,0.8885,0.8885,0.8885,0.8831,0.8818,0.8818,0.8818,0.8825,0.8858,0.8885,0.8885,0.8885,0.8988,0.9022,0.8898,0.8988,0.9055,0.9187,0.9316,0.9347,0.933,0.9374,0.9442,0.935,0.932,0.9381,0.9381,0.9381,0.9334,0.9234,0.9207,0.9103,0.8905,0.8885,0.8885,0.8885,0.8885,0.8885,0.8885,0.8885,0.8851,0.8825,0.8737,0.8696,0.871,0.8696,0.8764,0.8878,0.8777,0.873,0.8811,0.8818,0.8818,0.8818,0.8844,0.8885,0.8885,0.8885,0.8974,0.6327,0.6334,0.6354,0.6457,0.6388,0.6334,0.645,0.6388,0.6306,0.6327,0.645,0.6566,0.6763,0.6905,0.7095,0.7394,0.0,0.0,0.8499,0.8621,0.8832,0.932,0.0,0.0,0.0,0.0,0.0,0.0,0.0,1.1261,0.9883,0.9822,0.9822,0.9822,0.9822,1.0422,1.1796,1.1856,1.2517,1.3825,1.108,1.0543,1.1788,1.0263,0.9523,0.9374,0.0,0.0,0.8885,0.8885,0.8885,0.8885,0.8885,0.8885,0.8885,0.8885,0.8885,0.8885,0.8885,0.8885,0.8885,0.8885,0.8885,0.8885,0.8912,0.9055,0.9187,0.9035,0.9096,0.9248,0.9275,0.9415,0.9578,0.9449,0.953,0.9598,0.9449,0.9415,0.9422,0.9442,0.9429,0.9367,0.9268,0.9248,0.913,0.8905,0.8885,0.8885,0.8885,0.8885,0.8885,0.8885,0.8885,0.8885,0.8885,0.8885,0.8824,0.8757,0.8811,0.8885,0.8885,0.8885,0.8885,0.8885,0.8885,0.8885,0.8885,0.8885,0.8885,0.8885,0.8905,0.9035,0.645,0.6477,0.6457,0.6354,0.6313,0.6306,0.6327,0.6313,0.6334,0.6457,0.6559,0.679,0.7235,0.7285,0.74,0.7692,0.0,0.8429,0.0,0.0,0.0,0.0,0.0,0.0,0.0,0.0,0.0,0.0,0.0,1.0058,0.9822,0.9822,0.9822,0.9822,0.9822,0.9943,1.0179,1.0179,1.0301,1.0543,1.0058,0.9943,1.0172,0.9792,0.9523,0.9374,0.0,0.9069,0.8885,0.8885,0.8885,0.8885,0.8885,0.8885,0.8885,0.8885,0.8885,0.8885,0.8885,0.8885,0.8885,0.8885,0.8885,0.8905,0.9083,0.9193,0.9234,0.9279,0.9327,0.9374,0.9503,0.9571,0.9605,0.9578,0.9686,0.9747,0.9605,0.9571,0.9612,0.9727,0.9659,0.9523,0.9374,0.9347,0.9252,0.8925,0.8885,0.8885,0.8885,0.8885,0.8885,0.8885,0.8885,0.8885,0.8885,0.8885,0.8871,0.8851,0.8871,0.8885,0.8885,0.8885,0.8885,0.8885,0.8885,0.8885,0.8885,0.8885,0.8885,0.8885,0.9062,0.9187,0.6381,0.6395,0.6402,0.6409,0.6416,0.6436,0.6518,0.6477,0.6457,0.6566,0.6776,0.7,0.721,0.7448,0.7733,0.8113,0.0,0.875,0.9159,0.0,0.0,0.0,0.0,0.0,0.0,0.0,0.0,0.0,0.0,0.0,0.9822,0.9822,0.9822,0.9822,0.9822,0.9822,0.9822,0.9822,0.9822,0.9822,0.9822,0.9822,0.9822,0.9754,0.9646,0.9496,0.0,0.9191,0.9055,0.9055,0.9008,0.8892,0.9022,0.9008,0.8885,0.8885,0.8885,0.8885,0.8885,0.8885,0.8885,0.8885,0.8885,0.8967,0.9166,0.9268,0.9306,0.9462,0.9503,0.9517,0.9591,0.9666,0.9727,0.9727,0.9774,0.9802,0.9741,0.9727,0.9741,0.9808,0.9768,0.968,0.953,0.9503,0.9429,0.9211,0.9178,0.915,0.9062,0.9055,0.9022,0.8892,0.8885,0.8885,0.8885,0.8885,0.8885,0.8885,0.8885,0.8885,0.8885,0.8885,0.8885,0.8885,0.8885,0.8885,0.8885,0.9015,0.9055,0.9055,0.9205,0.932,0.634,0.6347,0.6375,0.6484,0.6491,0.6518,0.6702,0.6634,0.6586,0.681,0.7034,0.7173,0.724,0.7665,0.0,0.8472,0.8818,0.9103,0.0,0.0,0.0,0.0,0.0,0.0,0.0,0.0,0.0,0.0,0.0,0.0,0.9822,0.9822,0.9822,0.9822,0.9822,0.9822,0.9822,0.9822,0.9822,0.9822,0.9822,0.9822,0.9822,0.9822,0.9727,0.9551,0.9435,0.9273,0.9103,0.9103,0.9042,0.8892,0.9062,0.9035,0.8885,0.8885,0.8885,0.8885,0.8885,0.8885,0.8892,0.8981,0.8988,0.9022,0.9205,0.934,0.9462,0.9618,0.9659,0.9659,0.9659,0.9741,0.9822,0.9822,0.9822,0.9822,0.9822,0.9795,0.9781,0.9815,0.9795,0.9734,0.9632,0.9612,0.9557,0.9401,0.9381,0.934,0.9275,0.9262,0.915,0.9001,0.8988,0.8974,0.8885,0.8885,0.8885,0.8885,0.8885,0.8885,0.8885,0.8885,0.8885,0.8885,0.8885,0.8898,0.8988,0.9096,0.9228,0.9268,0.9361,0.9496,0.6463,0.6497,0.6497,0.6511,0.6416,0.6429,0.6817,0.6797,0.6803,0.7282,0.7385,0.7441,0.7712,0.8133,0.8492,0.8669,0.9062,0.0,0.0,0.0,0.0,0.0,0.0,0.0,0.0,0.0,0.0,0.0,0.0,0.0,0.9822,0.9822,0.9822,0.9822,0.9822,0.9822,0.9822,0.9822,0.9822,0.9822,0.9822,0.9822,0.9822,0.9822,0.9666,0.9395,0.9388,0.9218,0.8898,0.8898,0.8892,0.8885,0.8892,0.8892,0.8885,0.8885,0.8885,0.8885,0.8885,0.8885,0.8905,0.9096,0.9193,0.9248,0.949,0.9585,0.9625,0.9768,0.9802,0.9802,0.9802,0.9815,0.9822,0.9822,0.9822,0.9822,0.9822,0.972,0.9666,0.9795,0.9713,0.9618,0.9612,0.9612,0.9557,0.9401,0.9381,0.9374,0.9367,0.9367,0.9306,0.9214,0.9193,0.9083,0.8892,0.8885,0.8885,0.8885,0.8885,0.8885,0.8885,0.8885,0.8885,0.8885,0.8885,0.9008,0.9193,0.9207,0.9282,0.9367,0.9523,0.9598,0.6368,0.6443,0.6511,0.6511,0.6545,0.6607,0.6829,0.7027,0.719,0.7461,0.7733,0.7991,0.8194,0.8526,0.8811,0.896,0.9442,0.0,0.0,0.0,0.0,0.0,0.0,0.0,0.0,0.0,0.0,0.0,0.0,0.0,0.9822,0.9822,0.9822,0.9822,0.9822,0.9822,0.9822,0.9822,0.9822,0.9822,0.9822,0.9822,0.9822,0.9822,0.9761,0.9652,0.9564,0.9462,0.9347,0.9252,0.9157,0.9076,0.9076,0.9015,0.8892,0.9042,0.9015,0.8885,0.8885,0.8885,0.8905,0.9166,0.9207,0.9268,0.9517,0.9612,0.9639,0.9781,0.9822,0.9822,0.9822,0.9822,0.9822,0.9822,0.9822,0.9822,0.9822,0.9781,0.9754,0.9808,0.9774,0.9741,0.9741,0.9741,0.972,0.9659,0.9652,0.9625,0.9537,0.9523,0.9429,0.9234,0.9207,0.9228,0.9211,0.9211,0.9171,0.9076,0.8988,0.8981,0.9069,0.8988,0.9028,0.9211,0.9117,0.9144,0.935,0.9388,0.9469,0.953,0.9673,0.9741,0.6313,0.6368,0.6457,0.6504,0.662,0.6837,0.7082,0.7299,0.7529,0.7821,0.8126,0.837,0.8465,0.873,0.0,0.0,0.0,0.0,0.0,0.0,0.0,0.0,0.0,0.0,0.0,0.0,0.0,0.0,0.0,0.0,0.0,0.9822,0.9822,0.9822,0.9822,0.9822,0.9822,0.9822,0.9822,0.9822,0.9822,0.9822,0.9822,0.9822,0.9768,0.968,0.9632,0.9557,0.9456,0.9354,0.9303,0.9214,0.9262,0.9164,0.9089,0.9191,0.913,0.9015,0.9062,0.9049,0.9035,0.9232,0.9357,0.9347,0.9598,0.968,0.9693,0.9795,0.9822,0.9822,0.9822,0.9822,0.9822,0.9822,0.9822,0.9822,0.9822,0.9822,0.9822,0.9822,0.9822,0.9822,0.9822,0.9822,0.9822,0.9822,0.9822,0.9788,0.9686,0.968,0.9578,0.9327,0.9268,0.9268,0.9367,0.9381,0.934,0.9289,0.913,0.9103,0.9207,0.9103,0.9171,0.9374,0.9337,0.93,0.9456,0.9557,0.9632,0.968,0.9774,0.9822,0.634,0.6306,0.634,0.6484,0.6709,0.7004,0.7502,0.7604,0.7773,0.8364,0.8486,0.8486,0.8486,0.8737,0.0,0.9187,0.0,0.0,0.0,0.0,0.0,0.0,0.0,0.0,0.0,0.0,0.0,0.0,0.0,0.0,0.0,0.9822,0.9822,0.9822,0.9822,0.9822,0.9822,0.9822,0.9822,0.9822,0.9815,0.9815,0.9822,0.9822,0.9659,0.9395,0.9544,0.9435,0.9214,0.9214,0.9207,0.9221,0.932,0.9374,0.9374,0.9374,0.9344,0.9228,0.9327,0.9337,0.9262,0.951,0.9612,0.9639,0.9781,0.9822,0.9822,0.9822,0.9822,0.9822,0.9822,0.9822,0.9822,0.9822,0.9822,0.9822,0.9822,0.9822,0.9822,0.9822,0.9822,0.9822,0.9822,0.9822,0.9822,0.9822,0.9822,0.9822,0.9822,0.9822,0.9768,0.9625,0.934,0.9275,0.9374,0.9388,0.9388,0.9381,0.9388,0.9313,0.9221,0.93,0.9381,0.9388,0.9388,0.9456,0.9612,0.9612,0.9686,0.9822,0.9822,0.9822,0.658,0.6647,0.6742,0.6783,0.7021,0.7333,0.7672,0.7834,0.8052,0.854,0.873,0.8804,0.8804,0.9049,0.0,0.0,0.0,0.0,0.0,0.0,0.0,0.0,0.0,0.0,0.0,0.0,0.0,0.0,0.0,0.0,0.0,0.9822,0.9822,0.9822,0.9822,0.9822,0.9822,0.972,0.9673,0.9673,0.9564,0.9618,0.9815,0.972,0.968,0.9686,0.9632,0.9612,0.9605,0.9401,0.9191,0.9015,0.9164,0.9157,0.9083,0.9184,0.913,0.9022,0.9171,0.9248,0.9262,0.951,0.9612,0.9639,0.9781,0.9822,0.9822,0.9822,0.9822,0.9822,0.9822,0.9822,0.9822,0.9822,0.9822,0.9822,0.9822,0.9822,0.9822,0.9822,0.9822,0.9822,0.9822,0.9822,0.9822,0.9822,0.9734,0.9673,0.9673,0.9673,0.9693,0.9754,0.9591,0.953,0.968,0.9693,0.9646,0.9551,0.9639,0.9625,0.9483,0.9415,0.9476,0.9686,0.9591,0.9612,0.9754,0.9754,0.9781,0.9822,0.9822,0.9876,0.6715,0.677,0.6865,0.6943,0.7238,0.7584,0.8058,0.833,0.8574,0.8906,0.9049,0.9117,0.9117,0.9259,0.0,0.0,0.0,0.0,0.0,0.0,0.0,0.0,0.0,0.0,0.0,0.0,0.0,0.0,0.0,0.0,0.0,0.9734,0.9707,0.9646,0.9646,0.9646,0.9646,0.9564,0.9517,0.9517,0.949,0.953,0.9646,0.9618,0.9625,0.9639,0.9557,0.953,0.9544,0.9429,0.9239,0.9035,0.9184,0.9191,0.913,0.9279,0.9205,0.9055,0.9259,0.935,0.9344,0.953,0.9646,0.9707,0.9795,0.9822,0.9822,0.9822,0.9822,0.9822,0.9822,0.9822,0.9822,0.9822,0.9822,0.9822,0.9822,0.9822,0.9822,0.9822,0.9822,0.9822,0.9822,0.9822,0.9822,0.9822,0.9747,0.9693,0.9693,0.9646,0.9666,0.9802,0.9693,0.9666,0.9808,0.9822,0.9781,0.97,0.9774,0.9781,0.97,0.9605,0.9639,0.9815,0.9734,0.9734,0.9822,0.9822,0.9849,0.9849,0.9849,0.9992,0.6797,0.6763,0.6831,0.7085,0.7441,0.7862,0.8574,0.8947,0.9248,0.9334,0.9395,0.9415,0.9401,0.9415,0.9469,0.0,0.0,0.0,0.0,0.0,0.0,0.0,0.0,0.0,0.0,0.0,0.0,0.0,0.0,0.0,0.0,0.9591,0.9523,0.9388,0.9381,0.9381,0.9381,0.9367,0.9361,0.9361,0.949,0.9476,0.9347,0.951,0.9503,0.9361,0.9374,0.935,0.9221,0.9357,0.9273,0.9207,0.9286,0.934,0.9361,0.9496,0.9374,0.9234,0.9469,0.949,0.9408,0.9557,0.9707,0.9822,0.9822,0.9822,0.9822,0.9822,0.9822,0.9822,0.9822,0.9822,0.9822,0.9822,0.9822,0.9822,0.9822,0.9822,0.9822,0.9822,0.9822,0.9822,0.9822,0.9822,0.9815,0.9802,0.9815,0.9815,0.9802,0.97,0.968,0.9808,0.9707,0.968,0.9808,0.9822,0.9822,0.9822,0.9822,0.9822,0.9822,0.9822,0.9822,0.9822,0.9822,0.9822,0.9822,0.9836,0.9856,0.9984,1.0004,1.0154,0.7204,0.7269,0.7299,0.759,0.7984,0.8397,0.8798,0.9028,0.9221,0.9255,0.9483,0.9693,0.9585,0.9652,0.0,0.0,0.0,0.0,0.0,0.0,0.0,0.0,0.0,0.0,0.0,0.0,0.0,0.0,0.0,0.0,0.9435,0.9429,0.9415,0.9381,0.9381,0.9381,0.9381,0.9316,0.9262,0.0,0.9123,0.9013,0.9042,0.9306,0.9347,0.9268,0.9327,0.935,0.9214,0.9248,0.9117,0.8988,0.9022,0.9035,0.9035,0.9013,0.9042,0.9008,0.9191,0.9306,0.9408,0.9557,0.9707,0.9822,0.9822,0.9822,0.9822,0.9822,0.9822,0.9822,0.9822,0.9822,0.9822,0.9822,0.9822,0.9822,0.9822,0.9822,0.9822,0.9822,0.9822,0.9822,0.9822,0.9822,0.9781,0.9673,0.9747,0.9781,0.9673,0.9727,0.9788,0.9815,0.9795,0.9788,0.9822,0.9822,0.9822,0.9822,0.9822,0.9822,0.9822,0.9822,0.9822,0.9822,0.9822,0.9822,0.9822,0.9883,0.9957,0.999,1.0175,1.031,0.7238,0.7312,0.7521,0.7923,0.8316,0.8669,0.8974,0.9096,0.9255,0.934,0.9557,0.972,0.9713,0.0,0.0,0.0,0.0,0.0,0.0,0.0,0.0,0.0,0.0,0.0,0.0,0.0,0.0,0.0,0.0,0.9347,0.933,0.933,0.9239,0.9171,0.9171,0.9171,0.9171,0.9089,0.9049,0.9049,0.9042,0.9042,0.9049,0.9205,0.9282,0.9214,0.9296,0.9184,0.9049,0.9049,0.9008,0.8885,0.8885,0.8885,0.8892,0.9015,0.8994,0.8912,0.9184,0.9323,0.9306,0.9537,0.9659,0.9734,0.9802,0.9822,0.9822,0.9822,0.9822,0.9822,0.9822,0.9822,0.9822,0.9822,0.9822,0.9822,0.9822,0.9822,0.9822,0.9822,0.9822,0.9822,0.9822,0.9822,0.9795,0.972,0.9774,0.9795,0.972,0.9774,0.9822,0.9822,0.9822,0.9822,0.9822,0.9822,0.9822,0.9822,0.9822,0.9822,0.9822,0.9822,0.9822,0.9822,0.9822,0.9856,0.9869,0.995,1.0058,1.0263,1.0344,1.046,0.7125,0.7312,0.7624,0.8183,0.8472,0.875,0.9049,0.9173,0.9191,0.9476,0.9571,0.9652,0.0,0.0,0.0,0.0,0.0,0.0,0.0,0.0,0.0,0.0,0.0,0.0,0.0,0.0,0.0,0.0,0.0,0.9252,0.918,0.9173,0.9062,0.8885,0.8885,0.8885,0.8885,0.8885,0.8885,0.8885,0.9055,0.9173,0.9173,0.9173,0.9173,0.9173,0.9173,0.9049,0.8885,0.8885,0.8885,0.8885,0.8885,0.8885,0.8898,0.9076,0.9055,0.9015,0.9259,0.935,0.933,0.953,0.9625,0.9666,0.9788,0.9822,0.9822,0.9822,0.9822,0.9822,0.9822,0.9822,0.9822,0.9822,0.9822,0.9822,0.9822,0.9822,0.9822,0.9822,0.9822,0.9822,0.9822,0.9822,0.9822,0.9822,0.9822,0.9822,0.9822,0.9822,0.9822,0.9822,0.9822,0.9822,0.9822,0.9822,0.9822,0.9822,0.9822,0.9822,0.9822,0.9842,0.9863,0.9863,0.9863,0.9937,1.0024,1.0051,1.0249,1.0493,1.0521,1.0602,0.7305,0.7543,0.7834,0.8187,0.8391,0.8594,0.8899,0.8967,0.9015,0.0,0.9422,0.0,0.0,0.0,0.0,0.0,0.0,0.0,0.0,0.0,0.0,0.0,0.0,0.0,0.0,0.0,0.0,0.0,0.9069,0.8932,0.8912,0.8967,0.8905,0.8885,0.8885,0.8885,0.8885,0.8885,0.8885,0.8885,0.8905,0.8967,0.8967,0.8967,0.8967,0.8967,0.8967,0.8898,0.8885,0.8885,0.8885,0.8885,0.8885,0.8885,0.8885,0.8905,0.9035,0.9187,0.9228,0.9347,0.9557,0.9598,0.9693,0.9795,0.9815,0.9822,0.9822,0.9822,0.9822,0.9822,0.9822,0.9822,0.9822,0.9822,0.9822,0.9822,0.9822,0.9822,0.9822,0.9822,0.9822,0.9822,0.9822,0.9822,0.9822,0.9822,0.9822,0.9822,0.9822,0.9822,0.9822,0.9822,0.9822,0.9822,0.9822,0.9822,0.9822,0.9822,0.9822,0.9822,0.9822,0.9889,0.9957,0.9957,0.9957,1.0093,1.0249,1.0371,1.0453,1.0493,1.0629,1.0704,0.7434,0.7651,0.7882,0.8194,0.8438,0.8648,0.8777,0.8824,0.8981,0.918,0.9316,0.0,0.0,0.0,0.0,0.0,0.0,0.0,0.0,0.0,0.0,0.0,0.0,0.0,0.0,0.0,0.0,0.0,0.8974,0.8885,0.8885,0.8885,0.8885,0.8885,0.8804,0.8811,0.8811,0.8723,0.8723,0.8811,0.8844,0.8885,0.8885,0.8885,0.8885,0.8885,0.8885,0.8885,0.8885,0.8885,0.8885,0.8885,0.8885,0.8885,0.8885,0.8885,0.9028,0.9221,0.9309,0.9367,0.951,0.9673,0.972,0.972,0.9795,0.9822,0.9822,0.9822,0.9822,0.9822,0.9822,0.9822,0.9822,0.9822,0.9822,0.9822,0.9822,0.9822,0.9822,0.9822,0.9822,0.9822,0.9822,0.9822,0.9822,0.9822,0.9822,0.9822,0.9822,0.9822,0.9822,0.9822,0.9822,0.9822,0.9822,0.9822,0.9822,0.9822,0.9903,0.9889,0.9889,1.01,1.0215,1.0297,1.0222,1.0249,1.0399,1.046,1.0534,1.0622,1.069,1.0717,0.7421,0.759,0.7773,0.8079,0.835,0.8567,0.8682,0.0,0.892,0.0,0.0,0.0,0.0,0.0,0.0,0.0,0.0,0.0,0.0,0.0,0.0,0.0,0.0,0.0,0.0,0.0,0.0,0.0,0.8824,0.8811,0.8825,0.8825,0.8825,0.8825,0.871,0.8655,0.8655,0.854,0.854,0.8655,0.8804,0.8824,0.8824,0.8865,0.8885,0.8885,0.8885,0.8885,0.8885,0.8885,0.8885,0.8885,0.8885,0.8885,0.8885,0.8885,0.9028,0.9228,0.9327,0.9408,0.9483,0.9741,0.9747,0.968,0.9747,0.9795,0.9815,0.9774,0.9795,0.9822,0.9822,0.9822,0.9822,0.9822,0.9822,0.9822,0.9822,0.9822,0.9822,0.9822,0.9822,0.9822,0.9822,0.9822,0.9822,0.9822,0.9822,0.9822,0.9822,0.9822,0.9822,0.9822,0.9822,0.9822,0.9822,0.9856,0.9863,0.9822,1.0005,1.0031,0.999,1.0229,1.0385,1.0487,1.0426,1.0446,1.0548,1.0548,1.0609,1.0717,1.0717,1.0717,0.7112,0.7278,0.7461,0.776,0.7957,0.8137,0.8615,0.0,0.8764,0.0,0.0,0.0,0.0,0.0,0.0,0.0,0.0,0.0,0.0,0.0,0.0,0.0,0.0,0.0,0.0,0.0,0.0,0.0,0.8723,0.8662,0.8513,0.8506,0.8506,0.8506,0.8499,0.8492,0.8492,0.8486,0.8486,0.8499,0.8648,0.8723,0.873,0.8817,0.8885,0.8885,0.8885,0.8885,0.8885,0.8885,0.8885,0.8885,0.8885,0.8885,0.8885,0.8885,0.9028,0.9228,0.9327,0.9476,0.9625,0.9774,0.9815,0.9788,0.9659,0.9713,0.9795,0.9659,0.972,0.9822,0.9822,0.9822,0.9822,0.9822,0.9822,0.9822,0.9822,0.9822,0.9822,0.9822,0.9822,0.9822,0.9822,0.9822,0.9822,0.9822,0.9822,0.9822,0.9822,0.9822,0.9822,0.9822,0.9822,0.9822,0.9822,0.9896,0.9916,0.9829,1.01,1.0202,0.999,1.0324,1.0487,1.0493,1.0629,1.0704,1.0711,1.0711,1.0711,1.0717,1.0717,1.0717,0.6964,0.7065,0.7272,0.7475,0.7787,0.8029,0.819,0.8425,0.8581,0.0,0.0,0.0,0.0,0.0,0.0,0.0,0.0,0.0,0.0,0.0,0.0,0.0,0.0,0.0,0.0,0.0,0.0,0.0,0.0,0.854,0.8486,0.8479,0.8479,0.8479,0.8391,0.8296,0.8201,0.8296,0.8343,0.835,0.8492,0.8615,0.871,0.8764,0.8845,0.8885,0.8885,0.8885,0.8885,0.8885,0.8885,0.8885,0.8885,0.8885,0.8885,0.8885,0.9028,0.9214,0.9275,0.9401,0.9618,0.9673,0.9747,0.9815,0.9761,0.9781,0.9808,0.9761,0.9781,0.9822,0.9822,0.9754,0.9686,0.9686,0.9754,0.9822,0.9822,0.9822,0.9822,0.9822,0.9822,0.9822,0.9822,0.9822,0.9822,0.9822,0.9822,0.9822,0.9822,0.9822,0.9822,0.9822,0.9822,0.9863,0.9896,0.9869,0.9964,1.0107,1.0215,1.0297,1.0331,1.0527,1.0636,1.0636,1.069,1.0717,1.0717,1.0717,1.0717,1.0724,1.0819,1.0799,0.6865,0.6876,0.7054,0.7305,0.7556,0.7746,0.7941,0.0,0.8289,0.0,0.0,0.0,0.0,0.0,0.0,0.0,0.0,0.0,0.0,0.0,0.0,0.0,0.0,0.0,0.0,0.0,0.0,0.0,0.0,0.0,0.8336,0.8336,0.8336,0.8336,0.8241,0.8147,0.7988,0.814,0.8194,0.8194,0.8343,0.8486,0.8635,0.8635,0.8743,0.8878,0.8831,0.8838,0.8885,0.8885,0.8885,0.8885,0.8885,0.8885,0.8885,0.8885,0.9001,0.9089,0.9193,0.932,0.9544,0.9591,0.9673,0.9747,0.9747,0.9747,0.9747,0.9747,0.9781,0.9822,0.9822,0.9747,0.968,0.968,0.9754,0.9822,0.9822,0.9822,0.9822,0.9822,0.9822,0.9822,0.9822,0.9822,0.9822,0.9822,0.9822,0.9822,0.9822,0.9822,0.9822,0.9822,0.9822,0.9883,0.9977,1.0005,1.0066,1.027,1.0371,1.0446,1.0487,1.0636,1.0717,1.0717,1.0717,1.0717,1.0717,1.0717,1.0744,1.0799,1.0833,1.0934,0.0,0.0,0.0,0.7289,0.7244,0.724,0.7833,0.0,0.7882,0.0,0.0,0.0,0.0,0.0,0.0,0.0,0.0,0.0,0.0,0.0,0.0,0.0,0.0,0.0,0.0,0.0,0.0,0.0,0.8313,0.8201,0.7995,0.7988,0.7988,0.7988,0.7988,0.7988,0.7988,0.7988,0.7988,0.7988,0.8194,0.8343,0.8479,0.8486,0.8648,0.8871,0.8777,0.8804,0.8885,0.8885,0.8885,0.8885,0.8885,0.8885,0.8885,0.8885,0.8885,0.8912,0.9103,0.9316,0.9415,0.9564,0.9612,0.9618,0.9618,0.9618,0.9618,0.9618,0.9713,0.9822,0.9815,0.9815,0.9822,0.9815,0.9815,0.9822,0.9822,0.9815,0.9815,0.9815,0.9815,0.9815,0.9815,0.9815,0.9822,0.9822,0.9822,0.9822,0.9822,0.9822,0.9822,0.9822,0.9822,0.9883,0.9977,1.0188,1.0276,1.029,1.0561,1.0649,1.0507,1.0643,1.0717,1.0717,1.0717,1.0717,1.0717,1.0724,1.0806,1.088,1.0887,1.1118,0.6607,0.0,0.0,0.0,0.0,0.0,0.728,0.7441,0.7577,0.0,0.0,0.0,0.0,0.0,0.0,0.0,0.0,0.0,0.0,0.0,0.0,0.0,0.0,0.0,0.0,0.0,0.0,0.0,0.8106,0.8085,0.7988,0.7988,0.7988,0.7988,0.7988,0.7988,0.7988,0.7988,0.7988,0.7988,0.8194,0.834,0.8388,0.8554,0.8696,0.8777,0.8845,0.8844,0.8885,0.8885,0.8885,0.8885,0.8885,0.8885,0.8885,0.8885,0.9008,0.9096,0.9193,0.9327,0.9551,0.9598,0.968,0.9761,0.9761,0.9761,0.9761,0.9761,0.9788,0.9795,0.9693,0.9741,0.9795,0.9693,0.9747,0.9822,0.9822,0.9741,0.9666,0.9666,0.9666,0.9666,0.9666,0.9754,0.9822,0.9822,0.9822,0.9822,0.9822,0.9822,0.9822,0.9822,0.9822,0.993,1.0195,1.0154,1.0256,1.0575,1.0568,1.0582,1.0656,1.0697,1.0717,1.0717,1.0717,1.0717,1.0717,1.0833,1.084,1.0887,1.1165,1.1369,0.6552,0.6586,0.6729,0.6851,0.0,0.0,0.7051,0.7163,0.7251,0.0,0.0,0.0,0.0,0.0,0.0,0.0,0.0,0.0,0.0,0.0,0.0,0.0,0.0,0.0,0.0,0.8092,0.7988,0.7988,0.7988,0.7988,0.7988,0.7988,0.7988,0.7988,0.7988,0.7988,0.7988,0.7988,0.7988,0.7988,0.8133,0.8208,0.8327,0.8384,0.8499,0.8615,0.8648,0.873,0.8845,0.8845,0.8824,0.8885,0.8885,0.8885,0.8885,0.8885,0.8994,0.9076,0.9187,0.9313,0.9517,0.9517,0.9571,0.9639,0.9639,0.9639,0.9652,0.9713,0.9774,0.9802,0.972,0.9761,0.9802,0.972,0.9761,0.9822,0.9822,0.9707,0.9625,0.9686,0.9652,0.9632,0.9686,0.9768,0.9822,0.9822,0.9822,0.9822,0.9822,0.9822,0.9822,0.9822,0.9876,1.0012,1.0256,1.0249,1.0371,1.0697,1.0636,1.0629,1.0717,1.0717,1.0717,1.0717,1.0717,1.0778,1.0907,1.0867,1.0941,1.1138,1.1375,1.1565,0.66,0.662,0.679,0.7004,0.6905,0.0,0.6991,0.695,0.6903,0.7065,0.0,0.0,0.0,0.0,0.0,0.0,0.0,0.0,0.0,0.0,0.0,0.0,0.0,0.0,0.7988,0.7988,0.7988,0.7988,0.7988,0.7988,0.7988,0.7988,0.7988,0.7988,0.7988,0.7988,0.7988,0.7988,0.7988,0.7988,0.8008,0.8126,0.8241,0.8153,0.8241,0.8452,0.8377,0.8486,0.871,0.873,0.8818,0.8885,0.8885,0.8885,0.8885,0.8898,0.8919,0.9008,0.9157,0.9293,0.9408,0.9408,0.9395,0.9388,0.9401,0.9408,0.9435,0.9591,0.9727,0.9822,0.9822,0.9822,0.9822,0.9822,0.9822,0.9822,0.9822,0.9707,0.9652,0.9795,0.9707,0.9652,0.9774,0.9808,0.9822,0.9822,0.9822,0.9822,0.9822,0.9822,0.9822,0.9822,0.9896,1.0051,1.027,1.0412,1.0555,1.0711,1.0717,1.0717,1.0717,1.0717,1.0717,1.0717,1.0738,1.088,1.1234,1.105,1.1145,1.1423,1.1572,1.1708,0.6842,0.6865,0.6856,0.691,0.6831,0.0,0.677,0.6763,0.6817,0.0,0.0,0.0,0.0,0.0,0.0,0.0,0.0,0.0,0.0,0.0,0.0,0.0,0.0,0.0,0.7988,0.7988,0.7988,0.7988,0.7988,0.7988,0.7988,0.7988,0.7988,0.7988,0.7988,0.7988,0.7988,0.7988,0.7988,0.7988,0.8167,0.8174,0.8049,0.8425,0.8479,0.833,0.8662,0.8771,0.8716,0.879,0.8858,0.8885,0.8885,0.8885,0.8898,0.9069,0.9191,0.9313,0.9469,0.9537,0.9564,0.9564,0.9483,0.9401,0.953,0.9564,0.9598,0.9741,0.9802,0.9822,0.9822,0.9822,0.9822,0.9822,0.9822,0.9822,0.9822,0.9707,0.9652,0.9795,0.9707,0.9618,0.9646,0.9747,0.9822,0.9822,0.9822,0.9822,0.9822,0.9822,0.9822,0.9822,0.9896,1.0051,1.027,1.0412,1.0555,1.0711,1.0717,1.0717,1.0717,1.0717,1.0717,1.0717,1.0839,1.0989,1.1234,1.126,1.1396,1.1579,1.1721,1.1803,0.6923,0.6937,0.0,0.6991,0.0,0.0,0.0,0.6817,0.6858,0.0,0.0,0.0,0.0,0.0,0.0,0.0,0.0,0.0,0.0,0.0,0.0,0.0,0.0,0.0,0.7988,0.7988,0.7988,0.7988,0.7988,0.7988,0.7988,0.7988,0.7988,0.7988,0.7988,0.7988,0.7988,0.7988,0.7988,0.7988,0.8119,0.8113,0.7995,0.8224,0.8296,0.8174,0.8472,0.8601,0.8608,0.8764,0.8817,0.8885,0.8885,0.8885,0.8892,0.9022,0.9137,0.935,0.9442,0.9544,0.9598,0.9517,0.9442,0.9367,0.93,0.9381,0.9544,0.9761,0.9768,0.9734,0.9802,0.9768,0.9713,0.9713,0.9713,0.9713,0.9713,0.9659,0.9652,0.9795,0.9761,0.9713,0.9713,0.9774,0.9822,0.9822,0.9822,0.9822,0.9822,0.9822,0.9849,0.9862,1.0073,1.0222,1.0371,1.0521,1.0636,1.0717,1.0717,1.0717,1.0717,1.0717,1.0758,1.0833,1.0982,1.1131,1.1274,1.143,1.1579,1.1728,1.1796,1.1911,0.0,0.0,0.0,0.0,0.0,0.7,0.0,0.0,0.0,0.0,0.0,0.0,0.0,0.0,0.0,0.0,0.0,0.0,0.0,0.0,0.0,0.0,0.0,0.0,0.0,0.7988,0.7988,0.7988,0.7988,0.7988,0.7988,0.7988,0.7988,0.7988,0.7988,0.7988,0.7988,0.7988,0.7988,0.7988,0.7988,0.7988,0.7988,0.8022,0.8015,0.8002,0.8262,0.8404,0.8499,0.8676,0.8825,0.8885,0.8885,0.8885,0.8892,0.8946,0.9076,0.9234,0.9361,0.9469,0.9503,0.9374,0.9354,0.9334,0.9096,0.9232,0.9517,0.9754,0.9741,0.968,0.9788,0.9734,0.9646,0.9618,0.9612,0.9612,0.9612,0.9612,0.9652,0.9795,0.9822,0.9822,0.9822,0.9822,0.9822,0.9822,0.9822,0.9822,0.9822,0.9849,0.9849,0.997,1.0215,1.0365,1.048,1.0629,1.0717,1.0717,1.0717,1.0717,1.0717,1.0751,1.0819,1.088,1.1118,1.1267,1.1389,1.1572,1.1714,1.183,1.1864,1.2026,0.0,0.0,0.0,0.0,0.7333,0.0,0.0,0.0,0.6883,0.6883,0.0,0.0,0.0,0.0,0.0,0.0,0.0,0.0,0.0,0.0,0.0,0.0,0.0,0.0,0.0,0.7988,0.7988,0.7988,0.7988,0.7988,0.7988,0.7988,0.7988,0.7988,0.7988,0.7988,0.7988,0.7988,0.7988,0.7988,0.7988,0.7988,0.7995,0.818,0.8167,0.8015,0.8479,0.8594,0.8506,0.8791,0.8865,0.8885,0.8885,0.8885,0.8912,0.9232,0.9252,0.9255,0.9483,0.9415,0.9262,0.9241,0.933,0.9374,0.934,0.9537,0.9781,0.9815,0.9808,0.9802,0.9815,0.9808,0.9768,0.9639,0.9612,0.9612,0.9612,0.9612,0.9652,0.9795,0.9822,0.9822,0.9822,0.9822,0.9822,0.9822,0.9822,0.9822,0.9822,0.9876,0.997,0.9984,1.0304,1.0473,1.0487,1.0629,1.0717,1.0717,1.0717,1.0717,1.0717,1.0786,1.086,1.088,1.1226,1.1375,1.1389,1.1674,1.1816,1.1837,1.1972,1.2128,0.0,0.0,0.0,0.0,0.0,0.0,0.7238,0.0,0.7183,0.0,0.0,0.0,0.0,0.0,0.0,0.0,0.736,0.0,0.0,0.0,0.0,0.0,0.0,0.0,0.0,0.0,0.0,0.0,0.7988,0.7988,0.7988,0.7988,0.7988,0.7988,0.7988,0.7988,0.7988,0.7988,0.7988,0.7988,0.7988,0.7988,0.7988,0.8106,0.8099,0.8008,0.8418,0.854,0.8506,0.8811,0.8885,0.8885,0.8885,0.8885,0.8905,0.9171,0.9323,0.9306,0.9435,0.9449,0.9401,0.9313,0.9323,0.9337,0.9462,0.9537,0.9585,0.9673,0.9571,0.9456,0.9544,0.9564,0.953,0.9381,0.9483,0.9585,0.9496,0.9544,0.9652,0.9795,0.9822,0.9822,0.9822,0.9822,0.9822,0.9822,0.9822,0.9849,0.9883,0.995,1.0051,1.029,1.0419,1.0527,1.0616,1.0683,1.0717,1.0717,1.0717,1.0758,1.0779,1.0847,1.0961,1.1199,1.1328,1.1436,1.1525,1.1728,1.1877,1.1972,1.2121,1.2271,0.7719,0.0,0.0,0.0,0.0,0.0,0.0,0.0,0.0,0.0,0.0,0.0,0.0,0.0,0.738,0.7231,0.0,0.7529,0.0,0.0,0.0,0.0,0.0,0.0,0.0,0.0,0.0,0.0,0.0,0.7988,0.7988,0.7988,0.7988,0.7988,0.7988,0.7988,0.7988,0.7988,0.7988,0.7988,0.7988,0.7988,0.7988,0.7988,0.7988,0.8002,0.8309,0.8445,0.8506,0.8764,0.8844,0.8885,0.8885,0.8885,0.8898,0.9096,0.9255,0.9266,0.9306,0.9367,0.9408,0.9293,0.9211,0.9255,0.9415,0.9435,0.9401,0.9517,0.9388,0.9296,0.9354,0.9381,0.934,0.9248,0.9354,0.9517,0.9408,0.9503,0.9652,0.9795,0.9822,0.9822,0.9822,0.9822,0.9822,0.9822,0.9822,0.9876,0.997,1.0024,1.0209,1.0466,1.0527,1.0602,1.0711,1.0717,1.0717,1.0717,1.0717,1.0785,1.0873,1.0921,1.1124,1.1389,1.147,1.1565,1.1681,1.1864,1.2013,1.2128,1.2237,1.2366,0.0,0.0,0.0,0.7665,0.0,0.0,0.0,0.0,0.759,0.0,0.0,0.0,0.0,0.759,0.7543,0.7433,0.7495,0.0,0.0,0.0,0.0,0.0,0.0,0.0,0.0,0.0,0.0,0.0,0.0,0.0,0.7988,0.7988,0.7988,0.7988,0.7988,0.7988,0.7988,0.7988,0.7988,0.7988,0.7988,0.7988,0.7988,0.7988,0.7988,0.7995,0.8208,0.8357,0.8492,0.8655,0.8804,0.8885,0.8885,0.8885,0.8898,0.9096,0.9069,0.8919,0.911,0.9069,0.8905,0.8898,0.9042,0.9214,0.9221,0.9323,0.9381,0.9388,0.9381,0.9374,0.9381,0.9381,0.934,0.9248,0.933,0.9388,0.9381,0.9503,0.9652,0.9795,0.9822,0.9822,0.9822,0.9822,0.9822,0.9822,0.9822,0.9876,0.997,1.0181,1.0331,1.0473,1.0622,1.0717,1.0717,1.0717,1.0717,1.0717,1.0717,1.0785,1.0873,1.1084,1.1226,1.1389,1.1674,1.1816,1.1823,1.2128,1.2277,1.2284,1.2291,1.2366,0.0,0.0,0.8147,0.7943,0.0,0.0,0.0,0.0,0.0,0.0,0.0,0.0,0.0,0.7678,0.7692,0.7543,0.7563,0.7563,0.0,0.0,0.0,0.0,0.0,0.0,0.0,0.0,0.0,0.0,0.7988,0.0,0.7988,0.7988,0.7988,0.7988,0.7988,0.7988,0.7988,0.7988,0.7988,0.7988,0.7988,0.7988,0.7988,0.7988,0.7988,0.7995,0.8201,0.835,0.8492,0.8648,0.8798,0.8885,0.8885,0.8885,0.8898,0.9096,0.918,0.9103,0.9252,0.9205,0.9096,0.9198,0.9198,0.9228,0.933,0.9323,0.9289,0.9289,0.9289,0.9211,0.911,0.9306,0.9442,0.9096,0.9347,0.9618,0.9422,0.9578,0.9761,0.9815,0.9822,0.9822,0.9822,0.9822,0.9822,0.9822,0.9822,0.991,1.0168,1.0249,1.0371,1.0616,1.069,1.0717,1.0717,1.0717,1.0717,1.0717,1.0745,1.0934,1.1084,1.1233,1.1389,1.1538,1.1735,1.183,1.183,1.2142,1.2291,1.2291,1.2386,1.2454,0.8241,0.8361,0.0,0.8042,0.8153,0.0,0.7882,0.0,0.0,0.0,0.0,0.0,0.0,0.7828,0.7862,0.7773,0.7712,0.7678,0.0,0.7753,0.0,0.0,0.0,0.0,0.0,0.0,0.0,0.7988,0.7988,0.7988,0.0,0.0,0.7988,0.7988,0.7988,0.7988,0.7988,0.7988,0.7988,0.7988,0.7988,0.7988,0.7988,0.7988,0.7988,0.7995,0.8201,0.835,0.8492,0.8648,0.8798,0.8885,0.8885,0.8885,0.8892,0.9042,0.9166,0.9214,0.9205,0.9191,0.9221,0.9205,0.9157,0.9096,0.9191,0.9157,0.9089,0.9193,0.9207,0.9187,0.9042,0.9273,0.9442,0.9096,0.9388,0.9693,0.9503,0.9652,0.9822,0.9822,0.9822,0.9822,0.9822,0.9822,0.9822,0.9822,0.9822,0.993,1.0243,1.0283,1.0392,1.069,1.0717,1.0717,1.0717,1.0717,1.0717,1.0717,1.0799,1.1016,1.1158,1.1307,1.1511,1.1769,1.1864,1.1965,1.2067,1.2271,1.2366,1.2366,1.2461,1.2501]}]]